GFSSGP_925_thetae_009.txt.gz
Theta_e
310 313 314 312 310 306 310 313 311 315 340 336 335 335 336 337 338 333 340 338 329 325 324 328 333 337 338 339 337 340 340 341 340 339 337 335 332 331 330 327 328 327 325 326 325 326 331 329 329
311 313 310 305 309 309 310 311 314 327 338 336 335 337 341 345 339 339 338 336 331 326 321 322 325 329 333 335 336 336 334 334 337 338 338 338 336 334 331 329 329 329 328 326 328 328 331 331 332
313 314 306 306 306 311 312 312 324 331 331 327 338 337 338 342 339 339 338 335 334 331 324 320 319 323 324 323 324 326 329 332 334 336 337 338 338 337 336 335 334 331 328 326 328 328 329 328 326
313 306 303 306 311 312 312 314 316 324 329 332 335 339 336 336 339 339 337 337 335 328 325 321 320 319 318 317 316 315 316 317 320 325 331 334 335 335 334 333 330 330 325 327 329 331 329 327 326
309 302 305 307 310 311 312 322 325 329 330 330 330 334 338 336 339 338 337 337 330 328 326 325 323 323 322 322 321 320 320 322 323 324 322 324 328 331 331 329 327 329 327 328 328 329 328 330 328
306 303 306 308 309 310 310 315 319 328 328 329 329 330 333 336 339 338 337 337 328 328 327 328 327 327 324 323 324 324 324 324 325 325 324 324 325 326 328 330 331 331 332 332 328 326 326 326 326
306 304 307 308 309 310 311 310 310 311 318 324 326 337 334 333 339 338 338 336 331 334 333 333 333 331 328 324 322 324 324 324 325 324 324 325 325 324 325 327 328 329 329 327 327 328 327 324 325
303 303 307 307 308 309 308 311 310 310 312 323 323 329 337 333 338 339 339 338 335 334 334 334 334 333 330 325 326 324 324 324 325 325 325 325 326 326 325 326 326 327 327 327 328 328 329 329 329
304 304 307 311 310 311 308 312 310 310 318 315 321 322 324 335 335 337 337 338 338 335 335 335 335 334 331 328 329 328 328 326 327 325 326 326 327 325 325 324 323 323 324 325 326 327 327 327 326
305 305 310 310 310 310 310 311 310 311 316 325 327 324 329 334 333 331 332 335 338 338 337 336 335 335 333 330 330 330 330 329 328 327 327 328 327 325 324 321 319 320 320 321 322 322 322 323 323
310 311 311 313 310 310 313 314 312 309 315 321 325 324 329 333 333 331 332 335 336 337 337 333 332 332 332 331 330 331 330 330 329 328 327 327 327 325 324 322 320 317 315 314 315 315 316 318 317
312 313 313 314 313 313 314 313 314 312 312 312 321 320 328 330 328 327 328 330 331 333 327 324 324 328 329 329 329 331 331 330 329 328 326 326 323 321 318 319 318 317 315 312 314 315 315 316 317
315 314 314 314 314 314 313 314 313 313 311 311 319 322 327 328 328 327 327 327 328 324 323 321 319 324 321 325 328 331 330 329 329 327 324 323 321 320 318 318 318 316 316 317 317 314 313 313 312
317 316 315 315 314 314 315 314 314 313 310 310 316 321 323 323 325 322 322 324 324 323 320 319 319 319 320 324 326 327 328 327 328 324 322 319 319 320 320 319 320 320 318 316 311 307 305 303 303
317 317 314 315 315 315 312 312 312 311 309 310 313 315 315 315 319 317 321 325 323 321 319 319 318 318 318 320 320 321 320 318 317 316 316 314 314 318 319 319 320 319 316 313 310 306 304 303 303
314 311 312 313 314 313 311 311 311 311 309 309 308 311 312 311 313 316 319 320 320 319 318 319 317 316 317 317 317 319 319 316 313 311 311 311 312 313 315 315 315 315 313 310 308 304 304 304 303
310 313 313 314 313 315 313 311 310 310 309 309 308 308 310 311 311 313 314 315 315 315 317 316 314 314 315 313 313 314 314 313 312 311 310 310 312 312 311 310 311 311 310 306 305 305 304 303 303
314 313 314 316 314 314 315 311 311 311 308 308 308 308 310 311 312 311 312 313 313 315 315 313 312 312 310 310 310 310 310 310 310 310 310 310 312 313 311 309 310 311 308 305 305 305 304 303 303
314 315 316 315 314 316 316 313 313 310 309 308 305 307 309 311 309 310 311 312 313 313 313 312 312 311 310 310 309 309 309 309 309 308 308 309 308 311 312 309 307 308 307 305 305 305 304 303 303
315 316 315 315 314 316 315 315 309 309 310 308 308 309 309 310 308 309 310 312 312 312 312 311 312 311 311 311 311 310 310 309 308 308 308 307 307 307 312 310 307 306 306 306 305 305 304 304 304
314 316 316 316 315 315 315 316 312 311 311 310 310 308 308 309 309 309 310 311 311 311 312 312 312 312 312 311 311 310 309 308 309 309 308 308 307 307 310 310 309 307 305 306 305 305 304 304 302
316 314 315 316 318 319 315 318 314 312 313 312 309 308 309 309 309 309 311 311 312 313 312 312 312 311 311 310 310 309 308 307 309 310 310 310 309 307 306 307 310 308 305 305 305 303 303 303 301
317 315 316 318 317 317 316 315 315 311 313 312 311 311 310 310 310 311 310 311 311 311 312 312 312 312 312 311 311 311 310 310 310 309 308 308 307 306 306 306 308 307 304 303 303 301 296 296 295
315 317 316 316 316 319 318 316 313 313 313 314 313 312 311 310 309 311 310 311 312 312 312 312 311 311 310 310 309 308 308 308 308 308 308 308 308 307 305 305 305 305 303 299 296 296 297 298 297
315 316 316 316 316 319 317 315 313 313 313 313 313 312 310 309 308 308 309 310 311 310 310 311 311 310 309 309 308 307 307 307 306 306 306 307 306 304 302 303 301 299 297 296 298 298 298 298 298
317 317 315 319 317 318 316 318 315 313 313 310 312 311 312 311 308 308 309 309 309 310 310 310 309 308 308 308 305 304 305 304 304 304 304 304 303 299 297 296 297 297 297 297 296 296 296 295 293
319 318 316 314 305 312 317 317 314 313 315 315 313 312 310 309 308 309 309 309 309 310 310 309 308 308 308 303 304 304 304 303 303 303 302 301 299 295 296 297 298 298 299 298 296 294 292 293 293
317 316 318 314 314 323 321 319 318 316 317 314 313 311 309 308 308 308 308 310 310 309 309 309 308 307 306 304 305 305 303 301 301 301 300 298 295 296 297 300 299 297 295 294 293 293 292 292 292
317 317 317 318 316 323 319 320 315 315 314 314 311 310 309 309 308 307 308 309 309 309 309 308 307 307 304 304 304 303 302 298 296 297 295 295 296 296 295 296 294 293 293 293 293 292 292 291 290
317 317 316 319 319 314 311 318 314 314 312 311 311 310 309 309 308 307 309 309 309 308 308 307 307 306 303 304 303 302 301 297 294 294 294 295 295 294 293 293 292 292 292 292 292 291 291 290 289

GFSSGP_925_thetae_015.txt.gz
Theta_e
310 312 313 311 316 315 314 315 312 333 339 336 335 334 338 339 337 337 337 337 326 326 332 335 336 337 336 339 341 340 339 339 338 335 333 335 336 336 335 334 333 332 327 328 328 327 328 327 330
312 312 310 311 316 319 322 316 318 337 340 336 337 338 340 340 340 338 335 331 325 325 328 330 333 334 335 334 336 338 338 337 337 337 337 333 333 335 334 332 330 328 328 330 330 330 330 330 332
313 310 313 313 313 317 329 324 338 338 333 334 340 337 339 342 339 337 336 329 324 320 322 325 328 329 329 329 332 333 334 335 336 337 337 337 336 332 330 329 328 331 333 331 327 329 330 331 329
312 309 308 319 317 313 320 331 337 336 332 336 337 338 336 335 338 338 335 330 326 320 319 320 321 320 318 318 318 320 324 328 332 335 336 337 337 337 336 335 333 329 328 328 327 327 330 330 330
307 309 316 320 320 320 320 325 332 331 331 333 333 339 339 337 338 337 335 332 327 321 320 320 320 320 320 320 320 320 321 321 322 322 323 327 331 332 331 329 327 328 327 330 331 328 328 327 327
311 310 319 322 318 312 319 320 326 328 330 332 336 335 337 336 336 336 335 330 324 321 321 321 322 322 322 322 322 322 323 323 324 323 323 324 325 326 326 325 326 327 328 328 326 326 327 325 326
310 311 310 310 312 311 312 308 321 324 326 326 330 335 336 337 336 336 334 328 325 324 324 325 326 326 325 323 323 323 323 324 324 324 324 324 324 324 324 324 325 325 325 324 325 325 326 327 328
307 310 309 308 310 311 310 311 310 315 322 324 327 332 338 336 336 335 334 328 326 327 328 329 329 329 327 325 325 325 325 325 324 324 324 323 323 323 324 323 322 321 321 322 323 324 325 326 326
305 311 310 310 311 312 310 312 310 312 324 318 321 331 326 336 335 336 336 331 330 329 330 332 331 331 329 326 326 326 327 326 327 326 325 323 323 324 323 320 319 317 318 320 320 320 321 323 324
311 312 311 310 309 312 311 311 311 315 321 324 326 325 330 336 336 337 337 335 334 333 333 333 332 332 329 327 327 326 327 327 327 327 326 325 325 325 324 322 321 319 317 316 317 317 317 317 318
312 314 311 312 310 311 313 313 311 316 318 320 321 329 333 336 337 337 337 337 336 335 334 334 333 332 328 328 328 327 326 327 327 327 326 326 325 324 324 322 320 318 318 315 315 312 314 315 314
315 311 313 313 311 312 313 312 313 312 314 314 320 330 333 334 336 337 337 337 336 335 335 335 334 332 329 327 328 328 328 328 328 328 327 327 325 323 322 318 317 317 316 315 313 313 313 312 311
315 313 312 312 310 312 312 314 313 313 313 311 319 330 334 334 334 335 336 336 334 335 336 336 335 329 323 323 326 327 327 328 329 328 327 327 325 323 321 319 318 317 317 316 316 315 312 306 304
316 315 314 314 314 313 315 314 313 313 311 312 319 328 333 334 333 330 329 332 331 334 334 335 332 323 322 322 322 324 326 328 327 326 326 327 325 321 318 316 314 314 316 317 318 315 311 307 303
313 315 313 313 313 314 312 315 314 312 310 311 314 322 330 332 332 331 329 328 328 331 332 333 325 321 319 320 320 320 320 320 320 318 318 318 316 314 313 312 312 312 313 316 318 316 312 307 304
313 313 317 314 315 313 314 319 316 310 312 314 313 312 322 328 328 324 323 322 323 324 326 329 322 319 317 318 317 316 315 317 317 315 314 313 312 311 311 311 310 311 312 313 315 315 312 308 304
314 315 315 316 313 316 317 319 317 313 312 315 312 310 316 322 319 315 313 314 316 320 324 324 320 318 316 316 315 313 313 313 312 311 311 311 310 310 310 310 310 310 311 311 311 312 311 308 306
316 315 315 316 315 317 317 318 316 310 309 311 310 309 312 317 315 311 311 312 315 320 321 319 318 317 315 315 313 311 310 310 310 310 309 309 309 309 309 309 310 310 311 311 310 311 310 308 306
314 314 316 315 314 317 317 317 314 311 311 310 310 311 313 314 310 310 310 311 313 315 317 317 317 314 313 313 310 309 309 309 309 309 309 309 308 308 307 307 308 309 312 312 310 310 309 308 305
314 315 315 315 314 317 317 317 313 312 311 310 312 313 313 313 312 310 310 311 311 313 314 314 310 309 308 307 307 307 307 309 310 310 310 309 309 308 308 307 307 308 310 310 311 309 308 307 306
316 316 315 316 315 315 315 317 315 312 312 312 311 312 312 313 313 312 310 310 309 309 308 308 307 307 308 309 309 309 309 309 309 308 307 306 306 305 304 305 305 306 308 308 309 309 308 308 306
318 314 316 317 319 321 315 320 317 313 313 313 312 312 312 312 312 311 310 309 308 308 309 310 309 309 309 308 308 306 306 306 305 305 304 303 304 304 304 304 304 305 306 307 307 307 307 306 307
319 315 317 317 319 319 319 319 319 314 314 313 313 312 313 311 310 310 309 309 308 309 309 309 309 309 308 307 306 305 305 305 304 304 302 301 301 302 303 302 302 303 304 305 304 304 303 303 304
315 317 315 315 318 323 318 318 320 317 314 314 314 314 312 311 310 308 309 309 309 309 309 309 309 308 308 306 306 305 305 305 304 304 303 302 301 301 301 301 301 302 301 299 299 299 299 299 299
318 316 321 325 326 326 317 317 318 315 314 314 314 313 312 312 311 311 310 310 309 309 309 308 308 308 307 306 305 305 305 305 304 303 302 301 300 300 299 299 299 299 298 298 298 297 296 296 295
318 318 323 321 324 323 316 320 320 314 314 314 313 311 311 311 311 311 310 310 309 309 308 308 307 307 306 305 304 305 305 304 303 301 300 299 298 298 298 298 298 298 298 298 298 296 295 294 293
319 322 315 317 308 322 320 318 315 314 315 314 312 312 312 311 311 311 310 310 310 309 308 308 308 305 305 305 305 304 304 303 300 300 299 298 296 297 298 298 298 298 297 296 296 295 293 292 292
318 315 321 321 324 323 320 320 319 316 315 314 313 313 312 311 311 312 311 310 310 309 308 308 308 306 305 305 304 303 302 300 299 298 297 295 296 298 298 298 295 294 294 293 294 295 295 294 294
319 319 317 318 320 324 322 321 316 316 314 314 313 313 313 313 312 312 310 310 309 309 309 308 307 306 305 304 302 301 299 299 297 294 294 294 296 297 294 294 294 294 293 293 292 293 293 293 293
316 316 315 318 317 318 319 318 312 314 313 313 313 312 312 312 312 311 310 309 309 309 308 307 307 306 304 302 301 299 298 296 293 293 294 294 293 293 294 294 294 293 293 292 291 291 290 290 289

GFSSGP_925_thetae_021.txt.gz
Theta_e
311 314 317 320 322 326 331 333 333 335 336 336 333 334 335 338 343 348 337 334 337 340 340 340 338 340 341 341 341 340 339 336 335 336 337 337 338 337 336 335 334 333 330 329 332 334 335 332 330
317 315 317 322 323 327 329 328 332 334 332 331 330 331 332 336 339 338 336 332 334 337 338 340 336 337 340 340 340 340 339 338 337 335 334 336 336 336 335 333 332 330 329 329 332 335 331 330 331
317 316 320 322 324 326 328 327 333 332 332 332 331 331 334 335 335 336 332 331 332 334 336 334 334 333 332 332 333 333 335 335 335 335 336 334 333 332 331 331 331 332 332 331 332 331 331 330 329
316 317 320 322 327 326 328 331 331 331 333 331 329 332 336 335 334 332 330 329 330 330 331 328 326 319 318 319 320 322 324 328 332 333 334 335 336 336 335 335 332 328 329 331 331 330 330 330 329
317 321 323 324 326 328 329 329 330 331 330 330 328 329 337 337 335 332 329 325 325 326 326 326 319 320 321 322 322 323 323 323 323 324 326 328 329 328 327 326 326 326 328 329 328 326 325 324 324
320 323 323 325 326 328 329 329 328 328 328 326 327 329 337 335 333 332 329 325 325 326 327 325 321 321 322 322 323 324 324 324 324 325 325 325 324 324 324 325 325 325 324 323 323 324 325 326 326
319 324 324 324 325 326 326 325 324 325 325 325 324 328 333 333 332 331 328 325 324 326 328 328 329 327 323 323 324 324 324 324 324 324 324 323 323 323 323 323 322 321 320 320 321 321 322 323 324
321 323 322 322 324 321 319 321 322 322 325 324 325 325 332 332 331 329 327 325 326 327 329 330 330 329 330 330 323 324 325 325 325 325 324 323 329 327 325 328 323 317 316 317 318 318 319 318 319
319 319 319 318 318 317 317 317 317 319 322 322 322 327 328 331 330 329 328 327 329 330 332 331 330 329 328 327 326 327 326 326 330 330 328 330 330 329 328 326 321 320 318 317 315 315 315 314 316
319 319 317 317 318 317 317 317 317 319 319 320 323 324 330 332 331 330 328 329 330 331 331 332 334 331 328 324 328 328 327 329 329 330 330 328 329 328 326 327 326 324 323 321 319 319 318 319 319
319 318 317 316 317 317 316 316 316 317 318 320 321 323 330 331 331 331 330 328 328 330 330 331 337 334 331 328 325 326 326 327 328 330 330 328 328 329 327 326 326 326 325 323 321 320 320 320 320
317 317 317 316 316 317 316 317 317 317 318 319 320 324 328 331 331 331 330 328 327 329 329 331 338 336 332 328 326 325 325 327 327 328 328 327 326 326 325 323 322 320 320 320 320 320 320 321 320
318 317 316 316 316 317 317 317 318 317 318 318 321 324 328 330 330 329 328 328 328 328 329 330 335 340 333 330 326 326 326 326 327 326 325 325 324 323 322 321 320 319 318 319 318 318 318 318 318
320 320 320 319 319 319 319 319 319 319 318 318 320 323 326 327 328 328 329 328 328 328 329 330 334 339 334 326 327 325 326 325 325 323 322 323 324 323 322 320 319 318 317 317 318 318 318 318 316
321 321 321 321 321 321 320 319 319 320 319 319 319 321 324 326 325 326 327 328 328 328 329 331 334 337 333 326 325 323 322 321 321 321 321 321 321 320 320 319 319 318 318 318 318 318 318 318 317
320 321 322 321 321 321 321 323 320 321 321 320 321 321 322 325 325 325 325 326 327 328 328 329 333 336 332 325 324 322 321 320 319 319 319 319 320 319 319 318 318 318 318 318 318 317 317 317 317
320 322 319 321 320 321 321 322 322 322 321 320 321 321 321 323 325 326 328 327 326 326 327 329 333 333 330 325 323 322 321 320 319 319 318 318 318 317 318 317 317 317 317 318 318 317 316 316 317
320 318 318 319 321 319 320 320 322 320 320 321 321 322 321 322 325 328 325 324 322 324 326 328 331 331 327 324 322 319 318 317 317 316 316 316 316 316 316 316 316 316 316 315 315 316 317 317 316
318 319 320 320 320 320 321 321 320 321 322 322 322 322 321 323 326 322 321 321 322 325 327 328 328 323 321 320 318 317 317 316 316 316 316 316 315 314 313 313 312 312 312 312 313 314 315 316 316
321 321 321 321 320 321 322 322 320 320 321 322 322 323 324 323 321 321 321 321 320 320 320 319 318 317 316 315 315 315 316 315 316 316 314 313 312 311 310 309 310 309 310 310 311 312 313 314 314
323 322 323 322 322 322 322 323 320 320 320 320 321 321 321 321 320 320 320 320 319 319 317 317 316 316 316 315 315 315 315 315 314 313 313 312 312 310 309 308 308 308 308 308 309 309 310 312 312
323 321 322 322 322 324 323 325 322 321 320 320 320 321 320 320 319 319 319 319 319 318 317 316 316 315 315 314 313 314 314 314 314 313 313 312 311 309 307 306 306 307 307 307 308 308 309 310 310
323 322 322 323 324 324 323 323 324 321 321 321 321 321 320 320 320 319 318 318 318 318 318 317 316 315 314 314 313 313 313 313 312 311 310 309 307 306 305 305 305 306 306 307 307 307 307 306 306
322 324 323 325 326 327 326 324 326 323 322 321 321 321 321 320 319 318 317 317 318 317 317 316 315 315 314 314 313 312 311 310 309 308 307 306 305 304 304 304 304 305 306 306 305 302 301 300 300
324 325 329 331 330 330 324 322 326 322 321 321 321 320 320 320 319 319 318 318 317 317 316 316 315 315 313 312 311 310 309 308 308 307 306 305 304 303 302 303 304 304 304 302 301 301 300 298 297
324 325 330 328 328 326 323 321 326 321 320 319 319 319 319 319 318 318 317 317 317 316 316 316 315 314 313 312 311 310 310 308 307 306 305 303 301 301 302 303 303 302 302 300 300 300 299 298 297
324 326 322 327 325 328 322 323 323 321 320 319 319 319 319 318 318 318 317 316 316 315 315 315 314 313 312 312 311 310 308 307 306 304 301 300 300 301 301 302 301 300 298 298 297 298 298 298 297
323 322 327 325 329 322 319 319 321 323 321 321 319 318 318 318 317 317 316 315 315 314 314 313 312 311 311 309 309 308 306 305 303 301 300 300 300 301 301 301 299 298 298 297 297 297 297 297 296
323 324 323 321 322 324 321 319 320 320 319 319 317 318 318 317 317 316 314 314 314 313 313 311 310 309 308 307 306 304 303 302 300 300 299 299 299 299 298 298 297 298 297 296 296 295 295 295 295
320 321 321 321 318 321 323 321 318 318 318 317 318 317 317 316 316 315 314 313 313 312 311 309 308 306 305 304 302 302 301 301 300 299 299 298 298 298 298 298 296 296 295 295 294 294 293 293 293

GFSSGP_925_thetae_027.txt.gz
Theta_e
308 309 315 315 317 317 319 322 330 331 327 332 336 339 340 339 342 347 342 341 338 338 338 338 339 339 339 339 338 337 335 335 336 336 336 337 337 336 335 334 333 331 330 330 331 331 331 330 329
309 311 317 314 318 320 323 330 328 325 326 333 333 336 337 337 334 336 341 340 338 337 338 338 338 338 338 338 338 337 336 335 334 334 335 335 334 334 332 331 330 331 332 331 329 326 327 328 328
310 312 313 315 317 318 325 329 326 326 327 329 333 332 335 335 332 336 341 340 338 334 334 334 333 331 330 331 331 332 333 334 336 335 335 334 334 333 333 333 332 328 325 325 325 325 324 324 325
316 315 312 314 316 324 330 327 327 329 328 331 332 335 331 331 331 334 339 336 330 329 326 323 319 319 319 320 322 324 327 328 330 333 333 333 333 331 327 324 324 324 325 324 320 319 320 320 322
318 314 314 317 325 328 326 326 327 328 332 336 335 334 331 329 332 333 333 328 322 320 318 318 319 320 320 320 321 321 321 321 322 322 323 323 323 322 323 323 324 323 320 318 317 316 316 316 316
314 313 314 316 325 326 324 323 328 328 327 335 336 334 330 328 328 328 327 321 317 318 319 319 319 318 317 319 319 321 321 321 322 321 321 320 320 320 321 321 319 316 315 314 313 313 312 312 312
315 315 316 317 324 325 324 321 322 323 321 326 333 335 329 326 325 325 325 324 322 318 318 319 325 324 317 317 320 322 322 322 321 320 320 325 324 326 323 322 319 316 314 313 312 311 310 309 310
313 314 315 316 321 320 320 317 318 320 319 326 330 333 331 327 325 325 325 326 326 327 328 329 329 329 326 316 315 317 320 323 326 325 329 329 329 328 325 324 324 323 322 321 317 319 319 316 314
314 313 313 315 316 316 317 314 314 317 318 322 325 330 329 328 325 324 325 326 326 328 330 330 331 328 328 326 326 324 329 329 330 329 330 328 330 328 326 326 326 325 323 323 321 320 320 319 320
313 312 314 313 313 312 314 312 315 316 317 328 331 329 329 328 325 324 324 326 328 331 330 330 329 327 329 327 328 326 329 329 330 329 330 329 328 327 327 327 326 321 322 323 321 320 320 320 321
314 313 313 313 313 312 311 313 315 315 316 325 331 329 326 327 326 325 325 327 330 330 331 330 328 328 328 327 328 328 329 329 330 330 327 326 328 326 324 323 321 320 320 319 319 319 319 320 319
313 312 313 314 313 312 312 312 314 313 314 319 328 327 326 325 326 326 325 328 329 330 332 331 325 329 329 328 325 327 329 330 331 328 327 325 325 324 322 321 319 320 318 318 318 320 318 317 318
312 313 313 313 313 314 314 314 315 314 314 318 327 328 327 326 327 328 327 327 329 330 332 332 331 324 324 325 326 324 326 326 326 327 325 322 324 323 322 321 320 319 319 319 318 317 317 317 318
314 313 312 313 315 316 316 317 317 313 313 318 324 326 324 326 326 328 328 327 327 330 334 335 335 334 333 327 326 325 325 326 325 324 323 319 322 323 321 320 319 319 319 319 319 318 317 318 319
316 316 314 314 315 316 316 317 316 313 313 316 319 322 323 326 327 328 329 327 328 328 333 336 336 331 330 328 326 323 326 324 323 322 321 320 320 320 319 319 319 319 318 318 318 317 318 318 317
317 316 317 317 316 316 315 316 314 313 314 313 315 315 319 323 324 329 327 327 328 329 330 335 334 329 328 327 326 322 322 320 320 320 320 320 320 320 318 317 317 316 316 316 315 316 317 317 318
317 316 318 319 317 319 317 318 314 313 314 314 314 313 314 317 320 324 325 326 326 326 328 329 332 332 330 326 324 322 322 321 319 320 319 320 317 316 316 316 315 313 313 313 313 313 314 314 313
318 318 320 317 318 316 315 316 317 317 318 319 318 315 320 321 321 323 325 327 327 328 330 330 328 326 325 324 323 321 321 320 319 318 317 316 315 315 315 314 311 311 311 310 310 309 309 309 309
318 318 317 317 317 318 317 316 317 317 316 318 319 321 321 321 320 320 320 321 321 320 320 319 320 317 317 316 316 316 316 315 315 316 316 314 314 312 312 311 311 310 309 309 308 307 308 308 308
319 320 321 318 318 317 317 318 317 318 318 319 320 320 319 320 320 320 319 318 318 318 317 317 317 317 315 315 316 315 315 315 316 315 314 313 311 309 308 307 306 306 306 306 307 307 306 309 309
321 322 321 320 319 319 319 318 318 318 318 319 317 317 317 319 319 319 319 318 317 317 317 316 316 315 314 314 314 314 314 314 313 312 310 309 308 307 305 304 304 304 304 306 306 307 308 305 304
324 322 322 321 320 320 317 319 318 318 318 319 318 315 315 317 318 319 318 318 318 317 317 316 316 316 315 315 315 314 314 312 311 310 309 308 307 305 305 303 302 302 303 303 305 306 306 305 300
322 321 321 322 321 321 321 320 318 319 320 319 317 317 316 315 315 316 318 319 318 318 317 316 316 315 315 314 314 313 312 310 310 309 308 306 306 305 302 301 300 301 303 304 305 304 302 301 300
320 322 323 322 322 323 325 323 323 319 321 321 320 318 316 315 314 316 318 318 318 317 317 317 316 316 314 313 313 312 311 311 309 307 306 304 303 301 300 300 302 303 303 303 302 301 300 299 298
321 322 325 326 325 325 328 327 328 322 321 321 320 318 316 315 313 313 315 317 318 317 317 316 316 315 313 312 311 310 309 307 306 304 302 301 301 299 299 302 301 301 301 300 300 299 298 298 298
322 322 321 329 326 325 322 326 323 319 318 319 318 316 316 315 314 314 315 316 316 315 314 314 314 313 311 310 309 308 306 305 304 302 301 300 299 299 300 299 300 300 299 298 298 298 296 297 296
320 321 319 322 323 319 320 321 320 318 319 319 318 316 315 314 314 314 314 314 313 313 313 312 311 310 309 307 305 304 303 302 302 302 300 301 300 299 298 298 298 298 298 297 297 296 296 296 295
320 319 320 321 323 325 319 325 327 321 320 320 317 316 315 314 313 311 313 313 313 313 312 311 310 308 306 304 303 302 301 302 302 301 299 299 299 298 298 298 298 297 297 297 297 296 294 293 294
319 321 320 320 318 320 319 318 319 322 320 320 316 316 314 313 311 311 312 312 311 311 311 309 307 306 304 303 302 301 300 301 301 301 297 296 296 297 297 296 296 296 294 294 294 294 293 293 293
318 320 320 316 320 315 315 317 316 316 316 315 314 316 313 312 310 310 312 311 309 309 308 307 305 305 303 302 301 300 300 300 300 299 296 295 297 296 295 294 292 291 291 291 291 291 290 289 288

GFSSGP_925_thetae_030.txt.gz
Theta_e
309 308 315 315 316 316 318 320 329 332 337 337 337 338 337 337 340 345 341 339 339 339 340 340 339 338 337 336 335 335 336 336 336 336 336 336 335 334 333 332 330 329 330 334 331 327 326 327 327
310 312 317 313 316 318 323 327 336 335 336 334 334 336 340 343 340 341 339 340 338 338 339 339 338 338 338 337 336 335 334 334 335 335 334 334 333 331 331 331 332 330 326 325 325 325 325 325 326
310 312 312 313 315 316 328 326 328 331 332 332 333 332 334 340 340 340 339 338 338 338 338 337 336 336 335 333 331 331 332 333 333 332 332 331 331 331 329 326 323 323 323 322 320 319 318 319 320
316 313 310 313 314 316 327 325 331 333 332 333 332 334 330 334 337 340 339 337 335 336 334 331 328 325 324 324 327 328 329 328 329 330 330 329 326 323 322 322 322 321 318 314 313 312 312 312 312
318 311 313 314 317 328 325 325 331 335 334 333 332 333 330 336 340 339 335 331 326 327 322 319 318 318 319 320 321 321 322 323 323 322 322 321 320 319 319 318 316 314 312 311 311 311 310 310 310
313 311 313 315 324 325 321 325 334 335 332 331 331 331 328 335 335 333 328 322 317 318 319 318 317 317 319 319 319 320 320 320 320 320 319 320 319 320 318 318 315 313 312 312 311 310 310 310 310
314 313 314 314 316 324 323 320 329 336 335 335 329 331 326 324 329 324 318 316 317 318 317 318 317 316 314 317 319 320 320 320 319 319 325 326 326 324 323 323 321 319 318 317 316 318 318 316 313
313 312 314 314 322 319 318 317 317 325 327 330 328 330 326 321 325 319 317 316 317 318 324 325 324 321 314 313 315 317 318 321 327 328 328 327 326 325 325 325 324 322 322 321 321 319 319 319 319
312 313 311 313 317 317 313 317 315 318 324 325 326 327 323 324 324 325 323 319 320 321 326 328 327 325 323 317 322 326 328 327 328 329 328 328 327 326 326 326 324 322 322 322 320 319 320 320 319
313 311 312 312 314 313 312 313 314 324 330 330 328 326 324 323 323 323 323 324 325 326 328 328 326 327 326 325 324 328 328 328 328 329 329 327 328 327 326 326 323 321 321 320 319 319 319 319 319
310 310 312 312 312 311 312 313 314 322 329 331 329 326 324 321 322 323 323 325 327 329 330 328 325 327 327 327 327 327 328 329 329 328 327 328 327 327 325 324 320 319 318 318 318 318 319 317 317
311 311 312 313 312 311 311 311 314 314 322 329 328 326 324 321 322 322 323 325 329 329 329 328 325 329 327 326 327 328 328 329 330 328 327 326 328 323 322 321 319 319 319 319 318 318 317 317 317
311 312 311 312 313 311 311 312 315 314 322 328 327 326 325 324 323 324 324 326 329 329 328 327 327 329 327 325 326 327 328 329 330 327 326 323 324 323 321 321 320 320 319 319 319 318 318 317 317
311 311 311 312 314 315 314 315 315 313 322 327 327 326 325 325 325 325 324 325 328 330 330 328 325 327 325 326 325 324 327 328 326 327 324 320 322 322 320 321 319 318 319 318 318 317 316 316 317
311 312 312 313 314 315 314 316 313 312 325 328 327 326 325 325 326 325 326 325 327 330 331 331 329 331 329 327 326 324 325 325 325 325 323 320 320 319 320 318 317 317 317 316 315 314 314 314 314
316 314 315 315 314 316 314 314 314 310 319 326 327 326 325 323 323 323 324 325 326 330 333 333 333 329 327 325 326 324 324 323 321 322 321 321 321 320 319 318 316 315 312 312 312 311 311 310 310
314 314 316 317 314 316 316 316 314 310 312 314 313 316 319 321 322 323 324 328 329 333 335 335 332 329 323 326 326 322 321 320 319 319 320 319 318 316 316 315 312 311 311 310 310 309 308 307 306
317 315 317 316 316 316 313 316 314 314 312 313 318 320 320 319 318 319 321 325 328 330 333 331 331 328 327 325 321 320 319 316 317 316 315 315 314 312 311 310 310 309 309 308 307 307 306 306 305
317 316 316 316 317 317 314 315 317 314 318 320 320 320 319 319 318 317 317 317 317 319 321 317 317 316 318 316 316 315 315 314 314 313 312 311 309 308 307 305 305 305 304 305 306 306 305 305 306
319 319 319 317 317 315 315 315 315 317 318 320 320 319 319 318 317 316 316 316 316 316 316 315 314 314 315 314 314 314 314 313 311 310 309 308 307 306 305 304 303 302 302 302 303 304 305 306 306
321 320 320 319 318 316 315 317 319 317 317 318 318 318 319 318 317 316 316 316 316 316 316 315 315 315 315 314 314 314 313 313 311 309 308 307 307 306 305 303 300 299 299 302 302 303 305 305 304
323 321 320 319 317 317 316 316 317 317 317 317 317 317 318 318 316 316 316 317 317 316 316 316 315 315 314 314 314 313 312 311 310 309 308 308 307 307 305 304 300 299 301 303 304 304 304 302 300
321 319 320 320 319 320 319 316 317 318 319 318 316 316 316 315 315 315 316 317 317 316 316 315 315 315 314 313 313 312 311 310 309 307 307 306 304 302 300 298 300 301 302 303 303 301 300 299 298
319 321 322 320 320 321 323 320 317 318 319 319 317 315 315 314 314 315 317 317 317 316 316 316 315 313 313 312 312 311 310 309 308 305 303 302 300 299 299 300 300 299 299 300 300 299 299 298 297
318 321 322 324 322 323 325 326 323 320 320 320 318 315 314 312 313 314 316 317 317 316 316 315 314 312 311 310 309 308 307 306 305 303 302 300 299 299 299 299 299 299 299 299 299 298 297 297 296
320 321 319 326 323 321 320 325 321 319 319 318 317 315 314 313 312 312 313 314 314 313 314 314 311 310 309 308 307 305 304 302 302 301 300 300 299 299 298 298 298 298 298 298 297 296 296 296 295
320 319 317 320 317 316 319 320 318 318 319 319 318 319 317 314 311 310 311 312 313 313 312 311 310 309 307 305 303 302 301 301 301 301 300 300 299 297 297 298 297 296 297 296 296 296 295 294 293
317 317 321 316 321 324 319 323 324 321 320 318 317 315 314 311 310 310 311 311 311 311 309 309 308 306 304 303 302 301 301 300 301 301 301 300 296 294 295 296 295 295 294 294 293 293 293 293 292
317 319 318 317 315 319 317 316 315 319 320 317 315 314 312 311 310 308 308 308 308 308 307 307 306 305 304 303 302 301 300 300 300 300 299 299 296 295 295 295 294 291 291 291 291 291 291 291 290
317 319 317 315 318 313 312 315 315 315 314 314 314 313 310 308 307 306 307 306 306 306 305 306 305 304 303 302 301 301 300 299 299 299 299 298 296 295 295 294 291 290 290 290 289 289 289 288 287

GFSSGP_925_thetae_033.txt.gz
Theta_e
309 309 315 315 315 313 316 317 327 334 339 335 336 339 340 341 342 344 339 339 340 341 339 337 336 335 335 335 335 335 335 335 335 335 335 334 334 333 331 330 330 332 335 333 331 328 325 324 324
311 315 316 311 315 315 323 324 333 338 336 333 335 337 340 347 343 342 340 340 341 341 339 338 337 336 336 335 335 335 335 335 335 334 333 333 331 330 331 330 327 323 323 324 321 320 319 319 319
312 314 311 313 314 316 325 328 336 336 334 332 335 332 335 347 340 338 339 340 341 340 339 339 338 337 336 334 334 333 333 332 332 332 331 330 329 326 322 320 320 320 318 314 312 312 313 315 316
315 312 309 313 315 314 323 328 335 334 333 332 333 336 330 337 338 339 339 339 339 339 339 337 336 333 330 330 330 330 331 331 330 329 327 325 321 319 318 318 316 312 311 311 310 310 310 311 311
316 310 312 313 316 322 323 326 332 334 333 333 332 333 333 338 339 337 338 339 338 337 335 330 325 324 324 325 325 325 324 324 324 322 320 318 317 317 317 315 313 311 310 310 310 310 310 310 310
312 310 312 318 326 323 321 332 333 333 332 332 334 331 330 337 337 337 337 336 331 325 321 319 319 319 319 319 319 320 321 321 320 318 317 317 319 318 319 317 315 314 313 312 317 317 317 315 312
312 311 313 314 328 325 323 326 333 332 333 333 329 330 330 332 335 334 331 323 318 318 318 318 317 317 317 318 319 320 319 319 318 319 322 324 322 322 323 322 321 320 320 319 319 319 318 318 318
311 311 314 313 323 327 326 319 328 332 333 327 325 328 330 326 331 327 319 317 318 318 317 317 314 314 318 319 318 317 316 317 319 325 326 325 325 325 324 324 321 321 321 320 318 318 318 318 318
311 312 312 316 320 316 319 317 317 324 329 327 326 324 327 328 326 321 320 320 320 320 322 322 318 314 315 314 317 320 322 326 327 327 327 327 326 325 325 325 323 321 321 320 319 319 319 318 319
312 311 312 311 317 319 313 325 323 329 330 328 323 321 324 322 320 320 320 322 322 323 324 324 322 321 316 323 325 326 326 327 328 328 328 326 327 326 326 325 324 322 321 320 319 319 319 319 318
311 310 310 311 312 311 312 316 318 329 331 328 324 322 320 321 321 320 319 320 321 325 326 326 325 323 324 323 327 327 328 328 328 328 327 327 327 327 326 324 322 321 319 318 319 318 319 317 317
312 311 311 312 310 310 311 311 321 319 329 326 323 321 320 321 321 322 322 322 322 324 327 327 326 325 326 326 326 327 327 329 328 328 327 325 326 326 323 322 319 319 319 319 319 318 317 317 317
311 311 311 311 310 309 310 313 312 313 325 325 323 321 321 321 321 323 324 324 325 327 328 327 327 327 326 327 327 327 327 328 329 329 327 325 326 323 322 321 320 319 318 318 318 317 316 315 314
311 310 310 312 312 313 313 313 314 315 325 326 325 323 321 320 321 322 322 323 325 327 329 328 327 328 326 326 326 327 327 328 329 329 326 324 324 323 320 320 319 318 318 317 315 314 313 312 311
310 311 311 312 313 314 312 315 314 315 326 327 326 325 323 321 322 322 322 323 327 328 329 328 328 327 325 325 325 325 326 327 328 327 325 323 322 321 321 319 318 316 314 312 311 311 310 310 308
313 311 313 314 313 313 313 313 314 318 327 328 326 324 320 320 321 322 323 323 326 329 328 326 328 324 327 328 325 323 324 323 324 326 323 322 321 319 318 315 313 311 310 310 310 309 308 306 305
311 314 315 316 313 314 314 315 313 313 326 319 317 319 320 318 318 322 324 323 324 329 329 329 329 327 326 326 323 320 319 319 318 319 318 316 315 313 312 310 309 308 308 307 306 306 305 305 304
315 316 315 315 315 315 314 314 311 309 311 318 318 318 318 317 316 316 321 328 331 332 331 330 328 327 323 319 316 316 315 314 314 313 313 312 310 309 308 307 306 306 305 304 303 304 303 304 305
315 315 316 315 314 313 313 313 313 316 319 319 319 318 317 317 315 316 317 319 323 327 327 324 324 325 322 316 316 314 312 312 312 311 311 311 310 309 308 307 306 304 303 300 300 301 301 303 304
317 316 317 317 316 313 316 315 316 317 318 319 319 318 317 315 314 314 316 317 317 317 315 315 315 315 315 314 314 314 313 311 311 310 310 309 308 307 306 305 305 304 301 300 301 303 304 305 304
320 319 319 318 315 313 316 316 317 317 317 318 317 317 316 315 315 315 315 315 315 315 315 314 314 314 314 314 314 313 312 311 310 309 307 306 305 304 303 302 300 299 299 302 303 303 303 303 301
322 320 319 318 315 316 314 318 318 317 317 318 318 316 316 316 316 316 314 314 315 315 315 315 314 314 314 314 314 313 313 311 309 307 306 305 304 303 301 299 298 298 299 300 300 301 301 300 299
320 318 319 319 317 317 318 317 315 317 319 318 317 317 317 316 314 314 315 315 314 314 314 314 314 314 314 313 313 312 311 310 308 307 306 304 302 301 299 299 299 299 298 298 299 300 299 298 298
318 320 319 319 318 320 321 317 316 317 318 317 316 316 317 315 315 315 315 315 315 314 314 314 314 313 312 312 312 311 310 309 307 305 304 303 301 300 299 299 299 298 298 298 298 299 298 297 296
318 319 320 323 320 322 320 323 319 317 316 317 317 316 315 314 313 312 314 315 315 315 314 314 313 312 311 310 309 309 308 306 305 303 302 301 300 300 299 299 298 298 297 297 298 297 296 296 296
320 319 317 327 322 319 319 323 321 318 316 316 315 314 312 312 312 313 314 314 314 313 313 312 311 310 309 308 307 305 303 302 302 302 301 300 300 300 299 296 297 296 296 297 296 296 295 294 293
320 317 316 318 315 315 318 320 318 317 317 316 315 314 315 313 310 309 310 311 311 311 310 309 309 308 307 304 302 302 302 302 301 301 300 300 300 299 296 296 297 296 296 296 295 294 293 293 292
315 316 320 314 319 323 318 321 320 318 319 318 319 318 312 310 309 307 308 309 310 310 308 308 308 307 304 304 304 303 301 301 301 300 300 300 299 297 295 296 296 295 294 293 294 293 292 293 292
316 317 315 316 314 318 316 317 313 318 318 318 315 312 310 309 307 306 306 306 306 306 305 306 306 305 304 303 302 302 302 301 300 300 299 299 298 296 296 296 295 293 291 290 290 290 290 290 289
315 318 314 311 316 311 311 314 312 315 315 313 312 310 307 307 306 305 305 305 305 304 304 305 304 304 303 303 302 300 299 299 299 299 299 298 298 296 296 295 294 293 291 290 289 289 289 288 287

GFSSGP_925_thetae_036.txt.gz
Theta_e
309 309 311 314 314 314 315 317 326 334 338 335 338 339 342 345 345 343 340 339 340 339 337 336 336 336 335 335 334 334 334 334 334 334 333 333 332 331 329 330 331 330 330 328 321 319 318 319 320
311 312 313 312 314 315 317 318 334 337 336 336 336 338 344 348 343 341 340 340 340 338 337 336 336 335 335 335 335 335 334 334 333 333 332 330 329 329 328 323 320 322 324 323 314 313 314 316 317
312 313 309 312 313 314 320 328 337 336 333 334 333 331 338 346 340 339 340 340 340 339 337 336 335 335 335 335 334 334 333 332 332 330 329 328 325 321 318 318 319 316 313 315 312 311 310 310 310
315 309 306 311 313 314 321 334 335 334 333 332 333 336 332 336 338 338 341 340 341 340 339 338 337 335 333 332 332 330 329 329 328 326 324 321 318 318 317 315 312 311 311 310 310 310 310 310 309
315 306 309 311 315 317 317 330 333 334 333 333 333 333 336 337 338 339 341 342 339 339 339 337 334 330 328 328 328 328 327 324 323 321 319 317 317 316 315 313 312 311 311 312 314 316 315 313 312
310 306 310 319 325 323 330 331 333 332 332 332 335 332 335 337 338 339 339 339 339 338 335 331 326 324 324 324 323 322 321 321 320 318 317 317 317 318 317 316 316 317 316 318 317 317 317 317 318
311 308 311 321 326 326 329 327 333 332 333 332 330 336 337 336 336 338 339 338 335 329 324 322 321 319 320 319 319 320 320 320 318 318 321 320 321 322 321 320 320 320 319 317 317 317 317 317 317
309 310 312 315 325 328 322 327 332 332 332 326 329 339 342 333 335 337 336 330 323 320 319 317 317 317 317 318 319 319 319 319 319 323 324 323 323 323 323 321 320 321 320 319 318 318 318 317 317
309 311 311 313 323 325 324 326 317 325 328 327 325 330 332 332 333 330 325 322 321 319 317 316 316 317 317 318 318 319 318 319 324 325 325 325 325 325 324 323 322 321 321 320 319 319 319 318 317
313 312 312 314 317 325 325 325 326 329 330 325 322 324 327 329 326 321 321 322 321 320 320 318 316 315 315 316 317 320 322 326 327 326 326 326 326 325 325 325 323 321 319 319 318 318 318 318 316
311 313 310 312 317 313 317 319 323 328 331 325 326 324 322 322 319 319 319 320 320 322 322 321 318 315 317 320 323 324 325 327 327 328 327 326 326 326 325 324 323 320 319 318 318 318 317 317 316
313 310 309 310 311 313 320 315 328 322 325 324 325 323 321 320 318 317 318 319 321 324 324 324 321 320 319 324 325 326 327 327 327 327 327 325 326 326 324 322 320 319 318 318 318 318 316 315 314
310 311 310 308 308 311 310 315 324 314 325 320 322 321 320 318 318 317 317 318 321 324 326 325 324 322 322 322 325 326 327 328 328 328 327 326 324 325 322 320 320 318 318 317 316 315 313 311 311
310 309 310 310 309 309 311 311 313 317 322 320 322 321 319 320 320 321 321 320 320 323 326 327 325 325 324 325 326 325 325 327 328 329 329 326 324 322 321 320 318 316 314 312 311 310 310 309 308
309 311 310 311 312 313 311 314 314 321 323 323 321 321 319 320 320 320 321 322 324 324 326 327 327 327 326 324 324 324 325 326 327 328 327 323 322 321 319 317 315 312 310 310 310 309 307 306 305
312 310 311 312 313 311 311 311 312 323 325 324 323 322 320 320 321 322 322 321 323 325 326 327 327 326 327 326 325 321 324 322 323 324 322 320 319 317 315 313 311 309 309 308 307 306 305 304 303
311 313 314 316 312 313 314 314 308 322 323 319 318 320 319 318 317 319 323 323 321 326 327 327 327 325 326 323 321 318 318 318 317 317 316 314 313 312 312 310 308 307 306 305 304 303 301 301 301
313 314 314 315 314 312 311 313 313 312 318 319 318 317 316 315 314 316 322 324 326 328 328 328 327 325 321 319 314 314 314 314 314 314 312 312 311 310 308 308 306 306 305 305 303 301 300 302 304
314 313 315 314 313 312 316 316 316 316 317 318 316 316 316 315 314 316 322 326 327 328 329 328 327 322 315 314 313 313 313 313 312 311 310 309 308 308 307 306 305 304 302 300 300 301 302 304 303
314 314 316 315 312 314 317 316 316 317 318 317 316 315 314 314 313 315 318 319 319 319 320 320 318 315 315 314 313 313 312 311 310 309 308 307 307 306 305 304 303 299 297 296 299 301 302 302 300
318 317 318 317 315 313 315 315 317 317 318 317 316 315 314 314 315 316 315 314 313 313 314 314 314 314 314 314 314 313 312 310 309 308 307 306 305 305 304 302 299 297 297 297 297 298 300 300 299
321 318 317 316 313 317 313 317 318 317 319 319 317 315 314 314 315 314 313 313 314 314 314 314 314 314 314 314 313 312 312 311 309 308 306 305 305 303 302 299 298 298 298 297 297 297 298 299 298
319 316 317 316 315 315 316 317 316 318 321 319 317 316 314 314 313 312 313 313 313 314 314 314 314 314 313 313 313 312 312 310 308 306 306 305 303 301 300 299 299 299 298 298 298 298 299 298 297
316 319 317 317 316 319 320 316 315 318 319 318 316 316 315 314 314 313 313 314 313 313 314 313 313 313 313 312 312 311 310 309 307 306 305 303 300 299 299 299 299 298 297 297 297 298 298 297 296
317 318 319 322 319 321 318 319 317 315 316 317 316 315 314 313 313 312 313 313 313 314 313 312 312 312 311 310 310 309 308 307 306 304 303 301 300 299 299 299 299 296 296 296 297 297 296 296 295
319 317 319 326 323 320 318 323 320 316 314 315 315 314 313 313 312 313 314 314 314 312 313 312 312 310 309 308 307 306 305 304 303 302 301 300 300 299 299 299 298 296 296 295 295 295 294 294 293
319 316 314 317 314 314 317 319 318 316 316 315 314 314 313 312 311 309 310 310 310 310 309 309 310 309 308 307 305 304 302 302 301 301 300 300 299 299 299 298 296 297 296 296 296 295 293 293 292
315 314 318 313 317 320 317 319 320 319 317 316 314 313 312 309 307 306 307 308 308 307 307 307 308 307 305 303 302 302 302 301 300 300 300 299 299 298 298 296 296 296 296 294 293 293 293 291 291
316 316 314 314 312 316 314 316 313 318 317 316 314 314 309 308 305 304 305 305 305 305 305 306 306 305 304 303 302 301 300 299 299 299 299 298 298 297 297 295 295 294 294 292 291 291 289 289 289
314 316 311 308 312 310 310 312 311 312 314 314 312 310 307 305 304 303 304 304 304 304 304 305 304 304 302 301 301 300 299 298 298 296 295 294 293 293 295 295 295 295 293 292 290 289 289 288 287

GFSSGP_925_thetae_039.txt.gz
Theta_e
309 309 309 314 318 318 317 318 326 341 341 339 339 340 343 344 345 346 340 340 339 337 336 337 336 336 334 334 333 333 333 333 333 333 332 331 330 329 328 328 327 324 328 327 325 320 317 318 318
311 312 313 315 318 316 315 319 338 339 340 337 336 340 342 345 343 342 340 340 339 337 336 338 336 335 335 334 334 334 334 333 332 331 329 327 327 326 324 321 323 323 324 321 314 311 310 310 309
312 312 315 317 316 316 319 335 340 339 337 335 334 333 334 341 340 339 340 341 339 338 337 337 336 335 335 335 335 334 333 332 330 328 326 326 323 320 320 320 316 313 313 312 310 310 310 309 312
313 312 311 317 319 316 324 338 336 335 333 333 333 335 338 338 339 339 340 340 340 338 338 336 336 336 335 335 334 332 330 328 326 325 324 320 318 319 317 313 312 312 311 311 313 313 311 312 317
312 311 315 315 317 320 324 336 334 334 333 334 331 334 338 338 338 339 340 338 338 338 337 336 335 335 334 333 330 328 327 325 323 322 319 318 318 316 314 312 312 311 316 317 317 317 316 317 317
315 312 316 327 327 325 333 334 333 333 333 333 335 337 339 337 338 339 339 339 339 339 338 338 335 332 330 327 325 325 323 322 321 318 317 317 317 316 316 316 317 317 317 317 317 317 317 317 317
315 314 317 324 329 334 335 333 333 332 333 333 333 341 339 337 335 338 338 338 338 338 337 335 330 326 324 324 323 322 322 321 318 317 319 319 321 320 319 319 319 318 318 317 317 317 317 317 317
313 314 317 324 330 332 328 331 327 329 332 328 333 340 341 335 336 337 338 338 337 335 330 325 323 323 321 322 321 321 320 319 319 321 321 322 322 322 320 320 320 320 320 318 318 318 317 317 316
310 315 316 322 331 331 326 329 322 326 330 328 323 336 336 332 335 335 334 333 331 326 323 321 320 318 319 319 320 320 319 318 323 324 323 323 323 323 323 321 320 320 319 318 318 318 318 318 316
315 317 316 317 328 331 328 329 326 331 330 326 329 330 331 330 332 331 328 325 324 323 320 319 318 318 318 319 319 319 319 320 325 325 325 325 324 325 324 323 321 320 318 318 318 318 318 317 317
314 317 315 314 322 325 324 325 328 331 332 328 333 333 331 330 328 327 323 321 321 319 319 318 316 318 318 319 320 319 323 324 326 326 326 325 326 326 325 324 323 320 318 318 318 318 317 316 314
315 312 311 312 314 318 324 325 331 329 326 327 331 332 330 329 326 322 320 320 320 321 321 319 318 318 319 320 321 323 324 326 326 327 327 326 326 326 326 324 320 319 318 318 317 316 314 312 310
313 311 310 310 312 318 316 326 330 321 324 328 329 330 329 327 323 319 318 319 321 322 323 322 320 319 320 322 323 324 325 326 327 327 327 327 326 326 322 320 319 318 316 315 313 311 310 310 309
311 311 309 308 311 311 314 314 321 319 323 328 328 327 325 322 319 318 317 318 320 323 324 324 324 323 322 323 325 325 325 325 326 327 327 325 324 322 320 319 317 314 312 311 310 309 309 308 307
310 313 312 312 312 313 313 313 313 322 324 327 327 324 321 320 319 319 320 320 320 322 324 325 325 326 325 323 323 323 324 324 325 326 325 322 322 321 319 316 313 311 310 308 307 306 305 306 305
313 313 314 313 312 311 312 314 312 325 324 326 325 323 322 322 321 322 322 321 321 323 326 326 326 325 323 322 320 320 323 322 322 322 322 320 319 317 314 312 309 307 306 306 306 305 305 305 304
314 314 315 315 313 313 314 314 315 319 325 325 324 323 323 322 320 320 323 323 321 324 325 325 325 325 324 321 321 320 319 318 318 315 314 312 311 309 309 307 306 306 306 305 303 303 302 303 304
316 316 315 316 314 316 315 318 318 318 325 323 323 322 321 320 318 320 323 324 324 325 325 325 325 324 323 320 321 317 314 312 311 311 310 309 308 307 307 307 306 305 303 301 299 301 302 303 304
314 315 316 314 312 320 320 321 320 320 322 323 322 322 321 320 318 321 322 325 326 326 326 326 326 326 324 320 314 313 312 310 310 310 309 308 307 307 307 306 304 301 298 296 298 301 302 301 301
315 317 317 315 314 319 320 322 321 320 321 321 322 321 322 322 322 321 321 323 326 326 326 327 326 323 320 316 313 312 311 309 309 308 307 306 306 306 305 303 300 297 299 299 299 300 299 300 300
319 319 318 318 317 316 319 321 322 321 320 319 319 319 321 323 322 319 317 318 321 322 323 322 318 318 316 314 313 311 310 308 308 306 306 306 306 304 302 299 298 297 298 299 299 299 299 299 299
322 318 317 316 317 321 315 320 320 322 323 321 320 320 320 319 318 316 314 313 313 313 314 314 315 314 313 312 312 311 311 312 309 307 306 306 304 301 299 299 298 298 297 298 298 298 299 299 298
320 317 318 316 318 319 319 320 319 322 326 324 321 320 318 318 318 316 314 313 312 312 312 312 312 312 312 312 312 312 311 310 308 307 306 304 301 300 299 299 299 299 298 298 298 298 299 298 298
318 320 320 319 321 325 320 319 319 324 325 325 321 319 318 317 316 314 313 313 312 312 313 313 313 313 313 312 312 311 310 309 308 307 304 302 300 300 299 299 299 299 298 298 298 298 298 298 297
320 322 325 326 328 326 319 322 324 317 318 325 322 320 318 317 317 316 314 313 313 313 313 313 313 312 311 311 310 309 307 306 305 303 302 301 300 300 299 299 299 299 298 297 297 298 297 296 296
320 322 329 326 329 326 319 325 323 318 316 320 320 319 318 317 317 316 315 314 314 313 313 311 311 310 310 309 307 305 304 303 302 302 301 300 300 299 299 299 298 298 296 297 296 296 295 294 294
320 319 316 321 315 321 319 320 319 317 317 319 319 318 318 318 316 316 315 314 312 311 311 310 310 309 308 306 305 304 303 302 301 301 300 300 299 298 298 298 297 297 296 297 296 296 294 294 293
318 316 322 319 321 320 318 320 322 321 319 319 320 319 318 316 314 312 311 310 309 308 307 307 308 307 306 304 303 302 300 299 299 299 299 298 296 293 293 293 294 296 296 296 295 294 293 293 292
319 319 316 317 317 318 319 317 317 320 320 320 320 319 316 313 312 309 307 306 305 304 305 305 306 304 303 302 301 300 299 298 298 297 294 293 293 293 293 293 294 295 295 293 293 292 291 291 290
315 317 316 317 314 315 317 318 312 316 317 318 317 316 313 311 308 306 305 305 304 303 304 304 303 302 302 300 298 297 296 296 295 293 293 293 293 292 293 294 294 294 293 292 292 291 290 289 288

GFSSGP_925_thetae_042.txt.gz
Theta_e
312 312 312 318 322 322 324 325 336 344 345 341 340 342 345 346 347 350 342 341 341 342 341 339 336 333 332 331 332 333 333 333 333 333 332 332 331 329 330 330 325 328 328 326 323 315 313 311 310
313 313 315 321 321 322 324 322 335 344 342 338 338 340 341 345 343 342 342 341 341 340 340 340 337 334 334 334 334 334 334 333 333 332 331 329 328 327 322 321 319 316 321 319 312 310 309 310 312
314 314 320 321 323 325 324 333 343 341 338 337 334 334 334 338 341 341 341 342 340 340 341 340 336 335 335 335 334 334 334 333 332 330 327 326 323 320 320 317 315 317 319 318 311 310 312 316 317
314 316 318 320 322 321 327 340 342 338 336 334 333 337 337 338 338 337 341 340 341 341 341 337 336 335 335 335 334 334 333 331 328 326 324 320 319 319 315 313 314 315 316 317 315 313 317 317 317
315 318 317 318 320 322 329 338 337 336 333 331 330 333 339 339 339 338 342 340 340 340 341 339 336 335 336 337 335 333 330 328 326 323 318 319 319 315 313 312 312 317 317 317 317 317 317 317 317
317 318 317 318 323 326 335 335 334 334 330 330 331 335 341 340 340 341 341 341 340 340 340 339 337 336 336 335 332 330 328 327 324 319 318 318 316 315 315 315 317 317 317 317 317 317 317 317 317
318 317 319 323 327 332 337 334 333 332 331 334 334 337 340 340 341 340 340 339 341 341 340 339 338 336 333 330 329 328 326 324 319 318 318 319 318 318 319 318 318 317 318 318 318 317 317 316 316
319 318 323 327 330 336 335 329 329 326 331 333 334 338 343 337 337 338 339 340 340 340 337 334 333 333 332 332 326 325 323 320 319 320 321 321 320 320 320 321 320 319 319 319 318 318 318 316 315
318 318 324 332 333 334 333 330 328 328 331 332 330 337 339 338 338 339 339 339 337 335 333 331 330 330 329 329 329 324 322 320 322 323 322 324 327 326 326 321 320 320 319 318 318 318 318 317 318
319 319 321 327 332 330 326 329 328 329 331 331 333 338 338 338 338 338 337 335 330 326 326 327 327 327 327 325 327 328 325 327 328 328 328 328 329 328 327 324 321 319 318 317 318 317 318 319 319
318 319 320 319 329 327 325 329 330 329 333 332 333 340 338 338 337 336 331 324 322 323 323 324 326 327 326 326 326 325 327 328 330 330 330 330 330 330 328 328 326 324 319 321 321 321 320 319 317
318 318 316 318 327 325 329 329 331 331 328 329 332 339 338 337 335 328 323 321 322 324 324 324 325 326 326 325 326 328 328 329 330 331 331 331 330 330 330 327 324 322 322 322 320 319 317 316 314
317 316 315 323 324 323 326 329 331 328 330 332 336 337 335 332 325 321 319 320 324 325 325 325 324 325 326 327 328 329 329 330 331 331 332 331 329 328 326 324 322 321 319 318 317 316 315 314 313
317 313 315 318 323 321 326 328 330 327 330 335 337 334 328 326 321 320 320 321 325 326 327 328 327 326 327 327 327 327 326 327 329 330 327 327 325 325 324 322 319 317 316 315 315 313 313 312 312
314 313 313 315 319 320 323 325 318 325 330 333 332 330 326 323 320 319 319 320 324 327 329 329 329 327 326 325 323 322 322 323 324 325 325 323 324 323 321 319 316 314 312 312 311 311 311 310 310
315 316 317 316 320 316 319 319 319 327 329 331 330 327 326 323 321 322 322 322 322 326 329 329 327 326 325 321 320 319 320 321 321 322 322 320 317 316 314 313 311 311 310 310 309 309 308 308 307
316 316 316 316 316 319 318 318 320 328 328 330 329 328 326 326 324 325 326 326 325 327 329 328 327 326 321 318 319 319 319 318 316 314 314 311 310 309 309 310 310 310 309 308 306 305 304 303 303
318 315 316 316 317 317 318 321 320 327 328 328 329 329 327 327 326 327 328 328 327 329 330 328 328 323 322 323 321 321 317 314 312 311 310 309 309 309 310 310 309 307 305 303 303 302 302 302 303
319 319 317 318 318 320 320 322 322 328 329 329 329 329 328 327 326 328 329 329 329 328 328 328 325 324 326 323 319 315 312 312 311 311 310 309 309 309 309 307 305 303 302 303 302 301 301 301 302
318 319 321 319 318 322 324 325 323 325 329 330 329 329 329 329 330 329 330 330 330 329 329 328 328 328 325 322 318 317 315 314 312 310 309 309 308 307 305 304 303 302 302 302 302 301 301 300 300
321 322 322 321 320 322 323 325 325 324 325 326 327 328 329 331 332 331 330 331 330 330 330 328 326 323 320 318 316 315 314 312 311 310 309 308 307 305 304 303 302 302 302 301 301 301 301 300 299
322 321 321 321 322 322 322 321 326 326 325 326 327 328 330 330 327 326 323 325 326 326 324 320 319 319 318 317 315 315 315 315 314 312 310 309 305 304 303 303 303 302 302 302 301 300 300 300 299
323 320 321 321 322 323 322 322 325 326 327 325 327 329 329 327 324 320 318 318 318 318 318 318 317 316 316 316 316 316 315 314 312 310 310 307 305 304 303 302 303 302 302 301 301 301 300 299 299
322 323 324 324 324 324 322 323 319 324 325 327 327 329 327 325 321 318 317 317 317 317 317 317 316 316 315 316 315 315 314 312 310 309 307 305 304 303 302 302 302 301 301 301 300 300 299 298 297
323 323 321 323 325 323 324 324 320 322 323 326 328 328 325 322 320 319 318 317 317 317 317 317 316 316 315 315 313 312 310 308 306 305 304 303 302 302 302 302 301 300 299 299 299 298 297 297 297
323 322 321 318 322 323 323 324 326 323 322 323 326 326 324 321 320 320 319 318 317 317 317 316 316 315 313 312 310 308 306 305 304 304 304 303 303 302 302 301 300 298 298 298 298 298 297 297 296
323 323 322 326 322 326 321 323 323 322 322 322 327 326 323 321 321 321 319 318 318 318 317 316 315 313 310 309 308 307 306 305 304 304 303 303 302 300 297 297 296 296 296 297 297 297 296 296 295
323 321 323 323 323 318 317 319 318 323 323 323 326 324 322 322 321 321 319 319 317 316 314 314 312 310 307 306 305 304 303 303 302 302 302 299 297 296 295 295 295 295 295 296 296 296 295 294 294
322 323 321 321 323 318 317 316 322 321 323 323 325 324 322 322 321 320 318 316 314 312 311 310 308 307 305 304 303 303 302 301 300 298 297 296 295 295 294 294 295 295 295 295 295 295 294 293 293
320 322 321 319 318 322 323 317 317 321 323 323 323 323 322 322 320 318 315 313 311 310 309 308 306 305 304 302 302 300 299 298 297 296 296 296 295 294 294 294 294 295 295 294 294 294 293 293 291

GFSSGP_925_thetae_045.txt.gz
Theta_e
314 316 316 317 321 321 323 327 327 340 345 343 343 342 348 346 351 355 342 342 343 342 340 337 331 330 330 330 330 331 333 333 333 333 332 332 331 331 331 325 325 327 327 325 321 316 310 311 313
317 315 314 320 321 324 325 326 327 346 344 341 338 342 343 346 345 344 342 341 342 342 340 339 333 331 331 331 332 332 333 333 333 333 331 329 328 326 322 321 318 321 325 323 320 312 315 316 316
314 315 318 320 322 323 326 329 345 342 340 337 336 335 336 341 342 341 341 341 341 340 341 340 334 333 333 333 333 333 333 334 333 331 328 327 322 320 318 315 318 321 323 319 312 315 317 316 315
315 315 318 321 324 325 324 339 340 339 336 334 334 334 334 337 333 340 341 340 341 341 342 337 335 335 334 334 334 334 334 333 330 328 325 321 319 316 313 314 315 318 319 317 315 317 316 316 315
315 319 319 319 321 323 324 339 336 337 335 335 332 334 336 336 332 337 340 340 340 341 341 339 336 335 335 334 334 334 333 330 328 325 321 320 316 313 313 313 317 317 317 317 317 316 316 315 315
317 318 321 321 321 325 329 337 335 335 333 331 331 334 336 337 334 337 338 337 339 340 339 339 335 335 336 335 335 333 331 327 325 321 320 317 315 314 313 317 317 317 317 317 317 317 316 315 315
318 321 322 323 324 329 337 335 336 333 333 331 330 336 341 339 337 339 335 332 336 339 340 339 338 337 336 335 332 331 328 325 321 320 318 316 316 318 317 317 317 317 317 317 317 317 316 315 315
319 321 322 323 325 330 334 333 331 331 330 331 333 337 343 340 339 328 336 334 339 338 338 335 335 334 335 332 330 327 326 322 320 319 320 319 319 319 320 320 319 319 319 318 318 318 317 316 316
319 321 322 325 328 339 334 330 329 327 327 329 332 336 337 341 340 334 337 338 339 335 332 331 331 330 331 331 329 325 323 320 321 322 322 326 326 325 327 325 320 320 319 318 317 317 317 317 320
319 322 322 331 333 333 333 331 327 327 326 331 336 340 340 339 340 338 338 338 335 331 329 329 329 329 327 326 327 327 325 326 328 328 328 329 329 329 328 323 319 319 318 318 318 318 319 320 320
320 321 322 332 330 329 326 326 328 329 327 327 330 340 341 340 338 337 338 335 326 325 325 326 328 327 325 326 326 325 327 329 330 330 330 331 329 329 328 328 328 326 322 323 322 322 321 321 319
320 320 320 321 327 325 326 328 328 328 326 330 333 339 338 338 338 337 331 323 323 324 324 325 326 327 326 325 325 327 328 329 329 330 332 331 331 331 330 327 326 324 323 324 322 321 320 319 318
318 320 319 324 324 324 327 331 330 325 326 327 337 337 337 336 335 326 321 323 325 325 325 324 325 326 328 329 329 330 330 330 331 331 332 333 331 331 329 327 325 324 322 321 320 319 318 317 317
319 321 323 324 325 324 327 331 326 327 328 333 335 335 332 330 324 321 322 325 326 326 327 326 327 328 330 331 331 330 329 330 330 332 329 328 327 326 328 326 324 321 319 318 317 316 315 314 314
318 322 321 322 325 325 326 326 325 328 328 332 332 329 326 323 322 322 323 326 328 328 328 329 329 329 330 327 325 325 324 325 326 327 326 327 327 327 325 322 319 316 314 313 312 312 311 312 311
318 317 321 320 323 323 324 323 323 327 328 328 327 325 323 322 322 322 321 324 328 330 331 330 330 330 328 325 322 321 320 320 321 324 323 321 321 319 318 316 314 312 312 311 311 309 307 306 306
318 317 319 320 321 321 322 319 323 326 328 329 327 326 324 323 322 323 324 323 325 331 332 331 330 329 324 321 321 321 320 317 319 317 316 314 313 313 313 313 313 312 310 308 307 305 305 304 304
318 318 319 320 320 320 318 321 324 326 327 329 329 327 326 326 326 327 327 326 326 329 332 331 330 327 323 323 324 320 318 320 314 312 312 312 312 313 313 312 311 308 307 307 306 305 304 303 303
319 317 318 318 317 318 318 320 323 326 326 328 329 329 328 329 327 329 329 329 328 331 332 330 328 325 327 327 323 322 319 316 314 314 313 313 312 312 311 310 308 307 305 305 304 304 303 303 302
318 320 318 319 318 320 319 321 322 326 327 327 328 330 330 330 330 330 332 331 332 332 331 330 328 328 329 326 323 320 317 316 315 314 313 313 312 310 308 308 307 306 305 304 304 304 303 302 301
320 320 323 321 320 319 322 323 326 325 327 328 328 329 329 330 332 333 333 333 331 330 330 330 330 327 324 320 318 318 317 316 314 314 313 312 310 308 307 307 306 305 304 303 303 303 302 301 301
322 322 321 321 323 322 323 322 325 327 327 328 329 330 330 331 333 333 333 333 332 331 330 329 324 321 319 318 317 317 316 316 316 315 314 312 309 308 306 305 304 304 304 303 303 302 302 301 301
324 322 322 321 321 322 323 321 325 327 327 328 329 330 331 332 332 331 330 329 328 327 324 321 320 319 319 318 317 318 317 316 315 313 313 311 309 307 305 304 304 303 303 302 302 301 301 301 300
323 323 323 323 322 325 322 323 321 326 326 327 328 330 331 330 328 325 324 323 322 322 321 320 320 319 318 318 318 318 317 314 313 312 311 309 307 305 304 304 303 303 302 301 300 299 299 299 299
323 323 328 326 324 324 324 323 320 323 324 325 328 329 330 328 325 322 321 319 320 320 320 320 319 318 318 318 318 316 314 312 310 309 307 305 304 304 303 303 302 301 300 299 298 298 298 299 299
323 322 323 321 322 322 324 319 325 325 325 324 327 329 329 327 324 322 321 319 320 320 320 319 319 318 318 317 315 313 310 308 307 306 305 305 304 303 303 302 300 298 297 297 297 297 298 298 298
324 322 324 324 329 324 319 322 326 324 325 324 328 329 329 326 323 322 321 320 320 320 320 320 319 317 316 313 311 309 308 306 305 305 305 304 304 302 299 298 297 297 296 296 296 297 297 298 297
323 323 323 322 323 320 318 318 322 323 323 323 327 329 328 325 323 323 321 321 321 320 320 320 318 316 313 311 309 307 306 305 305 304 304 302 299 298 297 296 296 296 296 296 296 296 296 296 296
324 323 321 322 323 323 318 320 319 320 322 323 325 328 327 325 324 323 322 321 321 320 319 318 316 313 310 308 306 305 304 304 303 302 300 298 297 297 296 296 295 295 295 295 296 296 295 295 294
322 322 322 323 321 321 326 319 319 320 321 322 323 326 326 324 324 323 322 321 320 318 317 315 312 310 308 306 303 303 304 302 301 299 298 297 297 296 296 295 295 295 295 295 295 294 294 294 294

GFSSGP_925_thetae_048.txt.gz
Theta_e
315 316 318 318 318 321 321 323 325 339 339 343 343 346 349 348 352 354 343 342 340 339 333 330 338 339 338 335 331 330 333 333 333 333 333 335 334 332 326 324 324 324 323 321 317 313 314 315 315
318 319 317 316 318 320 322 335 340 347 344 340 339 340 344 351 345 343 343 343 341 339 337 332 333 335 332 331 332 333 333 333 333 332 334 333 329 324 321 318 318 318 321 318 313 314 314 314 314
312 316 316 316 318 322 323 342 338 342 340 339 338 336 339 344 339 342 342 342 341 340 338 332 331 331 332 332 333 334 333 333 331 332 330 325 322 319 316 315 315 316 318 317 316 315 314 313 312
317 316 315 316 321 321 327 334 340 340 337 335 336 337 335 336 335 341 341 342 340 341 339 333 332 332 333 333 333 333 334 331 329 327 322 320 319 315 314 314 317 318 317 317 316 315 314 314 313
316 317 316 318 320 321 323 337 337 337 336 336 334 336 332 335 337 339 339 339 340 339 336 334 334 334 334 334 333 334 331 329 326 321 320 318 313 312 313 317 316 316 316 315 315 315 315 314 314
317 317 318 322 321 321 337 338 337 336 334 332 333 330 333 333 336 337 336 338 339 330 334 335 334 335 334 334 334 332 329 326 322 319 318 314 313 313 316 316 315 315 315 315 315 315 314 314 314
316 319 320 322 323 324 337 334 335 338 333 332 332 334 337 336 333 337 335 335 334 335 336 336 336 335 335 335 332 330 326 322 318 318 316 315 316 316 316 315 316 316 316 316 316 316 316 315 316
317 319 320 321 323 337 335 332 336 332 331 329 332 337 341 338 338 335 334 333 331 335 335 337 336 335 334 332 330 327 323 318 318 317 317 318 318 318 319 318 317 317 317 317 317 317 317 316 319
318 318 321 323 335 336 332 332 331 329 330 331 331 336 337 337 336 328 329 333 334 333 336 335 335 333 328 328 327 324 319 318 319 320 321 323 325 324 326 321 317 317 316 316 317 317 317 318 320
318 320 321 329 332 331 329 332 332 328 329 328 340 341 341 338 331 334 329 333 332 332 332 332 332 330 329 329 326 321 319 324 326 322 328 330 329 328 328 321 318 320 320 319 321 322 322 321 320
318 320 322 330 328 328 329 328 331 328 329 328 341 342 341 340 336 337 335 333 333 330 330 329 329 329 328 325 328 325 328 330 330 330 330 329 329 327 328 328 327 327 323 324 323 323 322 320 319
318 321 321 330 328 329 328 330 329 328 328 328 333 340 338 338 338 336 335 328 326 327 327 328 327 327 326 326 325 326 329 330 329 330 331 330 330 329 329 328 326 325 323 322 322 321 319 319 318
320 320 321 321 328 326 326 329 328 328 326 327 333 335 337 336 338 336 325 325 325 326 326 327 327 326 325 328 327 330 330 330 329 330 328 330 330 331 325 327 326 323 321 319 318 317 316 315 314
320 321 323 324 324 324 325 324 322 326 335 336 334 333 333 335 332 324 323 325 325 325 325 326 327 328 331 329 329 329 329 328 329 330 328 328 328 327 328 326 322 319 318 317 314 312 312 311 311
322 322 322 323 325 325 329 329 327 327 332 333 331 331 332 327 322 323 325 326 326 326 326 327 328 332 330 327 326 326 324 322 322 323 326 327 327 326 323 321 318 316 314 312 311 309 308 307 306
320 321 322 321 323 325 325 332 326 327 329 330 329 328 325 322 321 323 326 328 328 328 328 329 331 329 326 324 319 318 318 318 319 322 322 323 322 318 317 316 312 312 312 310 308 306 306 305 304
320 318 319 321 321 323 324 324 324 326 327 327 326 325 322 322 322 323 325 328 330 330 331 330 331 327 325 321 320 319 319 319 319 318 318 316 316 314 313 313 312 310 309 308 306 306 305 304 304
320 318 319 320 321 321 323 321 322 325 327 327 325 323 322 322 322 322 323 325 332 333 332 331 331 328 324 321 322 322 320 319 318 315 313 312 312 314 314 313 310 308 307 306 305 305 304 304 303
320 320 320 320 320 319 319 321 320 323 326 328 327 325 325 323 326 327 326 326 329 334 333 331 329 327 323 327 325 321 319 318 315 314 314 314 314 313 311 310 309 307 306 305 305 304 304 304 302
319 321 321 318 318 318 319 319 321 322 324 328 329 328 327 327 328 329 329 329 329 334 333 330 329 327 327 328 324 323 319 316 315 315 314 314 313 311 309 308 307 306 305 304 304 303 304 303 303
320 323 324 323 320 318 320 319 322 323 323 324 327 329 329 329 330 331 331 331 334 334 331 330 329 327 329 326 323 320 318 316 315 315 314 313 311 309 308 307 306 305 304 304 304 303 303 303 302
324 324 322 323 324 320 323 325 326 323 325 325 326 328 329 330 331 332 333 333 332 331 330 330 329 329 327 320 319 318 317 316 316 315 315 313 310 309 307 306 305 304 304 303 303 303 302 302 302
324 324 324 321 321 322 323 325 326 325 325 326 329 329 329 330 331 333 333 332 331 330 329 331 330 324 320 319 318 317 318 316 316 314 314 313 311 310 307 305 305 304 303 303 302 301 300 300 300
324 324 323 323 325 327 326 326 326 325 326 327 327 329 330 331 333 331 333 332 332 332 331 324 322 320 319 319 318 318 318 316 314 313 313 311 310 307 305 305 304 303 302 302 300 299 299 299 299
321 322 328 333 334 330 321 323 323 325 326 327 328 330 331 332 331 329 330 328 327 325 322 321 321 320 319 319 319 318 317 315 312 310 309 306 305 305 304 304 303 302 300 298 298 297 298 298 299
324 323 332 331 335 330 326 323 326 325 324 326 328 329 331 330 328 326 325 323 323 323 322 321 320 319 319 319 318 316 314 312 310 307 306 306 305 305 304 303 300 298 298 297 297 297 297 297 298
324 324 324 323 332 336 320 317 326 324 324 325 327 329 330 329 326 324 322 321 321 322 322 321 320 319 319 318 315 313 310 308 306 306 305 305 304 303 300 298 297 297 297 296 296 297 297 298 297
321 321 325 323 325 324 319 320 328 323 323 323 327 329 330 329 326 323 322 321 321 321 321 321 320 318 317 315 313 310 308 306 305 305 305 304 301 299 298 297 296 296 296 296 296 296 297 296 295
324 323 320 319 326 330 331 322 320 321 322 322 324 329 330 329 326 324 322 322 321 321 321 321 320 317 315 313 310 307 305 304 305 304 302 300 298 298 297 297 296 296 296 296 296 296 296 294 293
321 322 322 335 325 327 332 326 320 321 322 322 323 327 328 328 326 324 323 322 322 322 321 321 320 315 313 309 307 304 305 304 303 302 300 298 298 297 297 296 296 296 295 295 296 295 295 293 294

GFSSGP_925_thetae_051.txt.gz
Theta_e
312 314 315 316 312 312 315 316 323 346 346 340 343 347 349 347 350 351 342 337 327 327 338 341 341 338 337 335 333 332 332 332 332 333 334 331 324 321 320 320 322 323 324 323 317 313 313 312 313
311 317 318 313 311 312 313 327 345 340 343 337 337 343 347 350 343 342 341 337 328 332 339 340 338 338 335 334 334 333 333 333 333 332 328 322 321 319 318 318 318 317 319 317 314 312 311 311 311
315 314 310 308 308 312 316 332 344 341 338 338 337 334 340 344 341 342 340 338 331 335 337 338 337 333 332 335 335 333 333 333 330 325 322 321 318 317 316 315 314 314 315 315 313 312 311 311 314
314 311 309 310 310 313 315 332 336 336 334 334 333 336 335 334 338 342 341 338 336 334 335 334 332 332 333 334 333 333 330 328 325 321 319 316 314 314 313 315 315 316 315 313 312 313 313 313 313
313 309 310 310 311 315 337 333 336 335 334 333 332 334 334 335 340 340 340 340 339 333 332 331 333 334 334 334 334 331 328 325 321 319 316 312 312 312 315 315 315 314 314 314 314 313 313 313 313
312 308 309 311 314 335 336 333 334 333 331 330 332 331 332 336 338 338 338 336 334 334 333 333 334 334 334 334 331 328 324 320 318 317 313 312 312 315 314 314 314 314 314 314 314 314 314 315 316
312 310 312 312 316 336 336 334 334 334 331 329 330 337 333 332 335 337 332 331 330 331 332 333 334 334 333 332 328 325 321 317 317 314 313 313 315 315 314 314 314 313 314 315 315 315 315 316 319
311 309 312 313 326 335 334 334 333 331 331 329 331 338 339 332 337 334 329 328 327 331 331 333 333 334 333 330 326 323 318 317 315 315 316 316 315 315 314 314 314 314 314 315 316 316 316 318 320
313 311 312 318 335 334 331 331 331 326 332 329 329 328 336 335 336 334 332 333 331 330 331 332 334 333 330 328 324 320 316 316 318 317 320 322 325 323 319 316 315 315 315 317 320 321 320 321 319
312 311 314 329 330 332 330 330 330 330 329 332 338 334 335 331 332 332 331 330 329 331 333 331 331 330 327 323 320 317 317 319 323 326 327 327 326 327 326 319 319 322 318 322 322 321 321 320 319
312 312 320 328 328 327 327 330 330 331 329 328 338 337 333 330 328 331 326 326 326 330 331 332 331 325 321 320 317 323 327 324 325 329 330 329 329 326 326 327 326 326 323 324 323 321 319 318 317
314 315 321 327 327 328 329 325 328 330 327 327 336 337 329 329 330 330 327 327 330 330 332 332 330 327 325 324 326 328 329 330 329 331 330 331 330 329 327 327 327 323 322 318 318 318 318 317 316
315 316 319 327 327 327 328 326 327 328 327 327 339 337 334 331 331 331 331 327 328 329 328 327 327 326 328 328 326 328 331 330 331 330 330 329 329 327 327 326 321 320 320 319 318 316 313 311 310
319 320 320 322 324 323 328 328 321 331 325 329 335 336 332 329 332 332 331 326 327 328 328 326 325 324 327 330 330 330 330 329 328 328 328 328 328 326 327 322 318 318 317 315 313 311 308 307 306
319 319 320 322 323 324 321 325 325 324 328 334 333 334 329 323 328 330 324 325 326 326 326 326 328 330 330 329 329 328 328 328 327 325 325 326 327 326 324 322 317 314 312 311 309 307 306 304 304
319 319 320 322 325 325 324 329 325 323 327 328 328 330 331 322 324 324 324 324 325 326 326 326 331 329 328 328 327 326 323 322 321 322 324 325 321 321 320 317 312 312 310 308 307 306 304 304 303
318 318 318 319 325 326 324 326 323 322 326 325 322 319 319 319 321 325 325 325 325 325 326 331 330 329 328 326 322 319 319 318 319 320 320 319 317 314 312 312 310 309 308 307 306 305 304 304 303
320 319 318 317 319 323 323 321 321 323 325 323 320 317 317 318 319 326 326 327 326 327 329 331 328 327 325 319 319 319 318 318 317 316 314 312 312 313 313 311 309 307 306 305 305 304 304 303 303
318 319 317 317 318 318 323 321 321 321 323 321 318 317 317 318 319 323 329 329 329 330 331 330 327 326 322 320 322 322 320 316 314 312 312 313 313 313 310 309 308 306 305 304 304 303 303 303 303
319 319 321 321 318 316 316 317 318 320 323 323 321 318 318 320 323 324 326 331 331 330 331 329 328 327 325 322 324 322 318 315 314 314 314 313 313 311 310 309 307 306 305 304 303 303 303 302 301
324 323 321 322 322 318 319 317 318 319 320 324 323 321 321 324 326 326 328 332 332 331 330 329 329 328 326 326 325 321 317 315 314 314 314 313 312 309 308 307 306 305 304 304 303 303 302 302 301
324 322 323 321 320 320 320 321 323 321 320 321 324 323 323 323 327 327 329 331 331 331 330 329 329 328 326 328 323 320 317 316 315 314 314 313 310 309 308 307 305 304 304 303 303 302 301 300 300
323 322 322 323 323 322 322 322 322 321 323 322 320 322 324 325 327 328 330 332 332 331 330 329 328 327 327 328 322 319 316 316 315 315 314 312 310 309 309 308 305 304 303 302 301 300 299 298 298
321 321 324 324 325 324 323 324 323 321 322 324 324 324 323 324 328 330 331 330 330 330 329 329 328 328 327 320 319 317 317 316 314 315 313 313 311 309 308 305 304 303 302 301 299 298 297 297 297
321 322 326 326 325 327 324 326 324 323 322 323 322 323 325 327 329 331 331 330 330 329 329 328 330 326 319 318 318 317 316 315 314 313 311 309 305 305 304 303 303 301 300 298 297 297 296 296 296
323 324 324 328 330 327 325 328 326 322 322 323 323 322 326 326 325 328 329 330 330 330 329 326 321 319 319 318 319 317 315 312 310 308 307 306 305 304 303 301 299 298 297 297 296 296 296 296 297
324 326 324 324 325 321 321 321 324 322 323 324 323 326 326 325 322 322 321 324 324 323 321 321 320 319 319 319 318 315 313 310 307 306 306 305 304 303 300 299 297 297 296 296 295 295 295 297 296
322 321 323 321 320 321 320 321 325 323 323 323 325 327 326 323 321 319 318 321 322 322 321 320 320 319 319 319 317 313 309 307 305 305 305 304 303 301 299 297 297 296 296 295 295 296 296 296 295
321 321 320 319 323 322 322 319 319 320 320 320 322 326 326 323 320 318 317 319 321 321 321 321 320 319 318 314 311 309 307 305 305 305 303 300 299 298 298 297 296 296 295 295 295 295 295 295 293
320 321 322 318 321 321 317 319 317 317 318 318 318 325 325 324 321 318 317 319 319 320 321 321 320 318 314 311 308 306 305 305 305 304 300 300 298 297 297 296 296 295 295 295 294 293 292 293 293

GFSSGP_925_thetae_054.txt.gz
Theta_e
311 311 314 315 311 309 313 314 315 324 343 338 344 347 348 346 348 346 338 336 337 343 343 340 337 335 335 332 331 332 333 333 332 329 323 318 317 314 315 318 322 325 325 321 311 310 311 313 317
311 316 317 308 308 310 310 316 343 339 340 336 337 344 347 351 343 341 337 337 341 346 342 340 337 336 334 333 336 335 336 333 330 325 319 316 315 314 315 317 320 320 316 311 310 311 313 316 318
314 316 310 309 305 308 310 328 341 339 338 336 335 335 341 343 339 342 337 335 342 343 342 339 336 336 334 334 336 336 334 330 325 321 317 314 313 313 315 315 314 312 311 312 312 312 313 316 318
313 309 306 308 309 310 316 332 339 335 333 332 333 337 334 338 340 340 336 335 340 341 340 338 336 333 334 336 335 334 329 325 321 319 315 311 312 314 316 314 313 312 312 313 313 313 313 316 318
312 305 309 307 310 319 334 333 334 334 333 333 331 333 335 339 339 340 337 336 339 340 338 336 332 334 335 334 332 328 324 320 319 316 312 311 313 314 314 313 312 312 313 313 314 314 315 314 315
310 305 307 309 315 335 334 332 334 334 332 330 331 331 332 337 336 335 337 335 335 335 333 331 332 333 333 332 329 325 321 318 317 313 311 312 314 313 313 312 313 313 314 314 314 314 319 318 316
311 308 310 312 314 328 334 333 334 333 333 331 328 335 332 335 335 334 333 331 331 331 331 331 332 331 332 329 326 322 318 317 313 311 311 314 313 312 312 312 313 313 314 315 315 315 318 320 317
308 307 311 311 328 333 334 334 331 330 329 328 329 337 332 334 332 332 333 332 330 329 328 326 325 331 331 328 323 319 316 315 312 313 314 314 312 313 313 313 313 314 315 317 317 318 321 320 319
309 309 310 311 332 332 331 329 329 327 329 328 330 333 333 335 331 329 329 329 327 326 324 324 329 330 329 326 321 317 316 314 315 315 315 316 318 315 315 315 315 315 318 320 320 321 320 319 318
309 307 310 314 330 330 329 329 330 330 328 335 335 335 334 333 331 331 331 330 330 327 327 328 330 330 329 325 319 316 316 316 317 321 324 326 324 322 319 318 318 318 319 320 320 320 319 318 318
310 310 318 327 327 326 328 329 328 329 328 333 336 334 331 331 330 329 329 330 328 327 324 329 331 330 325 321 317 317 318 321 324 326 326 327 326 326 325 323 322 322 322 323 321 318 317 316 315
313 311 319 325 325 325 326 327 328 328 326 333 334 332 329 330 328 327 326 326 328 330 330 331 330 326 322 318 318 320 320 325 328 327 327 328 326 326 327 326 325 325 321 319 317 317 315 313 311
313 314 322 325 326 325 326 325 327 325 327 331 329 331 330 328 326 325 325 325 325 329 331 330 326 322 320 320 326 327 326 327 330 330 330 329 328 327 326 324 320 319 317 317 315 313 311 310 308
317 325 326 325 325 327 327 326 322 325 326 334 333 331 329 329 327 327 326 325 328 329 331 330 327 325 324 325 326 328 329 330 331 330 329 329 328 326 325 320 318 317 315 313 312 309 307 305 303
318 317 321 322 322 322 323 324 325 324 326 334 335 331 332 328 329 328 328 326 328 327 327 328 329 326 327 326 327 330 330 329 328 328 327 327 327 325 321 317 315 313 313 311 309 307 305 303 302
316 315 318 324 324 324 319 325 322 322 330 334 335 331 333 328 327 330 330 328 327 327 326 325 326 329 328 329 330 329 328 327 326 324 325 326 325 323 321 318 314 311 309 308 307 305 303 303 302
317 318 317 323 323 324 322 323 322 321 324 331 333 329 328 330 329 329 328 326 327 327 326 328 328 329 328 328 327 326 325 322 321 323 324 322 320 318 314 311 309 308 307 306 305 304 304 303 302
319 318 318 318 324 324 325 321 319 321 325 326 330 328 321 324 325 325 323 325 325 324 326 328 329 328 327 325 323 320 318 318 319 320 318 317 314 312 311 309 308 307 306 305 304 303 302 303 302
319 319 317 317 318 323 323 321 319 321 323 319 318 325 322 323 322 323 323 324 325 325 326 329 328 327 326 322 319 318 318 318 317 316 314 312 313 313 310 308 307 306 306 304 303 303 303 302 301
322 321 319 318 317 322 319 320 320 321 324 320 319 318 318 318 319 324 324 324 325 327 327 329 329 328 324 320 319 321 321 317 315 312 312 313 313 311 309 308 307 306 305 303 303 302 302 301 301
322 322 321 320 319 315 315 318 317 319 322 321 320 317 317 319 319 324 326 326 327 328 328 328 327 327 324 320 321 322 320 315 313 313 313 313 312 310 309 309 308 306 304 303 303 302 301 300 299
322 321 321 321 317 316 317 319 321 317 321 323 321 317 316 320 321 325 327 328 328 329 328 328 327 327 325 322 323 321 316 313 313 314 313 312 312 309 308 307 306 304 304 303 302 301 300 298 298
322 321 322 321 320 320 321 319 318 319 320 320 322 319 318 322 322 326 329 329 329 329 328 328 328 328 327 324 325 322 317 314 314 314 313 313 311 309 307 306 304 304 303 302 301 299 298 297 296
320 320 322 321 322 323 323 319 319 319 320 321 320 321 320 323 323 325 330 330 329 329 329 329 329 328 327 325 328 322 316 315 315 314 313 313 310 308 307 305 304 303 302 300 299 297 296 296 296
320 319 320 321 322 323 322 322 320 321 320 319 320 321 320 322 324 327 329 330 329 329 329 329 328 328 326 326 328 322 317 316 315 314 313 312 309 307 304 303 303 301 298 297 296 296 296 296 296
323 320 320 323 325 322 322 324 323 320 320 320 319 318 323 324 327 329 328 329 328 328 329 328 328 328 328 326 323 320 317 315 314 314 313 308 304 303 301 299 300 298 296 296 296 295 295 295 296
322 323 320 322 323 320 320 319 321 321 323 323 321 322 325 325 328 328 327 327 327 328 328 328 328 329 321 318 317 315 313 311 309 306 305 304 302 299 300 300 299 297 296 296 295 295 295 296 295
319 320 323 321 319 320 317 319 324 323 324 325 323 322 325 323 323 324 325 326 327 327 327 327 327 325 318 318 317 315 311 308 306 306 305 304 303 304 303 300 297 297 296 295 295 295 295 295 295
319 319 319 318 318 320 320 318 314 321 321 323 323 324 324 322 321 321 322 324 327 327 321 320 320 319 318 317 312 308 306 305 305 305 305 303 301 301 298 298 297 296 295 295 295 295 294 293 292
321 320 320 317 317 318 315 316 315 317 318 318 319 324 324 322 319 319 320 321 320 320 320 320 319 319 318 314 307 305 305 306 306 304 301 302 300 298 297 297 296 296 295 295 294 294 293 293 293

GFSSGP_925_thetae_057.txt.gz
Theta_e
311 311 313 313 311 309 312 313 313 314 339 340 343 345 346 344 346 342 337 334 342 343 341 337 335 333 330 327 328 331 332 330 326 320 316 314 310 310 314 318 322 324 324 323 323 322 322 325 325
311 315 315 305 308 309 309 310 339 335 339 338 337 341 346 349 343 339 335 337 342 342 341 338 336 334 330 330 332 334 334 330 323 317 314 312 310 313 316 318 321 321 323 322 322 318 321 328 327
314 315 310 309 304 308 309 320 328 337 337 336 335 336 339 343 341 337 338 338 339 342 340 339 337 333 332 335 335 335 335 327 320 315 312 311 312 315 315 314 312 313 314 315 318 314 316 318 319
312 307 304 308 309 308 312 332 331 335 332 331 332 335 335 338 341 339 338 338 339 340 341 339 335 332 333 335 335 334 328 322 316 314 311 313 315 315 314 311 312 313 313 313 313 315 315 317 317
310 304 307 307 309 315 333 332 333 333 332 331 329 334 336 338 338 335 339 338 338 340 340 337 334 332 335 335 334 327 323 319 317 312 311 313 314 314 311 311 313 313 314 314 317 315 316 317 317
308 304 307 309 310 329 333 331 333 333 331 331 330 331 335 335 337 336 336 339 340 340 338 335 331 331 333 333 329 323 319 317 315 312 312 314 314 312 311 312 313 314 314 314 318 318 316 317 317
309 308 310 311 311 319 333 332 332 333 331 331 329 333 333 335 335 335 336 337 337 336 332 331 331 331 330 328 323 320 316 316 312 311 314 313 313 312 312 313 314 315 315 315 317 320 318 317 317
307 307 310 309 312 325 333 333 330 328 328 327 329 334 335 334 333 333 333 332 331 330 331 331 328 326 327 326 323 317 315 313 311 312 314 313 313 313 313 314 315 316 317 317 320 320 320 319 318
306 308 309 310 323 328 330 329 328 326 329 335 334 333 332 331 331 331 330 329 330 330 328 325 321 321 327 326 320 315 315 312 312 314 314 314 314 314 314 315 315 318 319 320 321 320 319 318 318
307 307 309 309 324 330 328 327 328 328 330 334 334 333 332 330 330 330 328 327 326 325 324 321 323 322 328 325 321 318 315 314 315 315 315 315 315 316 316 316 316 318 319 320 320 319 317 317 316
309 310 309 324 327 326 327 328 327 327 328 333 336 334 331 330 329 330 330 329 326 326 326 325 322 328 329 324 319 317 315 316 316 318 320 322 322 320 320 320 320 319 321 320 319 317 316 315 313
311 309 317 324 326 325 327 326 327 326 326 332 333 333 331 330 330 330 329 328 327 326 326 326 326 328 326 322 318 317 317 318 320 322 324 325 326 325 324 324 324 322 321 318 316 315 312 310 308
311 315 316 324 323 324 323 324 324 326 331 332 330 332 330 329 329 329 329 327 328 327 327 327 329 329 325 320 318 319 319 322 325 326 327 328 326 327 326 325 323 319 316 316 314 312 309 306 303
322 324 324 324 325 326 324 324 323 324 329 333 331 331 330 328 327 325 326 326 327 328 329 328 328 328 323 318 319 320 322 326 329 330 329 329 328 326 325 321 318 316 314 312 310 307 305 302 301
319 321 321 323 324 325 323 324 325 325 332 334 331 331 328 327 325 326 325 325 326 328 330 331 330 326 322 320 323 325 327 329 330 329 329 328 327 325 321 318 316 313 311 309 307 305 303 301 301
317 317 323 323 323 322 319 323 324 327 334 334 332 331 328 326 326 326 326 324 325 329 329 331 326 325 322 322 325 327 329 330 329 328 327 327 324 322 319 316 313 310 308 307 306 304 303 302 301
315 316 320 321 322 323 321 322 320 324 332 336 333 331 330 328 327 326 327 325 327 327 328 330 328 325 326 327 327 329 329 328 327 325 325 325 324 320 319 315 310 308 307 306 305 303 302 302 302
318 317 318 316 321 323 323 322 320 322 330 334 333 332 332 330 327 326 329 327 328 326 326 327 328 326 327 328 328 327 326 324 323 322 323 321 318 315 312 309 308 307 306 305 304 303 302 302 301
321 321 319 316 315 321 321 321 318 319 324 326 331 329 330 330 328 327 328 328 326 326 326 326 327 328 328 326 324 323 321 319 320 320 318 316 313 311 310 309 307 306 306 305 303 302 302 301 300
321 322 321 317 316 320 319 320 318 320 323 325 328 329 324 326 324 325 327 323 324 326 326 327 327 328 326 326 324 320 318 318 317 316 315 313 312 312 309 309 308 307 306 304 303 302 302 301 299
320 322 321 320 317 318 316 317 317 319 322 321 323 328 322 322 322 322 321 322 324 325 324 327 328 328 326 324 320 319 318 317 314 312 312 312 312 311 310 309 307 306 304 303 302 302 301 300 299
320 319 321 321 316 315 315 317 318 318 323 321 320 321 320 320 320 321 322 322 323 325 324 325 327 326 325 323 320 320 321 317 315 312 312 313 312 310 309 308 307 305 304 303 302 300 299 298 297
319 320 321 321 320 319 319 317 316 316 321 322 320 317 316 317 318 322 322 322 323 325 325 325 325 325 324 321 319 321 322 320 316 312 313 313 311 310 308 307 305 304 303 301 300 299 297 296 296
320 321 319 318 319 321 320 318 317 317 319 321 322 319 316 315 317 321 324 324 325 326 326 326 326 327 326 322 321 322 323 318 314 313 313 312 310 308 306 304 303 302 301 300 298 297 296 296 295
318 317 318 320 320 322 319 320 319 318 317 316 318 320 316 317 318 323 325 326 327 326 326 326 325 325 325 324 324 324 324 319 315 314 313 312 309 307 304 302 302 303 298 298 299 296 295 295 295
322 317 318 321 322 319 320 323 320 319 319 318 316 317 317 319 321 326 327 328 327 327 327 326 326 326 326 326 326 325 326 320 314 314 313 311 307 303 301 304 301 301 302 300 296 295 295 295 295
321 322 318 320 319 320 319 316 319 319 321 320 318 320 320 320 323 326 328 328 328 328 327 327 327 326 327 327 326 326 325 319 315 313 312 308 302 304 305 300 301 300 298 296 295 295 295 295 295
319 319 321 319 320 321 316 318 319 321 320 322 320 319 323 323 325 325 326 327 327 328 328 327 327 328 327 326 325 324 320 315 313 311 306 304 305 304 302 301 299 297 296 296 295 295 295 294 293
319 318 317 318 315 319 319 318 312 319 319 321 321 319 322 323 325 325 326 326 327 327 328 328 328 327 325 321 317 316 312 309 306 305 305 306 305 302 301 298 297 297 296 295 295 294 294 293 293
317 318 317 317 318 316 314 315 313 314 317 318 320 321 321 321 323 324 325 325 325 326 326 326 326 323 319 314 310 307 306 305 305 305 305 302 302 302 300 298 296 296 296 295 294 294 294 293 292

GFSSGP_925_thetae_060.txt.gz
Theta_e
311 311 313 311 311 308 311 311 312 320 326 343 342 345 343 345 344 340 336 337 340 343 340 335 331 330 329 332 334 335 333 327 322 318 315 316 313 316 321 323 324 324 325 326 328 327 322 321 322
311 315 313 304 307 309 308 308 322 335 337 335 335 339 345 349 342 336 334 342 343 343 338 335 334 331 332 334 335 331 328 320 317 314 312 316 315 319 320 321 323 323 325 326 328 327 326 325 327
314 313 309 305 303 307 307 309 324 330 335 334 336 335 338 342 338 336 336 341 342 342 339 336 335 335 335 335 335 330 323 318 314 312 314 315 314 316 318 321 323 323 323 321 319 320 322 325 322
311 306 302 306 310 308 308 316 331 332 330 330 332 335 336 337 340 338 338 340 341 341 338 337 335 331 334 334 332 327 322 316 313 313 315 317 319 315 316 318 320 321 320 316 317 317 318 318 314
308 303 306 306 308 307 328 331 331 333 331 331 329 335 337 337 337 338 337 338 340 340 338 336 332 331 335 335 332 323 320 316 313 316 321 321 315 313 314 314 315 319 317 315 317 317 317 317 317
308 302 306 308 309 311 332 330 332 332 330 330 331 333 337 336 337 338 337 337 339 340 338 335 332 333 333 331 327 322 320 314 317 317 320 317 313 313 313 314 314 316 318 317 316 317 317 316 316
309 306 309 310 311 314 329 330 331 331 330 329 329 334 336 336 335 338 338 338 338 337 336 333 331 330 330 324 324 319 315 316 313 317 317 315 313 313 314 314 315 314 317 319 318 317 317 317 316
305 306 310 309 311 316 331 332 329 327 328 326 330 334 338 334 335 335 335 336 335 333 330 331 332 329 325 325 322 321 315 312 312 315 315 313 313 314 315 315 315 316 318 320 319 318 317 317 316
304 306 309 311 313 318 330 328 327 325 331 333 333 331 332 333 333 332 331 331 331 330 330 328 324 323 323 321 323 320 315 312 314 316 314 313 314 314 316 316 317 318 320 320 319 318 318 316 315
306 305 308 308 313 327 329 326 327 328 332 334 335 333 332 331 330 330 329 327 326 324 323 322 320 319 321 324 321 317 314 313 315 315 314 314 315 315 316 317 318 319 321 320 319 318 317 316 314
306 309 308 312 323 326 328 327 326 326 328 332 335 332 332 331 330 329 327 326 324 322 320 320 320 315 323 328 323 320 315 313 316 315 315 316 316 317 317 317 318 319 320 318 317 316 315 314 312
310 308 309 321 326 325 326 324 326 326 325 331 332 332 331 330 330 329 326 325 325 323 321 319 319 324 328 326 320 318 315 316 316 316 319 320 320 319 320 320 320 321 319 317 316 314 310 309 306
310 317 321 324 323 322 322 323 324 332 331 331 331 331 330 329 329 330 327 325 326 322 324 321 324 327 328 325 320 317 316 317 318 322 324 325 325 324 324 324 321 319 316 315 312 309 306 304 302
322 321 324 322 324 325 322 323 322 329 331 333 331 331 329 329 329 328 328 326 326 326 326 323 324 328 328 323 319 318 317 319 321 323 326 327 325 326 325 322 318 315 314 311 309 306 302 301 300
319 323 321 323 325 324 322 322 323 328 332 332 331 331 329 328 326 326 326 326 327 326 327 324 327 329 328 321 318 319 321 324 327 328 328 328 327 326 323 319 316 313 311 309 306 303 302 300 300
320 315 321 321 322 320 320 321 325 329 333 333 331 330 330 327 324 324 325 326 326 326 327 328 329 330 326 322 318 320 322 326 329 329 329 328 326 323 321 318 314 311 309 307 305 303 301 300 300
313 316 319 318 322 320 321 320 324 331 332 333 331 330 328 326 325 325 324 325 327 328 328 329 330 330 325 320 321 324 326 328 328 328 327 326 324 321 319 316 312 309 308 305 304 302 301 301 301
318 317 317 317 319 322 322 320 320 329 334 333 331 330 329 326 326 326 326 324 324 327 328 329 330 326 324 321 324 325 328 328 327 325 325 325 322 318 316 314 312 308 306 305 303 301 301 301 300
319 319 319 318 317 318 316 319 318 322 331 332 331 329 329 328 327 326 326 327 324 326 327 327 329 326 325 325 326 327 327 325 324 323 323 322 320 318 316 311 308 306 306 305 303 301 301 301 300
320 321 320 318 316 316 317 317 318 320 326 330 332 330 330 330 327 326 326 328 326 327 326 327 328 328 325 326 327 327 326 323 321 321 319 318 316 312 309 308 307 306 306 304 302 302 301 300 299
319 320 319 320 317 317 317 316 318 317 321 323 328 330 328 329 328 326 325 326 327 326 326 326 326 327 326 327 327 325 321 318 317 317 317 315 312 310 309 308 307 306 305 303 302 301 301 299 298
318 318 319 320 318 317 314 315 314 315 321 323 325 328 328 324 325 324 324 323 323 324 325 325 325 325 326 326 326 323 319 316 316 317 316 313 312 311 308 307 306 305 303 303 302 301 299 297 296
318 318 319 320 319 318 318 316 314 316 321 323 322 321 326 323 321 321 322 322 322 323 324 325 325 325 325 325 324 321 318 317 318 316 313 312 311 310 307 306 305 304 303 302 300 298 297 296 296
319 320 316 316 317 320 319 317 316 316 319 321 322 318 319 320 318 318 320 321 321 322 324 324 324 325 324 324 322 320 319 319 318 314 312 312 311 309 307 305 303 302 300 301 298 297 296 295 295
317 316 317 318 319 320 318 319 319 317 316 316 319 319 317 316 314 315 318 320 321 323 324 324 324 323 324 323 322 321 320 320 318 314 312 312 310 308 306 304 302 302 304 302 299 297 295 295 294
320 317 318 319 320 318 317 322 318 318 317 317 314 314 316 313 313 316 318 321 322 323 324 324 324 324 323 323 322 321 320 322 318 315 313 312 310 307 303 302 303 304 301 299 298 297 295 294 294
320 319 315 318 317 319 317 316 313 317 320 320 317 317 315 313 315 317 320 323 324 324 324 325 324 324 324 325 323 323 323 322 321 315 313 312 310 304 302 304 303 304 299 299 298 295 295 294 294
318 317 319 316 322 321 315 315 316 315 317 319 319 318 320 317 318 319 322 325 325 325 326 326 325 325 325 324 325 324 325 324 322 315 313 311 305 303 304 305 303 300 300 298 296 295 294 294 294
318 319 316 316 314 318 318 317 312 313 316 319 318 317 316 320 320 321 323 325 326 327 327 326 325 325 326 326 325 325 324 321 316 313 310 305 303 304 306 303 302 299 297 297 295 295 294 294 293
315 318 316 317 317 315 313 315 311 310 312 317 316 318 317 320 320 321 322 324 325 326 326 326 325 326 327 326 324 322 319 315 311 308 305 305 305 306 304 303 299 297 297 295 295 294 294 293 293

GFSSGP_925_thetae_063.txt.gz
Theta_e
313 311 311 312 316 315 315 315 314 321 331 340 343 343 343 343 343 345 336 336 342 340 338 336 329 328 329 329 329 330 330 327 323 317 313 315 322 323 322 317 319 323 321 320 320 319 323 328 324
311 314 313 311 315 314 313 312 314 331 334 337 337 341 344 349 340 337 335 337 341 340 338 338 335 334 334 333 332 329 326 322 317 314 314 321 324 323 321 320 324 330 332 331 326 324 326 327 317
313 313 316 313 311 313 312 311 321 329 336 337 339 336 340 342 337 335 335 339 341 340 338 338 335 336 337 336 335 334 330 324 318 317 318 323 322 321 321 322 324 327 328 328 325 325 326 320 314
311 309 308 314 314 312 311 313 332 333 332 333 335 339 338 338 340 337 334 340 340 339 337 335 334 335 335 335 331 325 321 318 319 316 317 321 320 322 323 322 321 321 320 320 323 323 319 314 315
308 309 313 312 312 310 314 329 333 335 333 333 331 338 339 337 338 337 337 339 339 339 336 334 333 334 335 334 326 321 316 318 320 318 321 318 321 323 324 321 318 318 318 317 318 317 314 315 316
313 309 313 313 312 312 321 331 333 333 332 332 336 336 337 336 338 338 339 339 337 339 335 334 331 333 335 329 322 317 316 312 317 317 319 317 320 321 320 318 315 316 317 317 317 317 317 317 317
314 313 314 313 314 314 324 331 332 332 331 331 331 337 337 337 337 337 338 339 338 337 335 334 334 334 329 321 322 316 313 311 313 316 314 316 317 316 316 318 317 316 316 316 316 316 316 316 316
311 312 312 312 314 315 328 332 330 328 330 330 331 337 340 335 335 336 336 336 336 335 334 333 332 325 323 324 320 321 317 313 316 316 314 315 314 315 315 316 318 319 317 317 317 317 316 316 316
307 314 314 314 313 316 330 330 328 327 334 334 333 332 334 333 334 333 332 331 331 331 331 330 325 322 322 321 321 319 318 315 314 314 313 314 315 315 317 317 318 318 319 318 317 317 316 315 315
312 314 314 312 312 324 330 327 327 329 335 334 334 333 333 332 332 331 330 327 326 327 327 325 325 321 319 318 317 322 317 315 313 313 313 314 315 316 317 318 319 319 317 316 316 314 312 312 310
309 315 313 312 312 326 329 328 326 328 331 333 335 334 333 331 332 330 327 327 325 322 323 322 321 322 321 320 322 317 315 316 314 314 314 315 316 317 317 318 319 318 318 316 314 313 312 310 308
313 311 311 314 325 327 328 326 327 327 326 330 332 332 330 329 330 329 326 323 322 322 321 319 317 316 317 321 320 318 314 315 315 315 315 315 316 318 317 318 318 318 317 315 315 312 309 307 305
311 316 323 322 325 324 324 323 325 333 333 332 332 332 331 330 329 328 325 323 322 322 321 318 317 316 323 326 320 317 314 315 315 315 316 318 318 318 319 319 319 317 315 315 312 310 307 302 301
322 323 324 324 325 325 323 324 323 331 333 332 332 331 329 329 329 327 325 325 323 322 322 321 324 325 328 327 321 317 315 316 316 318 321 323 322 322 322 320 319 315 314 311 309 306 303 300 300
320 325 322 324 326 324 322 324 325 329 332 331 332 332 331 330 329 326 325 325 323 323 322 323 326 327 328 326 320 317 316 317 319 322 324 326 325 325 323 320 315 313 311 309 307 304 301 300 300
322 317 321 322 324 322 323 326 326 333 333 333 331 332 331 329 328 327 326 326 324 324 325 325 325 328 328 326 320 318 317 319 322 324 325 326 326 325 322 317 315 311 308 307 304 302 300 300 302
316 320 320 319 323 322 323 323 329 333 334 333 332 331 331 329 326 326 326 327 326 326 326 326 326 327 329 326 320 319 319 323 327 328 328 327 325 324 320 316 312 309 308 306 304 301 300 303 302
320 318 318 320 320 324 324 323 331 332 333 333 332 332 331 330 327 325 325 325 326 326 326 327 328 329 329 325 320 320 322 325 328 328 327 326 324 320 317 313 312 309 306 305 303 301 300 302 301
317 319 320 319 319 319 320 320 321 334 334 334 333 332 332 330 327 326 325 325 325 326 327 328 329 329 329 324 322 323 326 327 328 326 326 324 320 317 316 313 311 307 306 305 302 301 302 302 300
320 321 321 320 318 319 320 320 319 330 334 334 334 333 332 331 329 326 326 326 325 325 326 327 328 329 326 323 320 323 324 326 326 324 323 319 319 318 315 314 309 306 305 304 302 302 302 302 299
321 321 320 320 319 317 317 318 320 319 327 330 333 332 331 331 331 329 326 327 326 325 325 326 327 329 327 324 323 325 325 324 321 319 319 319 319 316 313 309 307 306 305 304 303 302 302 302 299
322 318 319 320 321 322 315 319 317 318 321 326 329 332 332 331 330 330 328 327 327 325 325 325 326 327 327 324 323 324 323 321 318 318 318 317 314 310 309 308 306 306 305 303 302 301 300 298 299
321 318 320 321 322 320 319 320 321 317 319 321 324 328 331 331 330 331 329 328 327 325 325 325 326 325 325 325 324 324 322 320 319 317 317 314 312 310 308 307 306 305 304 303 302 300 298 297 296
318 321 317 318 320 325 321 321 322 320 320 320 321 323 326 330 329 329 328 327 325 324 325 325 325 324 323 324 324 324 321 319 317 316 314 312 312 311 309 307 306 304 303 301 300 301 298 295 295
318 319 322 324 325 325 319 320 322 319 318 318 320 322 323 326 328 326 325 324 323 323 324 325 324 324 323 323 324 323 322 320 319 317 314 312 310 309 308 306 304 303 302 302 302 298 296 299 295
320 320 326 321 322 322 318 324 322 318 318 319 319 317 319 320 323 324 323 323 323 323 324 324 324 324 323 324 324 324 323 320 319 319 316 312 311 310 308 305 304 301 303 302 302 299 300 296 295
321 322 318 321 319 324 320 319 316 317 317 320 321 319 319 318 318 320 320 321 322 323 324 323 324 324 323 322 322 322 322 320 321 319 316 312 310 309 306 303 301 302 304 303 301 299 296 295 294
320 318 324 321 324 323 319 317 318 319 318 319 319 321 320 320 316 316 318 320 322 323 324 324 324 324 324 323 322 322 320 321 322 320 317 311 309 307 303 301 303 304 303 302 298 297 295 294 294
321 322 318 319 319 323 323 320 318 319 317 320 320 320 321 321 321 320 320 322 323 324 324 325 325 325 324 324 323 322 320 321 321 318 312 309 307 306 303 304 304 303 301 298 297 295 295 294 295
318 321 320 326 322 319 320 321 316 316 314 314 319 318 321 321 323 323 323 325 325 325 326 326 325 325 325 323 322 321 319 318 315 311 308 306 305 303 305 305 303 300 297 297 297 295 294 294 294

GFSSGP_925_thetae_066.txt.gz
Theta_e
318 314 314 317 317 316 317 318 317 318 332 330 329 332 339 345 345 346 340 339 342 342 337 337 339 342 341 339 338 335 335 334 331 326 319 315 309 311 316 322 324 327 331 331 334 334 331 316 314
315 315 317 318 317 317 318 317 319 325 329 338 339 338 334 340 340 340 339 339 342 341 336 336 337 339 339 337 334 333 332 329 323 317 314 311 312 315 321 324 327 330 333 331 333 333 320 314 315
314 315 319 318 317 317 317 318 321 329 335 338 339 339 337 342 339 338 339 341 342 340 336 336 332 333 334 334 332 331 328 321 317 314 313 317 316 319 322 326 331 333 331 332 334 326 315 315 316
315 315 316 316 317 316 317 319 325 334 336 336 338 339 339 339 341 339 339 342 342 341 337 336 331 331 332 332 332 326 319 317 319 320 319 319 319 321 324 328 330 332 332 333 329 320 314 316 317
314 316 316 316 316 316 318 327 332 336 335 336 335 340 341 338 341 340 339 339 340 340 338 336 332 333 334 333 328 320 318 319 320 321 323 322 324 323 323 325 325 328 329 327 323 314 316 317 316
317 316 317 317 316 318 318 330 333 335 335 335 338 339 340 338 340 341 339 338 338 336 337 337 333 334 335 333 328 323 321 319 321 324 325 323 322 321 320 320 320 320 322 320 315 315 316 316 316
317 317 317 316 318 320 323 333 334 334 334 334 335 338 339 338 337 339 339 339 336 334 335 334 334 335 334 331 328 324 322 319 325 323 320 321 320 318 317 318 318 318 317 316 316 317 317 316 315
315 316 316 316 318 319 327 332 331 332 332 333 333 337 340 337 336 336 337 337 337 335 334 334 334 330 325 321 322 323 318 324 323 318 318 318 317 317 316 316 316 316 317 317 316 316 316 316 315
316 318 317 317 318 319 328 331 331 329 334 334 335 335 336 336 335 334 333 333 333 332 333 333 325 321 318 315 315 323 323 323 321 317 317 317 320 319 320 321 317 317 317 317 317 316 316 316 315
317 318 317 317 317 317 324 328 330 333 334 335 336 335 336 335 334 331 331 329 330 327 325 324 322 319 318 320 321 322 324 324 321 320 321 321 321 321 322 320 319 318 317 317 316 315 315 313 313
318 318 318 318 317 317 323 329 330 330 330 331 335 336 336 335 335 332 328 327 326 327 325 324 322 320 317 315 313 317 320 323 322 322 320 322 324 322 323 321 319 317 316 313 312 314 314 313 312
319 319 318 318 322 323 324 328 328 329 331 332 334 335 334 332 332 331 330 325 323 323 323 322 320 319 317 316 315 314 324 323 322 321 322 323 323 324 324 323 321 318 316 315 315 313 312 310 308
319 322 324 322 325 327 327 327 327 332 335 334 335 334 332 331 330 328 325 323 322 322 321 321 320 318 316 314 314 319 322 322 321 321 321 321 323 323 323 322 320 318 316 315 313 312 309 308 307
325 325 325 325 327 327 327 326 327 334 335 335 334 334 332 331 329 326 324 323 323 321 320 319 317 316 316 323 324 321 320 322 321 321 322 323 323 324 323 321 318 315 315 314 312 310 309 307 306
325 327 328 328 328 326 327 327 327 329 335 335 334 333 332 331 328 325 324 324 323 322 321 317 320 322 324 327 324 321 320 320 319 320 324 326 326 324 322 319 316 315 314 312 309 309 308 306 305
323 323 322 325 327 326 327 325 325 332 335 335 334 333 332 330 329 327 326 325 325 320 319 320 324 327 328 328 324 321 321 321 322 325 327 328 327 324 322 319 317 314 312 310 309 309 307 306 305
321 321 321 321 324 324 325 324 327 333 334 335 334 333 332 330 328 328 328 325 324 322 321 323 327 329 330 329 325 323 323 323 325 328 328 328 327 323 321 318 316 313 312 311 309 308 307 306 306
320 320 320 321 323 324 324 324 323 331 334 334 335 332 332 330 329 328 328 326 324 324 325 326 328 329 329 330 326 323 323 324 328 329 328 325 324 322 321 317 314 313 312 311 309 308 307 307 307
320 320 321 321 322 322 323 323 322 328 333 333 335 333 332 331 328 328 327 329 325 325 326 327 328 329 330 330 326 323 324 326 328 329 329 326 324 322 319 317 314 313 312 310 309 308 307 307 306
321 321 322 322 321 322 323 322 322 325 332 332 332 334 333 332 331 327 327 327 328 328 328 328 329 331 331 328 325 323 323 325 327 327 326 324 322 320 318 316 314 313 311 310 308 308 308 308 305
322 322 322 322 322 323 322 323 322 323 329 332 332 331 332 333 332 331 328 327 327 327 328 329 330 330 330 328 325 324 326 327 327 326 325 323 320 319 315 314 314 312 310 309 309 309 308 308 305
322 322 321 322 323 323 321 321 320 322 324 328 332 334 333 333 332 331 330 328 328 327 327 329 330 330 330 328 326 324 325 326 326 326 325 320 318 316 313 313 313 311 310 310 309 308 307 305 304
322 322 322 323 325 324 324 322 322 322 322 323 326 330 333 332 333 331 330 329 329 328 328 327 328 330 330 330 328 327 326 327 327 325 323 319 316 313 313 312 311 310 310 309 308 307 305 301 303
322 323 323 324 325 325 323 323 321 321 322 322 323 324 328 332 333 332 330 329 329 330 330 329 328 328 329 330 329 329 328 329 326 324 321 316 315 312 311 311 310 310 309 309 307 305 302 302 300
323 325 326 328 326 324 323 322 321 321 322 323 324 325 325 327 332 333 332 332 329 330 331 330 330 328 329 329 329 329 329 328 325 323 320 318 315 313 312 311 310 310 309 307 304 303 303 300 299
324 324 325 323 323 322 321 321 320 321 321 322 324 325 323 325 327 331 333 331 331 329 330 330 330 329 329 328 328 328 326 325 324 322 320 317 314 314 314 311 310 309 306 304 302 303 302 298 298
324 324 323 326 326 326 322 321 320 320 321 323 321 323 325 323 325 327 330 330 330 330 329 330 329 329 329 328 328 326 325 322 322 322 318 316 315 314 312 310 308 306 304 302 303 302 298 298 298
323 322 324 325 325 323 322 321 319 319 319 320 320 321 325 326 324 323 325 327 328 329 329 329 329 328 328 328 327 325 325 324 323 321 317 317 316 314 310 309 306 304 302 303 303 299 298 296 298
324 324 323 323 324 324 323 321 320 319 319 321 321 322 323 325 327 325 323 322 324 326 327 328 328 327 327 327 327 326 325 324 323 320 317 316 314 311 308 306 302 302 303 302 299 297 297 297 298
322 323 324 324 323 324 326 323 320 320 321 320 321 323 323 325 326 327 326 325 325 325 326 326 327 327 327 327 327 324 322 323 321 318 315 313 309 306 303 302 303 302 300 298 298 297 297 298 297

GFSSGP_925_thetae_069.txt.gz
Theta_e
316 318 316 317 319 319 318 319 320 319 320 333 326 325 324 328 343 340 343 344 344 340 339 343 343 342 341 337 337 339 339 336 333 329 324 318 318 318 322 328 334 335 336 336 334 329 326 315 315
320 316 317 320 319 319 319 320 319 321 325 333 335 333 327 328 339 337 342 342 344 340 339 343 342 342 341 339 340 339 338 334 330 324 317 316 318 321 323 328 330 332 335 336 333 328 319 316 316
317 316 320 321 320 320 319 320 320 321 330 332 335 335 330 331 338 338 340 341 344 340 338 341 342 341 340 340 339 338 336 330 324 318 316 317 321 322 324 326 329 331 334 335 330 322 316 317 316
317 318 318 318 318 319 319 321 326 328 333 334 335 338 341 339 340 339 341 342 343 338 338 338 341 341 340 339 338 336 331 325 320 319 318 322 323 327 332 334 333 333 334 334 326 316 317 317 316
316 319 318 319 318 318 321 324 330 332 332 334 334 337 341 333 339 341 340 342 342 337 339 337 340 340 339 337 336 331 326 321 320 321 321 323 326 330 332 334 333 333 333 326 315 317 317 316 316
319 319 319 318 318 320 322 326 329 331 332 335 335 337 341 340 341 341 341 343 339 337 338 336 336 337 336 336 332 328 324 322 322 322 321 323 325 327 328 330 330 330 326 317 315 317 317 316 316
318 320 319 318 318 320 323 329 329 330 331 334 334 335 339 340 340 342 341 341 338 335 333 331 331 335 335 332 329 328 327 327 327 326 322 322 323 323 322 322 324 323 319 315 316 317 316 316 316
317 318 318 318 318 320 324 324 331 331 333 332 334 335 338 342 339 339 340 339 335 332 335 331 332 333 330 326 324 326 328 327 326 321 321 321 320 320 319 318 319 318 315 316 317 316 316 316 315
318 318 319 319 318 320 322 324 330 331 331 333 335 336 340 338 335 336 336 335 329 331 331 332 329 325 323 317 320 327 328 326 323 321 321 320 321 320 321 320 317 316 317 317 316 317 317 315 315
318 320 319 319 319 319 319 323 328 330 330 330 335 336 337 337 335 334 333 332 327 326 325 325 323 319 318 315 314 320 328 324 323 322 320 321 321 323 323 318 316 316 316 316 317 317 315 316 315
320 319 319 319 319 320 319 323 329 328 328 332 333 338 337 336 334 331 330 329 326 326 323 321 318 318 316 322 323 324 325 323 321 321 322 321 324 323 324 320 318 317 317 316 315 315 317 318 316
319 320 320 320 320 324 323 328 328 328 332 332 335 335 336 335 333 331 326 325 327 325 322 322 320 319 318 319 318 317 314 318 321 321 323 325 324 324 323 322 321 319 318 317 318 318 317 314 312
320 323 323 323 324 324 325 327 327 328 332 334 334 334 335 333 332 329 327 324 324 324 322 319 318 318 316 317 314 316 320 322 323 322 323 324 324 325 324 323 322 320 320 319 319 316 314 312 311
325 325 325 325 324 325 326 326 327 333 332 334 333 334 333 332 329 326 325 323 322 321 320 318 316 315 313 313 315 315 316 315 315 322 323 323 324 325 325 324 323 321 320 319 318 316 314 312 310
323 324 326 327 325 324 324 326 326 332 332 335 333 333 332 331 327 325 324 323 322 320 320 318 318 316 316 316 317 319 321 320 321 321 323 324 324 325 325 324 322 320 320 318 317 315 313 312 308
321 323 322 326 326 325 324 330 327 332 334 334 334 332 331 326 327 325 324 323 322 319 319 318 316 315 315 319 322 323 321 323 321 321 324 325 327 328 326 323 320 319 319 317 316 315 313 310 309
321 321 324 324 324 323 324 326 325 330 333 333 333 332 330 329 327 327 326 325 324 322 320 318 318 321 324 325 324 321 321 321 321 323 327 329 329 328 326 323 322 319 318 316 315 314 312 310 309
321 322 321 321 324 324 324 325 324 328 331 333 332 331 330 329 328 327 326 324 321 322 321 322 325 327 328 327 326 323 323 322 323 325 327 329 329 328 326 324 322 319 317 317 315 314 311 311 311
321 321 322 323 323 322 323 325 323 328 331 331 333 331 331 329 328 327 326 325 322 321 321 324 327 328 328 328 326 323 322 322 323 327 329 329 329 327 326 323 321 319 318 318 314 312 311 311 310
320 321 323 323 322 322 323 322 321 327 331 331 332 333 330 330 329 328 328 325 325 325 326 326 326 328 328 327 325 322 321 322 324 329 329 328 328 326 325 323 320 319 318 316 314 312 311 312 311
323 324 324 323 323 322 322 322 322 324 329 329 329 330 330 330 330 329 328 329 326 326 327 327 327 327 328 327 325 323 323 323 325 328 328 328 327 326 325 323 320 319 318 316 314 312 312 312 310
324 323 322 323 324 326 324 324 324 323 325 330 329 330 331 331 330 330 328 328 329 329 329 329 328 328 329 328 327 324 323 324 325 327 327 326 326 325 322 321 320 319 317 315 313 312 312 312 312
322 323 323 324 325 325 323 321 323 321 321 324 328 330 330 330 331 330 330 327 327 328 328 329 329 330 329 330 328 326 325 325 326 327 327 327 324 322 321 319 319 318 316 313 313 312 312 310 308
322 323 324 325 326 328 325 323 324 323 321 322 324 327 329 330 330 329 328 329 328 329 329 329 329 330 330 330 330 329 328 327 326 329 328 326 324 321 318 317 317 316 314 313 313 312 310 306 306
323 325 329 329 328 328 324 323 322 322 322 322 323 325 325 328 331 331 329 328 328 329 330 330 329 329 330 331 331 331 330 330 329 329 327 326 322 319 317 316 315 314 313 313 312 310 307 305 304
324 325 329 329 329 327 322 320 322 321 320 321 322 324 326 327 327 331 331 330 328 328 330 331 330 330 329 330 332 332 332 331 330 330 327 325 322 320 317 314 313 313 313 312 310 306 304 303 302
324 325 324 327 326 327 324 323 322 320 320 321 320 321 324 326 327 328 331 331 331 330 330 332 332 331 330 330 332 332 332 331 330 329 327 324 322 320 317 313 313 312 312 309 305 303 304 303 301
324 325 325 325 326 328 324 323 322 321 321 320 320 321 323 327 326 327 328 329 331 331 332 332 332 330 330 331 332 331 331 330 328 325 324 322 320 316 315 315 313 311 309 305 302 303 303 300 297
323 325 324 324 325 328 326 323 322 321 320 320 321 320 321 323 327 326 326 327 329 331 332 333 332 332 330 330 331 331 330 328 326 325 323 321 318 315 314 312 309 307 305 302 303 301 298 298 298
323 323 324 326 325 325 326 325 322 321 321 321 321 321 321 322 324 327 327 325 326 328 330 331 332 332 331 329 330 330 328 326 325 323 320 318 316 314 311 308 305 305 303 302 300 300 301 300 299

GFSSGP_925_thetae_072.txt.gz
Theta_e
315 315 320 320 319 319 320 319 320 320 322 329 326 329 331 328 335 341 328 327 328 331 344 344 344 341 337 335 333 334 334 332 327 327 326 323 322 324 329 332 333 335 334 332 330 328 318 316 318
320 323 320 318 320 321 319 321 321 320 329 328 326 323 325 332 329 329 333 326 328 340 343 344 344 342 340 339 338 339 336 331 328 327 323 320 323 329 333 334 334 333 333 329 329 326 316 316 316
317 320 319 321 322 321 320 320 322 323 329 329 329 327 331 338 330 331 327 327 338 340 343 343 343 342 340 339 338 338 335 330 327 322 319 320 326 331 333 333 334 333 332 329 327 317 316 316 318
318 319 318 318 317 318 320 322 326 326 329 325 327 335 336 339 337 340 341 342 341 339 342 341 342 341 339 338 338 337 333 328 322 320 321 323 326 329 330 331 333 333 330 328 320 317 316 316 317
319 318 319 319 319 320 320 323 328 329 328 329 328 336 333 325 336 341 341 342 340 339 340 339 340 341 339 339 337 335 330 324 322 321 322 325 329 329 330 331 334 333 322 317 317 316 316 316 316
319 319 319 319 320 320 322 323 326 326 330 330 332 332 325 324 340 342 341 342 339 337 338 337 339 339 338 339 336 331 326 323 323 323 325 328 332 333 332 331 332 329 316 316 317 316 316 316 317
318 319 319 319 318 321 325 325 327 327 328 333 330 331 334 335 341 342 341 339 337 335 331 332 327 337 337 336 332 329 324 324 324 325 325 328 331 333 331 331 331 321 315 317 317 316 316 317 317
318 317 317 319 321 319 324 324 326 328 328 325 331 338 334 327 340 340 339 335 334 332 333 329 329 332 332 331 330 330 329 328 326 324 326 327 329 329 330 328 323 316 316 317 317 316 317 317 316
317 317 318 321 321 320 321 321 325 322 322 329 333 341 338 335 336 336 333 331 333 333 331 330 331 329 328 325 326 328 328 328 326 325 324 324 322 323 325 323 318 315 317 317 316 317 318 317 313
318 318 320 321 319 319 319 319 328 327 328 327 326 338 337 336 335 333 331 329 326 325 328 330 328 324 322 321 321 325 328 326 325 322 321 320 323 323 319 318 316 316 317 317 317 318 316 315 315
320 319 319 319 320 320 320 321 326 328 331 325 327 337 337 335 332 329 329 327 325 322 323 326 324 321 320 319 319 315 313 321 322 321 322 320 324 320 317 317 317 316 316 317 317 316 317 316 315
320 319 320 321 321 321 320 322 326 325 332 332 334 336 336 334 332 330 328 327 323 322 319 319 319 318 316 313 314 316 321 323 320 323 321 325 324 321 317 318 316 317 317 317 318 318 317 316 313
320 320 322 321 321 321 321 322 323 325 332 333 333 333 333 333 331 329 326 326 323 322 319 318 319 321 322 322 323 322 322 321 322 323 324 324 323 323 323 322 319 319 318 317 319 318 315 313 310
321 324 323 324 325 325 323 322 327 328 329 333 333 333 333 331 327 326 324 323 323 320 320 319 318 320 320 321 318 315 313 314 315 317 322 324 324 324 323 322 322 320 320 320 319 316 315 313 310
321 321 323 326 324 322 325 323 328 325 331 333 333 333 332 329 327 325 323 322 320 319 318 318 317 317 316 313 313 313 313 315 316 318 323 323 324 325 326 324 323 322 321 320 319 316 315 313 310
322 320 322 325 325 324 326 326 328 325 325 331 332 330 328 327 326 324 322 322 320 318 318 317 316 313 313 313 314 315 319 318 319 321 318 323 324 324 326 324 323 321 321 319 318 316 314 312 309
320 321 322 325 325 326 324 324 328 325 325 330 332 329 326 328 326 325 323 320 320 319 318 317 315 313 314 315 316 318 318 317 323 322 323 323 324 325 326 324 322 320 320 318 317 316 314 311 310
323 323 324 322 324 325 324 324 326 329 331 330 332 331 328 328 328 327 324 322 320 319 319 318 317 317 317 317 318 321 321 323 323 322 325 324 326 328 326 324 322 321 320 318 316 316 314 311 311
322 321 321 323 324 324 322 324 325 326 327 330 331 330 329 328 328 326 325 325 322 321 320 318 319 318 320 322 323 324 324 322 323 324 325 326 326 327 327 325 325 321 319 317 316 316 312 311 311
320 321 321 323 324 322 322 324 323 325 328 329 331 330 330 328 328 327 324 324 323 321 320 319 321 326 327 326 326 324 323 323 323 324 327 327 328 328 327 326 324 322 320 318 317 314 312 312 311
322 322 323 325 324 324 324 324 322 324 327 328 331 331 331 330 329 328 326 323 323 323 323 324 326 328 328 327 327 324 322 322 322 327 328 327 328 327 327 325 323 321 320 319 316 314 313 313 312
324 323 324 323 323 325 325 328 324 323 325 327 330 332 327 328 329 329 328 327 324 323 323 325 327 329 328 328 326 324 323 323 324 327 329 327 327 327 326 325 324 321 320 320 316 314 312 313 312
323 323 324 324 324 325 326 328 324 323 324 327 328 331 330 330 328 329 329 328 327 327 328 328 327 327 327 327 328 325 324 323 323 324 329 327 326 326 325 325 323 321 320 319 316 314 312 314 312
322 323 324 324 325 329 326 325 326 325 323 324 327 329 330 332 330 329 328 328 330 328 329 330 330 329 328 329 326 328 325 326 326 328 328 327 326 325 324 323 321 320 320 318 316 314 313 312 308
322 324 328 332 331 332 327 326 324 326 324 322 323 327 329 330 331 330 330 328 328 329 330 331 331 330 330 331 328 327 330 326 327 328 328 328 326 324 322 322 320 319 319 317 314 314 312 309 307
323 324 332 337 336 331 326 324 319 322 322 321 322 323 327 328 330 330 328 330 329 329 331 331 331 331 330 331 332 331 328 331 327 328 328 328 326 324 322 320 319 318 317 315 313 313 311 307 305
324 325 325 330 331 334 327 325 322 321 320 320 321 322 325 327 328 330 330 329 330 330 331 332 331 330 330 331 331 332 333 332 332 331 330 328 327 324 323 321 318 315 314 313 312 310 307 305 304
322 324 327 327 331 331 324 323 327 322 321 321 320 322 324 326 327 328 328 331 329 330 331 332 332 332 331 331 332 333 333 333 332 331 330 328 325 323 321 319 315 313 313 312 311 306 303 303 304
322 323 327 325 326 330 332 327 325 322 320 321 321 322 322 325 327 327 328 328 332 331 330 333 334 333 332 332 332 333 334 332 332 330 327 325 323 321 317 316 314 313 311 308 304 304 304 304 301
322 323 325 329 327 330 333 330 324 324 323 322 322 322 323 323 325 327 327 326 327 331 333 333 334 334 333 332 333 333 332 331 329 327 325 323 321 319 316 314 314 311 309 307 307 305 303 301 301

GFSSGP_925_thetae_075.txt.gz
Theta_e
315 315 315 318 315 311 313 315 315 317 327 326 324 323 327 329 334 333 327 326 332 333 331 339 340 339 336 331 331 330 329 327 327 326 325 323 326 331 333 333 334 331 330 328 325 318 319 322 323
315 320 320 316 313 314 316 316 317 329 328 327 328 331 332 332 329 329 329 328 328 331 327 334 339 339 338 334 333 332 329 327 327 324 322 323 328 332 333 333 331 329 329 327 324 316 317 321 322
314 321 315 312 313 317 316 318 323 326 326 326 327 328 329 340 333 330 330 326 324 327 325 328 339 339 338 337 334 331 327 327 325 319 319 322 331 333 333 331 328 328 328 327 317 315 319 321 321
316 314 312 313 313 314 317 323 323 323 328 329 328 330 327 329 327 334 338 331 329 328 331 329 340 338 338 337 335 331 328 327 321 317 321 327 332 333 333 330 327 326 324 317 315 316 317 320 320
318 312 312 314 314 316 318 323 326 329 330 332 327 330 327 326 329 336 337 339 338 338 338 337 341 339 338 338 336 331 328 323 317 319 324 329 331 332 333 330 323 320 317 316 316 316 315 315 318
313 311 313 316 316 317 322 322 323 330 330 330 329 330 330 326 323 335 337 339 339 338 338 338 341 339 338 338 335 330 326 319 318 324 327 329 329 332 333 330 318 317 317 316 316 316 316 313 317
313 312 312 313 314 321 322 322 324 328 330 331 328 334 331 323 325 333 337 337 335 333 332 332 333 331 337 337 333 328 324 322 324 329 328 328 329 331 332 329 317 317 317 316 316 317 317 313 317
313 311 311 311 317 317 321 322 325 326 325 327 329 329 330 323 333 334 335 335 333 333 331 330 331 330 333 335 332 329 327 327 326 328 331 332 332 331 332 328 316 317 317 316 317 317 317 313 315
314 310 310 314 318 317 322 319 324 321 322 326 325 323 326 333 335 333 332 333 333 331 328 329 329 328 326 329 330 329 329 326 327 331 334 333 332 332 331 322 316 317 317 316 318 318 316 312 312
312 310 312 315 317 318 318 316 326 326 327 327 327 324 334 335 333 331 330 328 328 329 330 329 330 326 326 325 323 325 328 326 327 328 331 331 331 329 324 318 316 317 316 317 318 317 315 315 312
314 314 315 315 318 316 316 317 323 324 329 329 327 330 336 332 330 329 328 326 324 326 327 328 326 326 325 323 321 325 326 324 322 321 322 322 323 323 319 316 316 316 316 318 316 316 316 315 312
316 316 316 316 320 321 319 316 320 332 331 328 332 336 334 331 330 328 326 324 322 322 322 322 324 323 322 320 318 318 320 321 322 320 323 323 319 318 316 316 316 316 317 317 316 318 317 315 313
318 319 319 322 321 322 322 318 321 330 328 332 334 334 332 331 329 328 327 323 320 320 320 319 319 319 320 320 318 316 314 321 323 322 324 323 317 317 317 316 316 317 317 317 318 318 318 313 309
317 318 319 322 321 322 323 322 324 325 325 328 333 332 330 327 326 325 325 323 321 320 320 320 319 319 319 314 312 312 320 322 323 325 324 323 321 318 317 317 317 318 317 318 319 318 316 311 310
319 319 318 323 322 322 320 322 325 324 326 325 326 331 328 327 325 324 324 321 321 320 319 320 320 318 317 318 320 322 321 322 322 322 324 324 325 321 321 321 320 319 319 319 319 317 314 312 310
319 317 318 317 323 322 321 323 326 326 325 327 330 329 326 325 325 322 321 321 319 319 319 320 321 321 321 318 317 318 317 315 315 318 321 323 324 324 325 323 322 322 320 320 319 316 315 312 309
319 319 318 319 322 323 322 324 326 326 327 327 327 326 324 324 323 322 321 320 319 319 318 318 318 320 319 317 317 316 313 313 315 314 316 323 323 324 325 325 324 321 321 320 318 316 315 313 309
321 321 322 322 323 324 323 324 326 326 327 327 326 324 325 325 323 323 321 319 318 318 317 316 316 316 315 314 313 313 313 312 313 315 317 319 320 324 324 325 324 322 320 319 318 317 315 313 310
321 322 319 320 322 322 321 320 322 325 326 327 326 325 326 325 324 323 321 320 319 318 317 316 314 313 313 314 315 317 318 318 316 319 322 322 321 324 324 326 324 322 320 320 318 316 315 313 310
322 319 319 318 323 322 319 319 320 321 327 327 328 327 327 327 325 323 321 320 319 318 318 316 315 314 315 315 317 319 319 320 320 323 323 323 324 323 325 326 325 322 320 319 318 316 315 312 311
320 320 320 322 321 321 322 321 321 322 325 326 327 326 327 326 326 325 322 320 320 319 318 317 316 316 316 317 317 319 322 323 323 323 325 325 325 324 325 325 325 325 322 320 317 316 315 311 311
321 321 322 323 321 321 321 324 323 322 324 326 329 327 326 327 325 325 324 322 321 320 319 317 317 317 317 321 324 324 323 322 321 321 322 325 326 325 326 326 326 325 323 320 319 318 316 313 312
321 322 323 323 322 322 324 327 323 321 324 325 330 328 327 326 326 323 323 322 319 319 318 318 318 321 326 326 326 325 323 322 322 322 324 326 326 326 327 326 325 325 322 320 320 317 315 313 313
321 321 321 322 321 324 324 327 322 320 321 324 327 329 328 326 327 325 323 322 319 320 320 321 322 324 327 327 326 327 323 322 322 323 326 327 327 326 327 326 325 325 323 321 320 319 316 314 313
320 322 325 328 325 326 326 327 324 322 322 321 325 330 326 326 326 326 325 324 322 321 321 321 323 326 328 328 328 328 325 323 322 322 327 328 328 327 326 325 325 325 323 321 320 318 315 314 312
319 321 327 332 331 332 328 328 320 322 322 318 318 326 327 327 326 326 326 326 325 324 324 325 326 327 327 328 328 327 326 323 324 324 326 327 328 327 325 325 325 323 322 320 319 316 314 311 310
322 322 322 330 328 331 327 324 323 320 317 318 319 319 324 329 327 326 327 327 327 327 325 326 329 328 328 329 329 327 327 326 325 325 327 328 327 327 326 325 323 321 320 319 316 314 313 311 308
320 322 324 324 331 332 326 325 324 321 322 318 316 318 320 321 322 326 326 327 326 327 328 328 329 330 329 328 330 330 327 328 330 328 326 329 328 327 325 323 321 319 318 315 314 313 310 308 306
320 320 322 325 326 324 324 324 321 322 320 317 317 318 319 320 321 321 320 326 327 326 326 328 329 329 329 329 329 331 331 331 329 331 330 329 326 324 323 321 320 318 316 314 313 311 308 306 305
320 320 322 328 327 325 322 323 321 319 320 318 317 317 317 320 320 320 322 322 327 328 328 329 330 330 330 330 329 330 331 332 331 330 328 326 323 321 321 319 317 316 314 312 311 308 305 305 305

GFSSGP_925_thetae_078.txt.gz
Theta_e
313 314 317 317 311 309 313 313 313 317 327 326 325 327 326 328 334 332 327 331 337 335 339 336 334 338 338 331 330 329 328 325 323 321 322 324 330 332 333 329 329 328 328 329 331 330 330 330 329
315 320 319 312 311 312 311 313 327 326 326 326 328 329 334 332 329 329 327 332 335 333 336 338 335 335 338 335 330 329 327 325 323 320 323 330 331 333 331 325 324 323 325 328 329 329 325 322 320
314 321 315 313 309 313 313 315 323 326 327 325 325 328 328 338 330 330 334 326 335 335 332 337 334 327 331 335 330 329 327 325 322 322 329 333 333 332 325 321 319 319 322 326 327 322 321 319 319
315 312 309 311 312 312 315 315 318 326 327 327 327 328 325 326 325 329 337 330 328 326 331 335 332 333 335 332 330 328 327 324 320 324 333 333 332 329 322 321 319 318 319 322 320 320 319 319 322
316 308 311 311 312 312 315 317 322 328 328 331 327 329 328 326 323 333 337 332 329 327 329 335 336 333 334 334 332 329 328 323 321 330 333 333 331 325 321 320 318 317 315 315 318 319 318 318 321
314 308 312 312 313 313 316 321 327 330 330 330 328 331 330 326 327 334 337 337 337 335 328 331 330 331 334 337 332 330 326 323 323 333 334 333 330 324 321 320 318 315 316 315 314 314 317 316 319
314 310 312 312 313 313 319 320 324 330 330 329 328 332 327 324 326 332 336 334 335 335 334 327 330 328 328 335 333 327 326 323 323 331 333 333 330 325 321 319 316 315 316 316 315 312 316 316 313
310 310 313 311 312 313 317 322 324 324 328 327 326 329 326 323 333 333 333 332 332 332 330 332 327 326 327 336 332 328 330 329 329 330 332 333 331 326 318 317 317 316 316 317 316 313 316 313 312
310 311 311 311 312 315 320 318 322 319 327 326 326 325 324 334 335 334 332 331 330 330 329 330 327 326 326 331 331 328 331 329 330 331 331 334 332 327 317 317 317 316 317 318 317 313 314 312 310
312 308 312 311 312 315 317 315 322 324 325 327 327 325 331 333 333 331 330 329 330 329 328 329 328 324 324 324 323 321 329 333 333 333 332 332 332 327 317 317 317 316 318 318 315 313 312 311 310
312 313 315 314 315 316 319 319 323 325 329 327 326 328 335 332 331 330 328 327 327 329 328 327 326 325 325 324 321 320 329 332 332 333 332 332 331 325 317 317 317 316 317 317 316 316 315 312 309
314 313 314 313 318 321 321 320 331 330 330 330 330 336 332 331 330 329 327 324 325 326 326 326 326 325 323 320 318 317 327 330 332 332 331 331 328 320 316 317 316 317 318 316 316 317 315 313 309
314 315 316 317 319 319 321 321 330 328 332 328 334 333 332 330 329 328 325 322 322 321 323 325 325 324 323 321 317 319 324 323 325 327 327 325 322 318 316 316 316 317 318 316 317 317 315 312 308
317 317 317 318 319 320 322 322 325 330 329 326 327 330 328 329 328 327 323 321 321 321 321 322 323 323 321 321 321 321 318 320 319 322 320 320 319 316 316 316 316 317 317 317 318 318 316 312 308
318 317 315 316 319 321 319 320 324 327 326 327 330 331 326 325 325 325 324 321 320 320 320 319 320 320 319 317 317 318 323 321 322 323 320 317 316 316 316 316 317 318 317 317 318 318 315 312 309
318 316 317 316 319 321 319 320 326 325 328 327 331 330 326 324 325 324 322 321 320 319 319 319 319 318 317 317 319 322 323 324 324 323 324 322 319 317 317 317 317 319 318 318 319 318 314 312 310
317 318 318 318 317 321 320 321 324 325 329 332 330 326 323 322 323 323 322 320 320 319 319 319 319 318 316 315 319 321 323 324 323 323 323 323 323 321 322 322 320 320 320 319 319 318 315 313 310
318 319 319 319 319 321 321 321 324 324 326 328 325 324 323 322 321 322 321 320 319 319 319 317 318 316 315 317 319 320 321 321 318 319 321 323 324 324 324 325 322 322 321 320 319 318 315 313 311
318 319 319 319 317 323 322 321 319 324 325 324 324 325 323 323 320 321 320 319 318 318 318 318 317 317 317 317 316 316 314 313 314 315 317 316 320 323 323 324 324 322 321 321 319 317 316 315 311
318 319 319 318 319 320 319 317 317 325 326 325 325 325 324 323 323 321 320 318 317 317 317 317 317 318 317 319 317 315 314 312 313 313 314 315 318 319 322 323 325 323 322 320 319 318 317 315 312
319 319 319 318 319 319 320 319 320 322 324 326 326 325 325 324 323 322 320 318 317 317 317 316 316 317 315 315 314 314 313 313 313 313 313 316 321 322 322 323 323 325 323 321 319 319 317 315 312
319 319 320 322 321 321 320 321 320 321 325 327 327 325 326 326 324 322 320 319 318 318 318 317 315 314 314 313 315 316 317 317 317 317 317 318 322 322 322 323 323 325 325 323 320 319 317 316 312
320 320 321 322 322 320 320 322 320 320 325 328 328 327 326 326 325 323 321 320 319 319 318 317 316 315 315 315 316 317 319 320 320 321 321 323 325 324 324 324 324 325 325 325 324 320 317 316 315
320 320 320 320 320 322 321 323 322 320 321 327 327 327 326 325 325 323 322 320 320 319 318 317 316 316 316 317 317 320 319 321 322 322 321 322 323 324 325 325 325 325 325 325 322 321 319 317 316
318 319 322 323 323 324 324 325 323 321 319 323 328 327 326 325 324 324 323 321 320 319 318 317 316 317 317 318 319 321 323 323 322 321 321 322 323 324 325 325 325 326 326 325 324 321 320 316 316
318 319 322 326 327 328 326 327 321 319 319 319 322 327 326 325 325 322 323 322 319 318 318 317 317 317 319 320 324 325 324 324 323 322 321 323 324 324 325 326 326 326 325 324 323 320 319 319 314
319 321 321 325 327 326 326 324 320 318 318 317 319 327 327 325 325 324 322 322 321 317 317 318 319 320 321 322 324 326 326 325 324 323 321 322 324 324 325 326 326 325 325 323 321 320 319 314 313
319 320 323 325 330 331 327 325 323 320 318 316 317 323 326 324 324 325 325 323 322 321 319 319 320 320 322 323 325 326 326 326 325 323 323 322 323 325 325 325 325 324 323 323 320 318 316 314 314
319 320 321 322 325 326 324 322 319 320 319 316 314 317 321 324 325 324 324 325 325 323 322 322 321 322 324 325 326 327 326 327 326 323 323 324 325 324 324 325 325 323 321 320 318 316 315 313 311
318 320 320 323 325 323 321 323 318 318 316 315 314 316 315 317 321 323 324 324 325 326 325 325 324 325 326 327 327 327 328 328 326 327 326 324 324 322 317 322 323 321 319 316 315 314 312 310 307

GFSSGP_925_thetae_081.txt.gz
Theta_e
313 314 317 314 309 309 313 313 312 315 326 325 324 326 326 329 331 329 327 327 336 343 341 336 334 332 333 333 334 338 334 325 323 325 332 333 333 332 328 325 330 331 331 332 331 331 331 329 329
316 319 318 308 310 311 311 310 320 325 325 324 326 328 333 335 328 328 328 328 338 341 339 338 332 329 328 331 330 334 336 337 336 335 333 333 331 328 326 328 330 331 331 332 331 330 329 326 324
314 321 312 310 307 312 312 312 316 324 327 325 324 326 328 337 329 330 335 330 338 336 338 341 335 329 327 326 330 331 329 329 333 334 333 333 331 329 326 326 330 331 331 331 328 324 321 324 321
314 310 306 311 313 311 313 313 311 322 326 326 326 327 324 326 325 327 332 336 336 333 335 338 336 328 327 327 327 333 331 327 324 330 333 334 330 326 323 326 329 330 330 327 324 319 319 321 319
314 306 310 311 311 311 311 311 312 323 326 329 326 327 326 326 325 334 335 337 328 333 333 335 336 333 326 329 329 331 326 328 330 326 333 333 326 323 323 324 325 327 326 321 317 320 321 320 318
310 306 311 312 311 312 311 315 325 328 328 328 326 328 328 325 329 332 334 335 328 326 327 332 335 333 330 331 332 332 330 327 327 332 334 331 324 322 319 318 320 321 318 316 317 319 321 321 319
311 309 312 311 312 313 313 318 326 328 328 327 327 329 326 325 332 332 332 334 332 332 329 331 331 331 331 333 333 329 326 326 331 332 333 328 324 321 317 315 315 316 315 315 316 315 319 321 320
308 309 313 311 311 311 311 320 322 326 327 326 324 327 325 326 331 332 333 332 333 333 328 324 326 328 330 330 332 328 325 334 328 332 332 325 324 320 316 315 315 315 313 314 315 313 314 317 320
307 311 311 312 312 312 313 317 321 320 327 326 326 326 323 332 332 331 331 330 330 330 327 326 328 328 328 327 326 329 327 332 332 333 330 326 325 320 316 316 316 316 314 314 312 312 313 315 319
309 309 312 310 310 313 313 313 321 324 326 326 326 326 325 333 332 330 330 330 330 329 329 329 329 325 325 325 328 328 326 332 334 333 331 327 324 319 316 316 317 317 315 313 312 311 311 313 317
310 313 312 312 312 311 313 318 322 324 326 326 327 324 333 330 330 328 328 328 329 328 328 326 325 325 324 325 325 325 323 324 332 332 331 327 323 320 317 316 317 317 314 312 312 312 310 309 312
314 311 312 312 314 317 318 321 332 326 328 327 326 329 332 329 328 328 326 326 327 327 327 326 324 324 323 322 322 318 325 330 331 332 331 328 322 320 317 316 317 318 316 316 316 315 311 309 308
312 313 314 314 314 316 318 320 329 329 329 332 334 333 332 329 328 327 325 324 324 326 326 325 324 323 322 320 317 317 323 326 327 325 329 327 320 318 317 316 317 318 317 317 317 315 314 310 308
315 315 315 314 315 317 322 327 325 325 330 325 327 329 328 327 326 326 323 322 322 323 325 325 323 321 320 320 320 318 320 321 323 324 324 326 319 317 317 316 317 317 317 318 318 317 315 308 306
316 316 314 314 315 318 317 322 323 324 330 329 328 330 326 324 325 326 323 321 322 321 323 324 323 322 320 319 320 322 324 325 323 323 323 326 319 316 317 316 317 317 317 318 318 316 312 309 307
316 316 316 315 316 317 318 317 318 326 326 325 331 328 324 324 324 325 323 321 320 320 320 321 322 322 321 320 321 323 322 323 324 324 326 323 318 316 316 316 316 317 317 318 318 317 313 310 308
315 315 316 317 316 317 319 318 318 323 325 327 331 325 323 323 323 323 322 321 320 320 319 320 319 319 319 320 321 322 321 319 322 321 320 319 316 316 316 316 317 317 317 318 318 317 315 312 309
316 317 318 318 317 319 320 320 323 323 327 329 327 324 322 322 321 322 321 320 319 319 319 319 319 318 317 320 320 323 322 321 323 322 318 316 316 316 316 316 317 318 318 317 318 318 316 314 311
317 318 317 316 316 318 318 320 318 322 323 324 324 323 321 321 320 321 321 319 319 318 319 319 319 318 317 318 321 322 322 323 324 324 324 324 322 321 321 321 319 320 320 320 319 318 317 315 312
317 317 317 316 316 317 318 318 315 322 324 323 324 323 321 321 320 321 319 319 319 318 317 317 317 316 316 317 319 320 321 321 321 321 321 322 321 322 323 324 324 323 322 321 320 319 316 315 313
317 318 318 317 317 317 318 317 317 322 324 324 323 323 322 321 322 320 319 317 317 317 317 317 316 315 315 315 315 315 317 318 315 315 318 317 318 320 321 323 323 324 324 321 320 319 318 317 314
319 317 318 318 318 321 318 320 317 319 325 326 325 323 323 322 322 320 318 316 316 316 316 317 318 316 316 316 316 316 315 316 313 313 314 314 314 316 320 321 321 322 323 323 321 320 318 317 315
319 318 319 319 319 319 319 321 318 320 324 325 326 325 323 322 322 321 319 318 317 317 316 317 317 318 317 317 317 316 316 316 314 313 313 314 313 313 318 321 322 323 323 323 323 321 318 318 316
318 319 319 318 318 321 320 320 319 317 320 324 325 325 324 323 323 321 320 319 318 317 317 317 316 316 317 316 316 316 315 315 315 315 314 314 316 315 319 321 323 323 323 323 324 324 322 319 317
317 318 320 321 321 322 320 323 321 319 318 322 326 326 325 323 324 322 320 319 318 318 317 317 316 315 314 314 314 313 314 315 316 316 316 316 317 318 320 322 324 323 323 324 324 324 323 321 318
316 318 320 324 323 322 325 328 324 319 317 317 324 325 325 323 324 323 322 320 319 318 317 317 316 315 315 314 314 314 315 316 317 318 319 319 320 321 321 321 323 324 324 325 325 324 324 321 320
316 318 318 320 324 325 324 323 320 317 317 317 320 324 324 324 324 324 323 322 320 319 318 317 316 315 315 315 315 316 316 318 320 320 320 321 321 321 321 321 321 322 324 325 324 323 322 322 319
316 318 321 322 327 329 325 324 324 320 317 315 319 324 324 324 324 323 322 323 321 319 318 317 316 316 315 316 316 316 319 320 322 322 323 322 321 321 322 323 323 324 324 324 323 322 321 320 318
317 319 319 321 322 324 325 321 317 319 317 315 315 323 324 324 323 323 322 321 322 321 318 317 317 316 317 317 318 319 320 323 324 325 323 323 322 322 322 323 324 323 323 323 322 321 320 318 315
315 318 320 321 323 321 321 322 317 317 317 316 313 315 322 324 324 323 323 323 321 321 320 317 317 317 318 319 319 321 322 323 325 325 325 324 323 323 323 324 320 320 321 321 320 319 317 316 313

GFSSGP_925_thetae_084.txt.gz
Theta_e
312 314 317 312 309 307 312 313 311 316 322 324 324 326 325 327 329 324 327 329 338 342 341 336 338 339 335 334 341 339 337 334 334 331 330 334 333 333 332 331 332 332 331 331 330 329 327 327 326
315 318 316 306 309 311 311 309 312 319 324 325 325 326 331 333 328 327 329 327 329 341 342 338 334 335 334 331 338 339 338 336 333 329 330 331 334 331 331 333 332 331 331 331 331 331 329 325 324
316 319 310 307 306 312 311 311 311 317 323 324 324 325 328 335 329 329 331 333 331 341 341 340 337 336 334 330 329 337 338 336 334 328 324 329 331 330 332 332 331 330 331 331 332 330 328 320 312
314 309 305 310 313 311 312 312 311 313 324 325 324 325 323 326 325 324 325 326 334 338 337 339 337 338 337 332 328 327 327 326 326 328 326 329 330 331 332 331 331 331 330 329 329 329 322 316 309
312 305 308 311 311 310 310 310 311 317 323 327 325 325 324 325 326 330 333 334 335 334 333 332 335 335 337 337 337 335 332 333 332 332 331 330 330 331 331 330 330 329 327 325 324 323 319 311 310
309 305 309 311 310 311 310 310 320 321 326 327 327 326 327 325 327 330 330 335 333 332 330 331 333 332 334 335 336 335 333 334 334 330 328 328 329 330 331 330 329 326 319 320 320 320 317 314 309
309 308 310 311 312 312 312 315 325 326 327 326 326 329 325 324 330 332 332 334 329 329 328 328 329 333 331 331 331 334 333 331 334 333 329 325 326 329 330 329 325 318 318 320 321 320 317 317 312
307 308 312 310 311 311 311 317 321 324 324 325 323 327 324 323 331 332 332 333 334 329 328 327 329 330 332 330 332 329 330 329 334 332 328 321 325 327 327 325 318 317 317 320 321 320 319 318 315
306 309 310 312 311 313 311 315 319 320 325 325 325 326 323 330 331 331 330 330 332 332 329 327 326 325 329 329 329 330 329 330 333 333 325 321 324 324 322 317 315 316 314 315 319 320 320 318 316
309 309 311 310 310 312 312 312 313 324 325 326 325 325 324 332 331 330 330 330 330 329 326 327 327 327 328 328 330 330 326 325 327 331 328 321 322 319 316 315 313 314 313 313 315 317 319 319 317
309 312 311 312 310 310 311 314 319 322 324 324 325 326 326 331 330 327 328 329 329 329 328 327 327 328 324 324 327 328 325 324 330 331 327 323 320 317 317 316 314 313 313 312 314 315 317 316 316
312 310 310 311 312 315 316 317 327 321 323 327 325 326 332 330 327 327 326 326 328 328 328 327 327 324 325 324 327 326 326 326 328 327 324 324 320 317 316 316 313 313 313 311 312 311 313 313 314
311 312 312 312 312 312 315 317 323 327 325 332 333 332 331 330 327 326 324 325 326 327 327 326 325 322 323 324 324 326 327 327 326 327 324 322 318 316 316 317 313 312 313 312 310 309 309 310 312
313 313 313 312 312 314 318 321 325 322 328 326 330 330 330 329 326 323 323 323 324 325 326 325 324 322 322 323 322 322 323 325 324 324 323 321 318 317 316 317 316 315 316 316 314 315 313 309 308
314 315 312 313 314 316 315 318 325 322 330 328 326 327 326 324 325 323 323 323 323 323 325 323 322 321 320 320 320 320 319 317 323 323 322 319 318 317 316 317 317 316 317 316 315 313 310 307 306
316 313 315 312 315 316 316 318 315 325 329 330 327 326 324 323 323 324 322 322 322 322 322 323 321 320 320 319 319 320 322 322 322 320 321 322 317 317 316 316 317 315 317 316 316 315 310 308 307
313 315 314 315 315 317 318 317 317 325 325 324 324 326 321 323 322 323 322 321 320 320 321 322 321 320 320 320 319 320 322 322 321 321 320 321 318 317 317 316 317 316 317 316 317 316 314 310 307
316 316 316 316 316 315 316 317 315 322 324 323 325 324 320 320 321 323 322 321 320 320 321 321 321 320 319 320 321 319 322 323 320 319 321 322 320 316 316 316 316 316 316 317 317 317 314 312 311
314 316 316 314 314 316 314 313 315 319 323 323 324 323 320 319 320 322 321 320 319 319 320 320 319 318 319 320 321 321 320 320 318 317 317 321 320 316 316 316 316 316 316 317 317 317 316 313 311
316 317 316 314 314 315 315 316 315 317 322 322 323 323 320 318 320 320 320 319 319 318 319 319 318 318 319 319 320 321 319 320 322 320 319 320 317 316 316 316 316 317 318 318 317 318 316 315 314
315 316 316 315 315 314 315 316 316 317 322 321 321 322 321 318 319 319 319 319 319 318 318 318 318 317 318 320 322 320 319 320 322 321 316 319 318 319 320 321 322 322 320 320 320 319 318 317 314
316 315 316 317 317 318 316 319 316 316 317 324 322 322 322 319 319 318 320 318 318 318 317 318 318 317 316 318 320 318 319 319 319 317 320 321 322 322 321 323 322 323 323 323 323 321 320 318 315
316 316 317 317 317 317 318 319 316 318 319 319 322 322 322 320 319 318 318 318 318 317 316 317 317 317 316 316 316 316 318 318 316 318 315 316 315 315 316 317 318 320 321 322 323 322 320 318 317
317 318 318 317 317 320 318 319 317 317 318 320 320 322 322 321 320 319 318 318 317 316 316 316 317 316 315 315 316 315 315 316 316 316 313 313 314 315 314 313 315 320 321 321 322 322 321 320 318
317 316 319 320 321 322 317 320 319 317 316 316 318 321 322 321 320 320 319 318 317 316 315 315 315 315 316 316 315 315 315 314 314 316 315 313 313 313 314 314 316 318 319 322 323 323 322 322 321
316 316 319 324 323 321 320 323 321 319 317 315 315 320 321 321 322 321 319 318 317 316 315 316 315 315 316 317 317 317 317 316 316 316 317 315 315 314 313 314 317 317 319 321 323 323 323 323 322
315 318 316 319 321 323 321 321 319 318 316 315 315 322 322 321 322 322 321 319 318 317 316 316 316 316 316 316 316 316 316 316 315 316 316 316 316 315 315 316 318 320 321 322 323 323 322 322 322
314 316 319 318 323 326 322 323 321 320 319 314 317 321 321 321 321 322 321 321 319 318 317 317 316 316 315 315 315 315 315 314 314 314 315 315 315 316 317 319 320 321 321 322 322 323 323 322 320
315 316 318 319 319 322 324 321 316 319 318 317 313 316 320 320 321 321 322 322 321 319 318 317 316 316 315 315 314 314 314 314 314 314 315 316 317 319 320 321 321 321 322 322 323 322 322 320 320
313 314 316 319 321 319 318 319 316 315 316 315 314 312 317 320 320 320 320 320 321 320 318 317 316 316 316 315 315 315 315 315 315 317 317 318 319 320 321 322 321 322 323 321 322 321 321 320 320

GFSSGP_925_thetae_087.txt.gz
Theta_e
312 313 316 312 316 315 317 318 314 316 320 325 325 328 327 328 329 327 326 330 338 341 341 338 338 338 342 344 342 339 336 334 334 332 333 324 331 335 334 334 334 333 332 331 330 330 329 330 329
315 317 314 312 317 318 318 314 316 317 322 325 325 328 331 330 331 331 332 331 331 341 341 341 337 336 340 343 342 340 338 334 333 336 335 332 333 333 332 331 332 331 331 330 329 328 327 327 327
317 318 317 316 315 318 318 315 316 315 319 322 325 326 327 334 331 330 331 328 331 337 341 340 338 337 338 343 343 341 340 336 337 335 331 329 332 333 331 332 331 330 331 330 329 327 325 324 320
315 313 311 317 317 316 316 316 314 314 320 325 325 328 325 324 327 326 326 328 330 334 342 341 337 336 336 342 343 341 339 338 336 334 331 332 331 332 330 331 330 329 329 332 330 323 310 310 309
311 312 316 316 316 314 313 314 313 315 320 327 326 327 327 326 325 326 329 331 332 334 338 339 336 335 335 340 341 341 338 335 331 332 330 332 332 330 329 330 330 331 331 330 328 315 310 308 310
315 312 316 316 314 313 313 314 314 319 321 327 328 328 327 325 326 327 330 330 333 333 334 333 332 330 334 333 339 340 339 333 329 329 332 332 331 328 329 330 331 329 328 329 321 312 309 308 309
315 315 315 314 315 315 315 315 322 323 326 327 326 328 328 326 327 331 332 331 333 330 331 331 330 331 325 333 332 334 336 331 331 331 332 331 328 328 329 330 328 325 326 324 319 313 309 311 309
313 315 315 314 316 316 314 315 319 322 321 325 326 330 329 324 331 331 331 330 332 328 328 328 329 332 327 332 333 330 329 334 332 330 332 331 329 329 329 328 325 320 322 322 317 315 312 312 311
309 316 316 316 314 317 313 315 317 322 326 327 327 327 325 330 331 331 331 331 331 331 329 328 328 330 331 329 330 331 332 334 334 333 331 330 331 330 328 326 318 320 322 320 317 315 314 312 312
314 316 316 314 314 315 315 314 314 321 325 326 327 326 326 332 331 331 331 331 330 330 330 328 326 325 326 329 328 330 334 334 333 332 330 330 330 328 326 319 318 320 321 320 318 317 315 315 316
312 316 314 314 314 313 314 314 314 322 323 324 325 326 326 332 332 330 329 330 330 330 329 327 326 326 328 328 329 331 331 333 331 331 330 328 327 325 320 317 316 317 321 322 320 317 318 317 316
314 314 313 314 313 314 315 317 323 323 323 328 325 325 329 332 331 328 328 328 329 328 329 327 327 327 325 325 326 328 328 330 330 327 328 325 323 321 319 316 315 314 320 323 322 319 317 315 312
313 314 313 313 312 314 314 317 319 323 326 330 329 330 333 332 330 327 326 326 326 327 328 326 326 326 324 324 325 326 328 328 329 328 326 323 320 317 314 314 313 313 314 316 318 317 317 314 312
315 313 314 315 316 315 316 318 324 324 329 335 334 334 332 330 328 325 324 324 324 325 326 326 325 324 324 323 326 326 326 328 326 326 323 321 319 315 314 313 312 312 313 314 315 313 314 313 311
315 317 316 316 315 316 316 320 323 323 331 330 331 330 329 327 326 323 324 323 323 323 325 324 324 323 323 322 326 326 327 326 323 326 323 318 316 316 315 312 312 312 310 309 310 310 312 311 310
317 315 317 314 316 316 318 322 319 321 331 331 329 328 326 327 326 323 323 323 322 322 323 323 322 322 321 324 323 325 325 324 324 324 322 316 316 316 316 312 313 315 313 312 313 311 310 309 308
315 316 316 316 316 318 319 321 319 325 329 331 331 328 327 326 324 323 323 322 321 321 322 322 322 320 320 321 322 322 322 322 320 324 321 317 316 316 317 316 315 315 314 314 314 310 308 307 306
314 318 317 318 317 316 317 318 318 319 325 326 326 329 327 326 324 323 322 321 320 321 322 321 320 320 320 319 321 320 320 320 321 322 321 318 317 316 316 317 316 316 316 315 316 312 309 309 308
315 316 318 317 316 316 317 317 318 317 323 325 327 329 328 325 321 322 322 321 320 320 320 321 320 320 319 319 320 321 321 320 318 317 316 321 319 317 316 316 316 315 316 317 317 314 312 310 308
317 318 318 317 315 316 318 319 319 318 321 323 325 328 328 324 321 322 321 321 320 319 319 319 320 320 320 320 319 319 320 322 321 320 318 318 319 317 317 316 316 316 316 317 317 316 315 314 310
318 319 318 317 316 316 318 320 320 319 321 323 324 326 327 325 323 322 320 320 320 319 319 318 319 319 319 320 320 318 319 321 318 317 319 318 317 316 316 316 316 316 316 316 316 317 317 317 314
318 316 317 317 318 316 318 323 320 321 319 322 324 325 326 324 322 321 319 319 320 319 319 318 318 318 319 319 320 318 318 320 319 316 317 319 316 316 317 316 316 316 316 317 317 319 317 317 316
317 317 317 318 318 319 320 322 321 317 321 321 321 324 325 325 323 322 321 319 318 319 318 319 318 317 318 320 319 319 318 318 320 319 319 319 319 317 316 316 317 320 320 320 321 320 320 320 318
317 317 318 318 320 324 322 321 322 321 321 321 321 323 325 325 323 322 321 319 318 318 318 317 317 317 317 319 319 319 320 319 319 319 318 318 319 321 321 321 321 322 322 322 322 322 322 321 319
317 319 321 324 324 324 320 321 322 320 319 319 321 321 325 325 325 323 322 320 319 318 317 317 316 318 317 316 318 317 317 318 317 317 316 316 317 319 316 316 318 318 317 318 319 321 321 321 320
318 320 321 320 325 324 320 323 322 321 320 320 319 318 323 325 324 325 322 321 320 318 317 316 316 317 317 317 317 316 317 317 317 316 316 316 316 315 314 314 314 314 314 315 316 319 320 321 320
317 318 318 320 322 326 323 323 321 321 321 318 318 321 325 325 325 325 323 321 320 319 317 316 315 316 317 317 316 316 316 316 316 316 316 316 316 316 315 314 314 314 314 316 319 321 321 321 321
316 317 320 319 320 322 322 324 322 322 322 321 319 320 324 325 324 325 324 322 321 319 318 316 316 316 318 317 317 317 316 316 316 315 315 315 315 315 317 317 316 316 316 318 320 321 321 320 319
314 315 318 319 321 321 323 324 322 323 322 320 321 318 321 325 325 325 325 323 322 321 319 318 317 318 317 317 317 317 317 317 317 316 317 317 317 317 317 318 318 316 317 319 320 320 321 321 320
313 314 315 318 317 323 322 322 318 322 320 320 320 319 316 321 324 324 325 324 322 321 320 319 318 318 317 317 316 316 317 317 317 317 317 317 316 316 316 316 316 316 317 318 320 321 319 319 319

GFSSGP_925_thetae_090.txt.gz
Theta_e
314 315 318 319 321 321 321 321 320 321 322 323 324 326 328 328 326 326 331 332 339 343 344 342 338 340 343 345 342 337 332 334 335 334 331 330 336 336 332 335 335 335 335 334 332 332 331 331 327
317 317 320 320 321 320 321 320 320 320 320 323 323 326 330 328 330 332 333 336 333 340 344 343 339 339 335 337 343 339 334 337 336 332 329 332 335 337 336 335 334 333 332 331 331 332 330 329 327
319 320 322 321 321 320 320 320 320 320 319 321 324 328 328 326 333 333 335 334 335 335 344 343 341 339 336 326 344 340 341 340 337 332 333 334 336 335 335 334 332 330 330 329 329 329 329 327 326
319 318 319 320 320 320 320 320 320 320 322 321 325 328 328 327 330 331 332 334 334 335 339 343 342 337 335 338 342 340 340 340 336 333 334 335 336 335 332 331 330 329 329 330 329 327 326 323 322
317 319 319 318 319 319 319 319 319 321 321 326 328 327 329 328 328 329 331 334 336 335 338 338 339 335 334 334 337 339 340 339 337 336 335 335 333 333 331 330 329 330 329 328 326 321 312 314 318
319 319 318 317 318 319 318 319 319 322 322 323 328 328 328 329 329 331 334 335 335 336 338 336 337 335 328 323 329 339 340 339 337 335 334 334 333 332 330 329 329 332 329 323 314 308 308 310 313
318 318 317 316 316 319 319 319 321 321 321 322 327 326 326 330 330 335 335 335 334 335 335 334 335 336 330 326 326 326 340 339 337 335 334 335 334 330 330 331 331 331 327 315 311 307 307 309 312
318 318 317 317 317 317 319 319 320 321 321 327 327 326 326 330 333 335 335 335 334 333 334 334 334 332 330 329 327 332 337 336 337 333 334 333 331 330 332 331 329 328 324 314 310 310 308 311 313
317 318 318 317 317 318 319 319 320 322 324 326 327 328 328 331 333 333 334 335 335 333 332 330 331 331 327 328 331 330 335 334 334 333 334 332 332 331 331 330 326 325 320 315 311 312 311 311 312
317 318 318 318 317 319 319 319 320 320 321 323 325 328 328 332 332 333 333 334 333 334 333 330 331 332 331 328 330 330 329 334 334 334 333 332 332 330 329 327 323 322 320 315 313 313 312 315 315
316 317 317 317 318 318 319 319 320 320 321 322 323 325 330 332 333 333 333 333 332 332 332 330 328 329 329 330 330 330 328 331 332 332 331 332 331 329 326 326 327 325 321 320 317 316 318 318 316
316 317 316 317 318 318 319 320 320 320 321 323 327 328 329 333 334 333 332 331 330 331 332 328 327 327 327 326 329 330 329 328 327 326 328 329 329 327 324 325 326 325 323 322 321 319 320 319 317
318 317 317 317 317 317 318 319 320 320 320 322 328 328 330 333 334 331 330 329 329 329 330 328 327 326 325 326 327 328 329 329 327 326 326 328 328 325 323 323 325 324 324 323 322 322 321 319 316
318 317 317 317 317 318 318 318 320 320 326 327 331 331 334 334 332 329 328 327 327 328 327 327 327 326 324 324 324 325 328 330 328 327 327 326 325 323 322 322 322 324 325 324 322 321 320 317 316
317 317 317 317 318 318 318 318 319 323 328 330 334 334 333 331 330 328 326 325 326 326 325 326 325 325 324 324 324 325 325 329 328 326 325 324 323 322 320 319 319 319 320 321 320 320 317 317 316
318 318 319 318 317 318 320 321 323 323 326 329 331 331 331 330 330 327 326 326 326 324 324 323 324 323 323 323 324 325 327 328 327 325 322 321 321 320 318 317 316 316 317 317 317 317 316 316 315
318 319 320 319 318 317 321 322 323 324 325 327 329 331 331 330 330 326 326 326 325 323 323 322 323 322 323 323 325 326 325 325 324 323 320 318 316 315 315 317 315 312 312 313 314 316 316 314 314
320 320 319 319 319 320 320 322 322 322 324 326 328 331 331 331 330 326 325 324 323 322 322 322 321 321 322 323 323 323 322 321 322 322 319 317 314 314 313 315 313 312 313 316 315 314 314 314 313
318 318 318 318 318 319 318 319 322 322 322 325 327 329 331 331 328 325 324 323 323 321 321 321 321 320 322 322 322 322 322 321 322 321 320 317 316 316 314 313 315 316 317 318 317 316 315 313 312
318 317 318 318 318 318 318 319 322 322 323 324 326 329 330 331 328 326 325 324 323 322 320 321 323 321 322 321 321 321 321 321 322 321 320 319 316 317 318 318 319 319 318 318 318 316 316 316 313
318 319 319 318 319 319 318 319 320 322 323 324 326 327 329 331 329 327 325 324 322 323 322 320 321 321 322 322 320 320 319 319 319 320 319 319 315 319 320 320 319 319 320 320 319 319 320 320 318
317 317 318 319 319 320 319 319 321 322 322 322 323 328 328 330 329 327 326 324 323 323 322 322 320 320 321 320 320 320 320 321 319 319 318 320 321 321 320 320 320 320 318 319 321 321 321 321 322
317 316 317 318 320 320 319 318 321 322 322 322 324 325 328 330 329 328 326 323 322 322 323 322 321 320 320 321 320 319 319 322 320 320 318 319 318 317 318 320 320 320 320 320 321 321 321 321 322
318 319 319 320 321 323 320 319 321 322 322 322 323 325 327 329 329 328 326 324 323 321 322 322 321 320 319 320 320 319 318 320 320 319 319 318 317 317 317 319 321 321 321 321 322 323 323 323 323
317 317 321 324 324 323 318 320 321 322 322 323 322 324 328 329 330 329 327 326 323 321 321 322 321 321 320 321 320 320 320 318 321 319 319 320 319 318 318 320 321 322 323 324 325 325 324 324 324
317 318 322 324 324 323 321 322 322 322 322 323 324 325 325 329 330 330 328 327 324 322 321 320 320 321 320 321 321 322 322 320 320 321 320 319 319 320 321 322 322 323 324 325 324 323 323 322 323
317 320 319 322 320 323 323 323 323 323 323 323 323 322 325 328 329 330 329 327 325 323 322 321 320 321 321 321 321 321 321 322 321 320 322 322 320 320 320 321 321 321 321 320 320 321 321 322 323
314 316 319 320 321 322 322 324 323 322 322 322 322 323 326 328 329 329 330 328 326 324 322 321 320 320 321 322 322 322 322 321 321 320 320 320 320 319 319 320 320 320 319 320 320 321 322 323 323
316 317 318 320 320 322 323 322 322 322 322 322 322 324 325 329 330 329 329 328 327 326 323 322 320 320 320 322 322 322 322 321 320 321 321 320 319 319 319 319 320 321 320 320 320 321 323 321 319
317 317 317 320 321 322 323 322 321 322 324 324 324 323 322 327 329 329 329 328 328 327 325 323 321 321 321 322 322 322 322 322 321 321 321 321 321 320 320 320 320 320 320 321 321 321 318 318 319

GFSSGP_925_thetae_093.txt.gz
Theta_e
314 316 318 321 322 322 324 323 322 321 322 323 324 325 325 326 325 327 334 335 338 340 344 345 340 339 342 344 341 341 342 340 340 335 331 336 336 334 335 335 336 336 336 335 333 333 333 332 329
319 318 321 324 322 324 324 324 322 322 322 322 325 324 325 326 325 327 332 339 336 337 344 345 343 339 340 342 341 340 341 339 340 336 333 336 335 334 336 336 335 333 334 334 333 332 332 330 328
319 319 324 324 323 324 324 323 322 322 321 321 322 325 325 324 326 329 337 335 335 336 340 345 344 339 338 339 340 332 337 339 340 337 336 337 336 335 337 335 334 332 332 333 333 332 330 327 326
320 321 321 319 321 323 322 322 322 321 322 322 322 323 325 327 329 331 334 334 335 334 336 343 343 340 337 338 334 334 337 337 339 337 336 337 336 336 335 334 331 331 331 331 332 330 327 326 325
319 322 321 322 322 321 321 321 321 321 321 322 324 325 326 327 329 330 331 335 337 337 335 341 342 342 338 337 334 335 337 337 339 335 336 336 336 335 334 331 329 330 330 329 329 327 326 326 324
321 320 321 322 322 320 321 321 321 321 322 322 324 325 325 330 331 332 335 336 337 338 338 339 339 338 337 337 331 327 323 337 337 334 335 336 336 334 332 329 330 330 328 326 324 319 320 322 322
321 322 322 321 320 319 321 321 321 322 321 321 324 324 324 329 332 336 336 337 337 337 337 338 339 339 335 334 326 324 322 327 334 334 337 335 334 332 329 330 330 326 318 312 308 312 316 318 319
321 321 320 321 321 320 320 320 320 321 322 322 323 323 324 332 334 336 335 336 337 336 336 337 337 338 338 334 329 326 326 325 334 333 336 335 333 330 331 332 330 325 313 307 307 310 313 315 317
319 319 321 321 321 320 320 320 320 321 321 321 322 325 327 329 334 334 334 336 337 336 335 335 335 337 334 332 329 326 325 324 328 333 336 334 333 332 331 333 330 320 312 308 307 308 310 312 313
319 320 320 321 320 319 320 320 320 320 321 321 322 325 327 329 332 333 334 334 335 337 335 333 334 335 335 329 329 328 327 324 325 335 335 333 333 332 332 332 329 317 311 310 309 310 310 314 316
319 319 320 320 319 319 319 320 320 321 321 322 323 324 326 330 332 334 334 334 333 334 335 333 332 332 333 331 330 327 324 326 330 335 332 332 333 331 331 330 327 321 313 318 316 312 317 316 315
318 318 319 320 319 319 319 320 320 320 321 322 322 326 328 330 333 335 334 333 332 332 334 333 331 331 331 331 331 329 327 327 332 333 332 331 332 330 330 329 327 322 321 320 319 319 320 319 317
319 319 320 320 319 319 319 318 318 319 320 321 324 328 328 330 333 335 333 332 332 330 330 332 330 330 330 331 328 330 329 325 332 332 331 331 330 330 328 328 327 324 323 322 320 322 321 320 318
320 320 320 320 320 320 319 319 319 319 320 323 327 330 330 333 334 334 332 332 328 329 330 329 328 327 327 329 326 328 330 328 325 326 327 328 329 327 328 328 326 325 324 323 322 323 322 319 318
319 320 320 320 320 320 320 319 319 319 322 325 328 332 332 333 332 332 331 330 328 328 328 326 326 325 326 327 325 327 327 328 326 323 324 326 326 325 326 327 326 325 325 324 324 323 320 318 317
319 320 321 321 322 320 320 319 321 322 324 325 329 332 332 331 332 332 330 328 328 328 327 324 324 324 324 324 324 324 325 327 328 326 324 326 325 324 324 325 326 326 325 324 323 321 319 318 317
320 321 322 323 321 320 320 321 323 325 325 325 327 329 331 331 332 331 330 328 327 327 326 325 323 323 324 323 324 325 325 326 327 325 326 325 324 323 323 322 322 323 323 322 321 319 318 318 317
320 320 322 323 323 320 320 320 322 322 324 324 325 327 331 332 332 331 329 327 326 326 324 323 323 324 323 324 325 325 326 325 325 324 324 323 323 322 321 320 319 319 318 317 317 318 318 317 316
320 321 323 323 322 320 321 321 320 321 322 324 324 326 329 332 331 330 328 326 326 325 325 325 322 323 323 323 322 323 323 324 323 322 321 321 320 319 319 319 317 316 316 315 316 317 317 317 316
320 321 322 321 321 321 321 321 320 320 321 323 324 326 328 331 332 330 329 326 325 324 324 325 325 323 324 324 324 321 321 322 321 320 319 319 318 317 317 317 316 316 317 316 317 318 318 318 315
320 321 322 321 322 321 321 322 321 320 321 322 323 324 325 330 333 331 329 327 325 324 324 324 325 324 324 322 322 321 321 320 319 318 316 315 316 317 315 314 316 318 318 320 321 320 319 320 317
322 320 319 320 321 323 322 323 321 322 323 324 324 325 325 328 332 330 329 328 325 326 325 323 324 323 324 324 323 321 321 321 320 320 319 320 319 319 319 319 319 319 321 322 320 320 319 322 322
320 318 318 319 321 322 321 322 322 322 322 322 323 324 325 328 331 331 330 327 326 325 326 324 323 322 323 323 323 323 321 320 321 320 320 320 317 315 317 317 321 321 321 321 319 321 323 323 323
317 318 319 320 322 324 323 323 323 322 324 324 324 325 326 328 331 330 329 326 326 325 324 325 323 322 322 323 323 323 320 320 320 320 319 319 318 316 317 320 321 322 322 322 322 322 322 323 323
318 320 323 328 330 326 323 323 323 323 322 323 323 324 327 328 331 331 330 327 326 326 324 324 324 323 322 323 323 323 321 322 320 321 319 319 319 319 318 320 321 322 322 322 322 323 323 324 324
318 320 322 325 330 330 324 323 322 323 323 323 323 323 327 329 331 331 330 329 326 326 325 324 323 323 323 322 323 322 321 320 320 320 320 318 319 318 318 317 319 321 322 323 323 324 325 324 324
317 319 319 321 324 326 326 323 323 323 324 323 322 325 326 329 331 331 330 330 326 325 325 325 324 324 323 323 322 322 320 320 320 322 321 320 317 318 318 318 319 320 322 323 324 325 324 323 323
313 316 319 320 325 327 324 323 323 323 324 323 322 322 324 327 330 331 331 331 328 326 325 324 324 324 323 324 324 323 323 323 322 322 322 322 321 320 320 321 321 322 323 323 324 324 323 322 323
314 314 316 319 320 323 326 324 323 323 323 323 323 324 325 327 330 330 331 330 330 327 326 325 324 323 324 324 324 324 323 323 323 323 323 323 323 322 321 322 322 323 323 323 323 323 323 323 323
319 316 316 320 320 321 322 324 323 322 322 325 324 324 324 328 330 330 330 331 330 329 327 325 324 324 324 324 324 324 324 324 323 324 323 323 323 323 322 322 321 321 322 322 322 322 322 323 323

GFSSGP_925_thetae_096.txt.gz
Theta_e
315 313 317 321 322 323 324 324 324 323 322 324 323 323 323 323 323 328 335 337 337 340 345 345 341 338 343 344 342 342 341 340 338 336 337 338 334 333 332 335 336 336 337 338 337 336 335 332 331
316 319 319 322 325 323 325 324 324 322 322 322 322 323 323 324 325 330 341 339 336 336 343 347 343 338 341 344 343 342 341 340 338 336 337 338 335 333 334 336 336 335 335 336 335 335 333 330 330
319 322 320 325 326 324 324 323 322 322 322 321 321 322 324 324 325 330 337 335 335 336 339 344 345 341 338 341 342 341 340 338 339 337 336 336 334 333 335 336 335 334 333 333 333 333 330 328 327
320 321 321 322 321 322 322 323 322 321 321 322 322 321 322 325 326 331 335 334 335 334 336 342 343 342 339 338 339 338 335 336 338 337 335 336 334 336 336 335 333 333 333 332 332 330 327 326 324
319 321 323 324 323 323 322 322 321 321 321 322 322 324 325 324 329 332 332 335 337 338 336 340 341 342 339 338 339 339 335 333 334 337 333 335 335 333 335 334 332 332 332 332 330 325 325 323 326
320 320 321 321 323 322 322 322 321 321 321 322 322 323 325 330 331 332 335 337 338 339 339 340 341 341 340 339 339 335 332 333 333 331 335 336 333 333 334 332 331 331 331 329 325 324 324 321 327
319 321 322 323 323 322 321 322 322 321 321 321 322 323 324 332 335 336 336 337 338 338 339 340 340 337 337 339 338 337 332 326 326 325 330 337 335 335 333 330 330 330 328 325 323 323 322 319 321
319 320 322 322 322 322 322 321 321 320 321 321 321 322 324 336 337 337 336 336 338 337 338 338 337 338 339 335 337 334 325 325 324 323 324 332 332 334 331 329 329 328 324 321 316 318 320 318 320
320 321 321 320 321 322 321 320 321 321 320 321 321 323 324 331 335 334 335 337 338 336 336 335 335 336 338 337 334 329 326 324 322 322 321 330 334 331 330 329 327 323 320 313 312 314 316 315 317
321 321 321 320 321 321 320 320 321 320 320 321 321 325 325 327 332 333 335 336 338 339 336 334 334 335 335 334 332 329 327 327 326 324 322 332 333 332 331 329 322 317 312 309 310 311 313 311 318
320 321 320 320 321 321 320 320 320 320 319 321 322 323 324 327 331 333 333 334 335 336 335 333 331 334 333 332 329 328 326 327 326 324 323 331 333 333 332 329 320 316 309 310 310 311 313 313 318
319 320 320 320 319 320 319 320 320 319 320 321 321 323 326 328 331 332 335 334 332 335 336 333 333 331 331 331 331 329 325 325 325 324 327 333 333 333 331 328 319 314 315 313 309 317 316 314 317
320 320 320 320 319 320 320 320 319 319 319 319 320 323 327 328 330 334 335 333 332 332 333 333 331 330 331 330 331 329 327 326 325 327 329 333 332 333 331 327 320 315 318 314 317 320 317 317 318
320 320 320 320 321 321 321 321 320 320 320 319 322 325 328 329 331 335 336 332 332 330 331 332 330 329 329 330 329 330 327 327 330 331 332 332 332 331 330 326 321 322 320 318 320 321 320 319 319
321 320 320 320 320 321 321 321 321 321 321 320 322 324 329 329 333 333 334 331 330 329 329 329 327 328 328 328 327 329 329 326 330 332 332 331 331 330 329 327 323 325 322 320 322 322 321 319 318
320 320 321 321 321 322 322 322 322 322 321 320 324 326 329 330 331 332 332 330 329 329 328 327 325 326 326 328 326 327 329 328 327 329 329 329 329 328 328 328 325 326 324 322 324 322 320 318 318
320 321 322 321 322 322 322 321 321 323 324 324 324 325 329 331 331 332 331 330 329 328 327 325 324 325 325 325 325 325 327 328 326 325 326 327 326 327 327 327 326 325 326 324 323 322 319 318 318
321 321 321 321 321 323 322 321 321 321 325 325 325 325 327 331 331 333 331 329 328 326 325 325 324 326 324 324 324 325 327 326 328 324 325 326 325 325 326 326 326 326 325 324 323 321 319 318 318
319 321 322 322 322 323 323 322 322 322 322 323 323 325 325 330 332 332 330 328 327 325 325 324 325 324 324 323 324 326 327 327 327 326 324 326 324 324 323 322 323 322 322 321 319 318 318 317 317
318 319 321 322 322 323 323 322 322 322 322 321 320 323 326 329 334 332 330 327 326 325 325 325 323 324 324 323 322 324 325 325 324 323 324 324 323 321 320 321 319 318 318 317 318 317 317 317 317
320 321 322 323 322 323 323 323 322 322 322 322 321 323 324 328 334 332 331 328 326 325 324 325 325 325 324 322 322 322 322 321 321 321 320 320 319 320 319 319 317 318 316 316 317 317 317 317 316
317 320 321 322 323 323 322 325 324 323 323 323 322 323 325 324 334 332 331 328 326 325 324 325 325 325 323 323 323 322 322 321 320 320 319 319 319 319 318 317 317 316 316 318 319 319 319 319 318
317 318 319 322 323 322 322 325 323 323 322 322 324 325 325 325 333 332 330 329 327 326 326 325 324 325 324 324 323 322 321 320 318 317 317 317 317 316 317 316 315 317 319 319 321 321 320 320 323
317 318 319 320 321 325 323 325 324 323 324 324 323 324 325 326 332 331 330 328 327 326 325 325 324 324 324 324 323 322 321 320 318 317 316 316 317 318 318 317 318 319 319 320 318 320 319 320 322
316 318 322 325 327 329 324 325 325 324 324 324 325 326 327 328 332 331 330 328 328 326 325 325 324 323 324 324 324 323 322 320 319 318 317 317 317 318 318 317 318 319 320 319 318 320 319 322 322
316 318 323 324 330 328 328 328 325 323 323 323 323 324 327 329 332 331 330 327 328 327 325 324 324 323 323 324 324 323 321 321 320 319 319 319 318 317 317 316 316 317 320 321 322 322 322 323 323
317 319 319 322 323 330 328 327 327 323 324 324 323 324 328 329 331 331 331 328 327 327 326 325 325 324 322 324 324 323 322 321 321 320 319 319 318 317 316 316 317 318 319 320 321 322 322 323 322
315 317 320 321 324 325 324 328 327 326 325 324 323 324 327 329 331 331 331 330 327 327 326 326 325 324 323 322 324 323 322 321 321 320 320 319 319 318 317 315 315 315 320 321 322 321 322 323 323
312 313 314 316 320 322 326 326 325 326 325 326 326 326 325 327 330 331 331 331 328 328 327 327 326 325 324 324 323 323 322 321 321 321 321 321 319 318 318 318 318 318 318 318 321 321 323 322 322
318 314 314 317 319 321 322 323 324 324 322 323 323 323 325 326 329 330 330 332 330 328 327 327 326 325 325 325 324 324 323 322 321 322 322 322 322 320 318 318 321 320 320 321 322 322 323 324 324

GFSSGP_925_thetae_099.txt.gz
Theta_e
313 316 313 317 317 314 316 318 319 320 322 320 320 321 321 319 321 324 336 336 344 345 343 341 340 342 342 339 339 334 333 332 334 332 329 333 333 332 329 328 330 335 337 337 338 338 338 334 334
314 316 318 314 318 320 320 319 319 320 321 320 320 321 321 321 336 339 339 336 339 342 343 343 340 339 342 342 340 339 335 332 333 331 328 331 332 330 330 331 334 336 337 337 336 337 335 333 332
313 318 314 316 318 320 318 319 318 319 319 319 320 320 322 323 331 338 337 335 335 339 342 346 344 341 340 343 342 340 341 339 334 331 333 334 333 330 332 333 334 335 336 336 335 335 331 331 331
319 317 313 317 318 319 320 318 317 318 319 319 320 321 321 324 326 336 334 334 334 335 336 342 344 343 339 341 343 342 341 339 337 334 334 335 334 335 334 334 334 334 334 333 333 331 329 329 327
316 313 316 318 318 319 320 318 318 319 319 321 320 322 323 327 335 334 334 334 336 337 337 339 340 341 339 339 341 340 338 337 337 336 336 332 328 335 335 334 333 332 331 332 332 327 326 325 327
314 312 315 316 317 318 319 318 319 320 320 320 320 322 324 331 331 333 334 336 337 338 339 340 340 340 340 338 340 340 338 335 335 329 333 332 331 335 335 333 332 332 331 329 327 324 323 326 327
315 313 315 316 318 319 319 319 320 319 319 319 320 320 327 335 334 334 336 337 337 334 339 341 341 340 340 339 339 340 337 334 332 333 332 328 328 333 334 332 332 332 330 327 324 323 325 327 327
313 312 315 316 318 318 319 320 318 317 317 320 319 319 320 335 335 336 337 337 337 336 337 336 337 337 338 338 338 339 334 332 331 332 329 327 328 331 333 331 331 330 329 326 323 322 327 326 323
315 314 315 316 318 319 318 317 318 317 318 319 318 319 324 337 336 336 336 338 337 336 336 336 336 335 337 338 336 334 333 331 329 328 326 324 325 331 331 331 330 330 327 324 323 316 324 322 320
314 313 316 317 318 318 319 316 317 318 317 318 319 324 335 336 334 332 334 335 337 336 336 333 333 334 338 337 335 332 325 324 325 324 323 323 325 324 331 330 329 327 324 321 316 316 319 320 320
314 316 317 318 318 317 316 315 316 316 316 317 319 320 322 331 330 330 332 334 338 337 336 332 333 334 335 334 332 331 328 327 326 323 323 324 329 332 331 329 327 323 316 314 317 316 318 319 320
315 316 317 317 318 317 316 316 317 316 315 316 316 319 323 324 326 329 331 333 336 337 335 332 331 333 332 333 331 329 328 326 327 326 325 324 327 331 329 328 323 317 313 313 314 313 313 319 320
316 317 317 317 316 315 316 317 318 316 315 315 316 317 323 324 325 330 333 332 334 335 334 332 332 332 331 330 330 330 328 325 326 326 323 328 331 330 327 323 319 313 310 310 312 311 318 319 320
317 317 317 316 316 316 318 318 317 317 315 316 318 316 321 324 325 333 332 331 332 333 333 332 331 330 330 330 330 330 328 326 326 325 324 324 331 329 326 321 317 313 308 311 316 312 317 317 319
318 318 318 318 317 317 316 318 318 317 318 318 317 318 322 323 327 333 332 331 330 330 330 329 329 328 328 329 330 330 326 327 328 326 325 330 331 329 324 318 315 311 309 319 320 316 316 317 319
318 317 317 318 318 318 317 319 319 319 318 318 318 320 322 325 328 333 332 329 329 328 327 326 326 326 327 328 327 329 328 330 330 331 326 332 331 328 324 316 319 315 314 320 321 319 318 319 318
317 318 318 318 318 318 318 319 319 318 318 320 320 319 320 324 328 330 330 329 328 327 326 326 325 326 326 328 326 328 329 329 330 330 330 331 330 328 324 319 322 319 317 320 321 320 319 318 318
318 318 319 319 319 319 318 318 317 317 317 320 319 318 319 324 331 329 328 328 328 327 326 324 325 325 325 325 326 326 329 327 328 330 330 330 329 327 324 320 325 322 322 322 322 321 318 318 318
317 318 318 318 318 320 319 319 319 317 317 317 319 318 317 324 330 328 327 327 326 325 325 324 324 326 324 323 323 324 326 327 326 328 328 328 327 327 326 322 326 323 324 324 322 319 319 318 318
315 316 315 316 317 319 320 319 319 318 318 317 316 314 317 331 330 327 325 325 325 325 323 324 325 324 323 324 324 326 326 326 326 327 327 327 326 326 326 326 325 326 324 323 322 319 318 317 317
311 314 316 316 318 320 321 321 318 319 319 318 318 316 320 332 330 328 326 324 324 324 324 324 324 324 323 323 323 325 325 327 326 325 325 325 325 322 325 325 324 324 322 321 319 318 317 316 315
312 312 314 317 320 322 321 325 321 320 320 319 319 319 317 331 330 328 326 324 323 324 324 324 324 324 324 323 322 323 323 323 323 324 324 324 323 320 321 323 324 323 320 318 318 317 317 317 316
313 313 315 316 319 320 322 324 320 320 322 321 317 316 317 331 329 329 326 324 323 324 323 325 325 324 323 322 322 322 322 322 321 320 320 320 320 319 318 318 319 318 317 319 318 317 317 317 318
315 316 317 317 319 323 323 323 320 321 322 322 321 319 318 330 329 328 326 325 323 324 323 325 325 324 324 323 322 322 321 320 319 319 319 319 319 319 318 317 317 316 316 316 317 318 319 319 320
314 314 320 323 320 321 320 322 321 320 321 321 321 320 320 330 329 328 326 325 324 324 325 325 324 325 323 323 322 321 321 320 319 318 318 318 318 318 317 316 316 314 314 317 319 320 319 320 319
315 315 321 323 326 325 322 329 325 323 322 321 321 321 328 329 329 328 327 325 325 324 324 324 323 324 324 324 322 321 321 319 318 318 317 317 317 316 316 315 314 314 318 319 319 320 319 320 319
316 316 315 320 322 327 327 323 324 324 324 324 320 323 326 329 328 327 326 326 325 324 324 323 323 323 323 324 323 322 320 319 318 317 316 315 316 316 318 315 316 317 319 319 319 319 319 319 319
315 316 318 319 321 322 323 327 330 325 324 325 324 321 324 329 327 327 325 326 325 324 324 324 323 322 322 323 324 322 321 319 319 317 317 317 316 316 317 318 316 317 317 317 319 319 319 321 320
314 315 314 317 319 321 321 323 324 325 324 322 322 320 322 326 328 328 326 325 326 325 324 324 323 323 322 322 324 323 321 321 320 318 318 318 318 317 316 317 317 316 315 316 318 319 318 321 321
314 313 313 315 314 318 319 319 322 322 323 321 322 322 319 319 325 327 327 325 326 325 325 324 324 323 322 321 322 322 321 321 321 320 319 318 318 318 317 316 316 316 316 316 317 319 321 321 322

GFSSGP_925_thetae_102.txt.gz
Theta_e
316 316 314 315 315 312 316 316 317 318 321 319 319 320 320 318 320 320 337 339 339 341 341 341 341 340 339 336 334 333 332 331 333 332 335 336 336 336 335 334 335 338 340 340 338 338 339 339 335
313 315 316 311 315 318 317 316 318 318 319 318 319 320 320 329 336 336 336 338 341 341 341 340 340 340 340 337 334 335 332 331 333 331 333 334 334 333 330 329 333 336 337 337 337 337 339 335 334
314 317 314 313 314 318 318 318 316 317 318 318 319 319 320 327 337 336 337 336 341 340 341 341 341 339 340 340 336 333 332 332 333 331 332 334 332 330 330 330 333 334 334 335 336 338 334 333 332
317 314 311 315 317 317 319 319 317 317 317 317 318 320 320 331 337 338 335 335 340 340 340 342 342 340 339 340 340 337 336 335 336 331 331 336 335 331 330 333 334 335 335 335 336 334 332 331 330
315 309 314 315 315 316 317 315 318 317 317 320 319 320 320 333 335 335 334 334 337 341 341 343 342 340 340 340 341 340 341 339 336 335 332 334 333 334 334 334 334 334 334 333 334 332 331 330 330
312 309 313 314 315 315 316 317 316 318 318 319 319 320 328 333 334 334 334 334 334 336 339 341 341 340 340 340 342 342 340 338 337 335 334 329 326 327 331 334 334 333 332 331 331 330 327 328 327
312 311 313 314 315 316 317 318 319 318 318 318 318 321 329 330 333 334 334 335 334 334 335 339 340 340 340 340 341 342 341 338 337 335 333 328 326 328 331 331 332 331 330 329 329 327 327 328 327
311 311 314 313 315 315 316 315 317 316 316 318 317 320 333 331 335 336 336 335 335 332 333 336 339 340 340 339 339 339 339 337 335 333 329 328 325 327 328 331 332 330 328 328 326 325 327 327 325
311 312 312 312 314 316 316 315 316 316 317 317 317 318 318 333 336 337 337 336 335 335 334 335 336 337 336 337 338 339 338 336 334 332 328 326 324 323 325 329 332 330 327 326 324 325 327 325 320
311 310 313 313 314 316 317 316 315 315 315 316 317 333 335 335 335 334 334 335 335 337 336 335 334 334 335 337 337 336 334 333 333 331 330 327 325 327 326 330 331 330 325 323 324 326 325 320 322
311 315 314 315 314 315 316 314 314 315 315 315 317 332 335 334 333 333 334 335 336 335 336 334 333 334 335 337 335 334 333 332 332 330 328 329 328 326 323 328 329 330 323 322 323 325 322 319 320
314 314 313 314 315 315 315 315 315 315 315 315 314 317 333 333 331 330 331 333 336 336 335 333 333 333 336 335 334 333 329 327 326 327 326 324 324 324 325 327 329 329 323 322 320 323 320 319 320
315 316 315 314 314 314 314 313 314 314 314 314 314 315 326 329 329 329 330 332 336 336 335 332 332 334 334 333 332 331 329 328 327 324 323 323 324 326 329 329 328 326 319 318 318 320 319 319 320
316 316 315 314 313 314 316 315 316 315 315 315 316 315 315 320 324 329 330 333 335 336 333 331 331 331 331 330 330 329 329 328 326 326 325 323 327 328 328 326 327 321 313 315 315 318 319 319 320
316 316 315 315 316 315 315 316 315 315 315 316 316 315 313 319 329 330 330 331 334 334 333 332 331 329 329 330 329 329 329 326 326 325 325 325 325 328 325 326 323 314 313 313 313 313 318 319 319
317 316 317 317 316 317 317 318 317 317 316 316 316 316 314 320 331 330 330 330 332 332 331 330 329 328 327 329 329 329 328 326 325 325 324 325 327 326 325 323 316 311 311 311 311 317 317 319 318
315 319 317 317 316 316 317 317 316 315 316 317 317 316 316 320 330 330 328 329 330 330 328 326 326 326 327 328 327 329 328 327 329 327 325 325 327 326 322 319 311 309 310 314 313 315 316 319 318
318 317 317 317 317 316 315 317 315 314 314 315 315 314 315 325 332 328 327 328 328 327 326 325 325 326 326 328 326 328 329 329 329 330 327 330 326 324 322 315 309 309 316 319 317 316 317 318 318
316 317 317 317 316 315 314 314 315 315 315 313 313 315 315 324 329 326 326 327 327 326 325 325 325 325 325 325 326 326 328 327 329 328 328 329 328 323 319 315 311 313 318 320 318 318 318 318 318
315 316 316 315 314 314 314 316 316 317 316 316 315 314 315 328 327 326 325 324 325 325 324 324 325 325 324 323 323 324 325 327 327 327 327 328 327 323 319 318 316 317 319 321 320 319 318 318 318
309 313 314 314 314 313 314 317 319 318 317 318 319 314 319 330 328 327 325 323 324 324 324 324 324 324 322 322 322 324 324 326 326 326 325 327 326 325 321 320 319 320 319 322 320 319 317 317 317
307 308 310 311 313 314 319 322 319 319 319 319 319 319 319 328 328 327 325 322 323 323 324 324 324 323 323 321 323 324 325 326 326 327 325 325 327 325 322 324 323 322 321 322 320 319 317 317 316
308 309 311 311 312 315 317 321 318 319 319 319 319 319 316 328 328 327 325 323 322 324 323 323 324 323 323 322 322 324 324 325 325 325 325 325 325 326 325 324 324 323 323 322 320 319 317 318 316
309 309 310 312 314 318 320 322 319 318 319 319 319 320 317 327 328 326 324 322 322 323 324 324 323 323 323 321 321 323 322 322 323 323 323 320 320 322 325 324 323 324 322 318 318 317 317 316 315
311 312 315 318 318 319 317 320 319 318 319 319 320 320 319 322 328 326 324 322 322 322 323 324 324 324 323 322 321 321 322 321 322 322 321 320 319 319 321 323 323 323 320 319 319 319 317 317 317
310 312 315 319 322 320 318 321 323 322 322 321 321 319 324 328 328 326 324 322 322 322 323 324 324 324 323 323 322 321 321 321 320 321 320 319 319 319 319 318 320 319 319 320 320 318 318 319 319
310 314 314 316 321 321 320 321 321 323 324 323 321 318 326 328 328 326 325 323 323 322 322 323 324 324 323 323 322 321 321 320 320 320 319 319 319 318 317 317 316 317 317 317 317 318 319 318 319
312 313 316 315 317 319 320 322 324 325 326 322 322 320 324 328 328 327 325 324 323 323 322 323 323 324 324 324 323 321 320 320 319 319 318 318 317 317 316 316 316 314 314 315 314 316 319 319 319
310 312 314 316 317 317 320 318 323 324 323 323 323 322 320 321 327 326 326 324 324 323 322 322 322 322 323 324 323 322 320 319 319 319 318 317 317 318 318 316 316 315 314 314 317 318 318 318 319
317 314 316 318 319 318 318 319 322 320 322 324 322 322 321 318 317 326 325 325 324 323 323 322 321 321 322 322 323 322 321 320 319 318 317 316 315 316 317 317 315 315 315 317 318 318 318 319 319

GFSSGP_925_thetae_105.txt.gz
Theta_e
320 315 314 314 315 311 315 315 314 318 320 318 318 318 318 318 319 318 331 338 339 337 338 340 339 338 336 335 337 337 335 334 335 337 341 340 338 337 336 338 339 338 339 341 340 338 339 339 336
314 315 315 309 314 316 315 315 316 315 318 318 318 317 319 326 333 333 337 339 338 336 337 339 339 339 336 334 334 335 336 335 335 336 336 338 337 337 337 339 339 338 339 339 340 338 338 338 336
314 318 314 311 311 316 317 317 318 316 316 317 318 318 322 328 334 334 335 335 339 337 335 338 339 339 339 334 334 334 334 334 335 336 336 336 337 337 338 336 337 338 337 337 336 336 337 336 335
315 314 309 313 315 315 316 318 318 316 316 314 317 319 319 329 333 334 335 334 336 339 338 339 339 339 340 340 336 335 333 335 337 338 338 337 336 332 334 336 337 336 335 335 335 335 335 334 334
312 308 314 314 314 314 315 315 316 316 316 318 317 319 320 331 334 335 335 334 337 338 339 340 340 339 340 340 339 341 337 335 335 336 335 334 332 332 332 334 333 332 333 333 334 334 333 333 332
310 307 313 315 314 315 314 314 314 316 315 317 318 319 323 330 335 336 334 335 336 338 340 341 341 340 340 340 340 339 340 338 336 332 330 329 327 326 331 332 333 334 332 332 333 332 331 330 329
311 309 312 312 313 315 316 314 317 316 317 317 317 324 328 330 333 334 334 335 338 339 340 341 341 341 340 341 340 341 340 338 336 332 328 328 328 327 328 330 331 333 332 332 332 331 330 327 327
308 310 314 312 314 314 315 315 314 316 314 316 315 326 330 329 332 334 335 335 336 337 337 340 340 340 340 340 341 341 341 339 337 333 329 326 326 327 327 325 328 331 330 330 331 330 329 326 325
308 313 313 313 313 314 315 315 315 314 314 315 315 320 322 330 333 336 336 336 336 336 336 336 337 338 339 339 339 341 340 337 335 334 330 328 328 329 325 321 324 329 329 329 328 328 327 326 324
312 310 314 311 312 314 315 315 315 315 313 313 315 331 331 333 335 334 333 333 334 334 335 334 336 335 337 336 336 338 339 337 334 334 330 328 327 330 326 324 325 328 328 328 326 327 326 323 321
310 314 314 313 313 312 314 313 314 314 314 312 315 321 332 332 334 333 334 334 334 334 335 335 335 333 333 335 336 336 336 337 334 333 330 328 327 328 324 323 325 329 327 327 325 326 324 320 322
313 311 314 313 313 312 313 313 314 312 315 314 313 320 332 332 333 332 332 333 334 334 335 335 334 334 334 335 336 334 334 335 333 331 328 327 326 325 324 324 329 329 326 324 324 324 319 321 322
314 314 314 314 313 312 312 312 313 313 312 312 312 313 332 333 332 332 332 332 334 334 335 335 333 333 333 336 335 334 333 333 331 331 329 327 325 324 326 330 330 329 325 323 325 324 319 321 321
314 315 315 315 315 313 314 314 312 314 313 313 314 313 323 332 331 329 329 330 332 334 334 333 332 332 334 334 333 332 331 330 330 329 329 328 326 326 326 328 328 328 326 322 325 323 319 320 320
314 315 314 313 314 314 313 313 313 313 314 314 314 314 312 321 328 326 329 329 331 333 335 332 331 332 332 331 331 329 329 329 328 327 325 326 326 326 327 326 327 327 326 321 322 322 318 319 319
316 315 317 315 314 314 313 318 316 315 315 314 314 314 314 310 319 325 328 329 332 334 334 331 331 331 330 329 329 327 328 328 328 327 326 325 324 325 328 326 324 327 325 320 320 319 318 319 319
313 316 316 317 315 316 314 315 314 313 315 314 313 313 313 310 318 325 328 330 333 334 332 331 330 328 327 328 329 328 328 328 326 325 325 325 323 327 327 324 324 326 319 319 318 317 317 319 319
314 316 316 317 316 315 314 315 313 313 313 314 312 311 310 312 318 328 327 329 332 332 331 330 328 327 326 327 326 327 328 328 326 327 325 324 325 326 325 323 325 323 313 316 316 316 316 318 319
313 315 315 316 315 315 313 313 312 311 312 313 314 312 311 313 328 326 326 328 329 330 329 327 325 325 326 326 325 327 326 327 328 329 327 325 325 325 322 320 322 313 313 315 313 317 316 318 318
313 315 316 314 314 314 314 315 314 312 314 314 314 314 312 324 326 326 325 325 326 325 325 325 325 325 326 326 326 325 325 327 327 328 328 326 325 322 323 319 315 310 313 315 314 316 317 317 318
306 310 313 315 314 312 311 313 312 313 315 315 316 315 312 322 327 327 325 324 323 323 324 324 324 325 325 324 324 324 324 325 326 327 328 324 322 321 319 316 311 311 314 316 314 315 318 316 317
305 305 308 309 312 312 312 314 314 316 316 316 317 315 313 321 327 327 326 322 323 322 323 323 324 324 324 323 322 323 323 326 326 326 326 325 326 321 318 314 312 314 317 318 316 316 318 317 316
306 307 306 307 308 308 309 317 314 317 318 317 317 315 314 321 326 327 326 324 322 322 322 323 324 324 322 322 322 323 324 324 325 325 323 325 323 323 320 315 315 317 319 319 318 318 318 317 316
308 307 308 308 308 310 310 313 312 313 317 317 317 316 315 318 325 326 325 323 321 322 322 323 323 322 323 322 322 322 323 325 325 323 321 322 323 323 322 319 316 318 320 321 319 318 318 317 317
309 309 312 315 317 314 313 318 316 315 316 317 320 319 317 315 324 326 323 322 322 321 322 322 322 320 322 321 322 322 323 325 325 324 322 321 322 322 322 320 318 319 319 320 319 317 317 317 317
307 309 313 317 318 317 316 319 317 316 321 320 321 319 319 321 322 326 324 323 322 321 322 322 322 320 321 321 321 322 323 323 324 324 323 322 322 322 322 321 321 321 321 321 320 318 317 316 316
308 310 310 313 317 319 318 319 316 321 322 321 321 321 319 328 327 325 323 322 321 321 322 322 322 322 322 321 320 320 321 322 322 323 322 321 320 321 323 322 322 323 322 321 320 318 318 317 318
308 309 312 314 316 319 317 319 318 319 323 323 322 322 321 319 326 325 323 322 322 321 321 322 322 322 323 322 321 321 320 321 321 321 321 320 320 319 321 322 322 322 319 320 320 319 319 319 317
307 310 312 313 313 316 317 316 315 317 323 323 322 321 322 320 320 322 324 322 322 321 321 322 323 323 323 323 322 321 320 321 321 321 321 320 319 319 319 319 319 321 321 320 319 320 319 318 317
314 309 310 315 317 315 314 314 318 319 322 321 323 323 321 319 320 324 324 323 323 322 321 321 321 323 323 323 322 321 321 320 320 319 319 319 319 319 318 317 317 317 317 318 318 317 317 317 318

GFSSGP_925_thetae_108.txt.gz
Theta_e
319 315 314 313 314 310 314 314 312 316 318 316 316 317 317 317 317 317 325 332 328 329 331 336 343 342 340 338 337 335 336 340 341 340 337 337 341 339 340 339 340 340 341 342 339 336 339 339 338
315 315 313 307 313 314 313 314 317 314 316 316 317 317 321 321 328 332 332 333 331 331 331 334 339 342 340 337 336 335 336 339 341 339 337 338 335 339 340 338 339 339 341 340 340 339 338 338 336
314 317 312 310 310 314 315 315 316 316 314 317 317 317 319 323 331 332 329 330 335 334 332 333 338 341 339 338 337 335 337 344 344 342 342 342 341 340 339 338 338 337 338 339 340 337 337 336 335
315 312 307 312 313 314 315 317 317 315 315 314 315 317 318 325 331 331 331 331 335 333 330 332 337 341 339 341 338 337 335 339 342 339 341 341 340 338 337 337 336 336 334 338 338 336 336 335 334
311 307 312 313 312 312 313 314 315 316 315 316 315 317 319 325 331 332 332 333 333 335 334 335 337 339 340 340 341 340 339 336 337 336 336 335 334 334 333 335 335 334 334 334 336 336 335 335 335
309 307 313 313 312 314 313 313 314 314 314 315 317 318 319 327 333 333 334 335 335 337 337 338 339 339 340 340 341 340 340 338 335 335 333 330 331 328 329 332 333 331 333 332 335 335 335 334 334
309 309 312 312 312 314 313 314 315 315 315 314 316 318 323 328 332 334 335 338 337 338 338 339 340 339 339 340 340 340 339 336 336 333 332 329 326 325 325 329 331 331 332 332 333 334 333 333 332
307 309 313 311 313 313 313 315 314 314 315 313 317 321 322 326 332 334 335 337 339 338 339 340 340 340 340 340 340 340 339 336 336 333 330 327 325 326 325 323 326 330 330 331 333 332 331 331 330
306 311 311 312 311 313 314 315 314 313 313 312 314 318 322 326 332 333 334 335 337 338 339 340 340 340 339 340 340 340 339 337 335 332 329 326 326 326 325 322 325 330 329 330 331 329 329 328 326
310 310 311 310 310 312 314 314 314 314 312 313 313 321 330 331 333 333 333 333 335 336 337 337 338 338 338 339 339 341 340 338 335 331 328 328 328 327 326 326 326 329 329 329 331 329 327 325 324
310 312 311 311 311 312 313 312 313 314 313 312 314 313 330 331 332 332 333 333 333 335 335 334 336 336 337 338 338 338 339 338 334 332 329 328 326 326 327 327 328 327 330 329 329 327 325 324 323
311 309 313 312 312 313 312 312 313 311 313 313 312 311 328 330 331 331 332 332 333 333 333 333 335 336 336 336 334 334 336 334 334 332 327 326 328 328 325 324 326 328 328 328 328 327 324 322 322
312 313 311 311 311 311 311 312 312 312 312 310 310 310 323 329 330 331 332 331 332 333 333 333 335 335 333 334 334 336 333 333 331 332 330 328 327 328 325 325 327 329 327 327 327 326 323 321 322
312 312 313 312 313 313 315 315 313 313 310 311 313 312 310 328 329 329 330 330 331 332 333 334 334 334 333 333 332 333 332 332 333 330 329 329 327 328 325 325 327 329 327 327 326 324 321 321 322
313 314 312 312 313 313 312 312 312 312 312 312 312 312 311 314 326 328 329 329 330 331 332 334 335 333 332 332 334 333 329 330 330 330 329 328 327 327 326 327 327 328 327 325 325 321 320 321 322
314 314 315 314 313 313 314 318 315 313 312 313 313 312 311 310 313 325 328 328 329 330 332 333 334 332 332 333 334 330 327 327 328 329 328 327 327 326 325 327 329 328 327 323 324 320 318 320 321
311 313 315 315 313 315 314 317 314 313 314 313 312 311 311 309 308 311 321 326 328 330 331 333 333 331 331 331 329 329 328 328 328 328 328 328 327 326 327 327 327 327 327 322 324 320 318 319 319
312 314 315 315 315 314 314 314 312 312 312 310 310 311 310 310 311 312 317 324 328 330 331 333 332 330 330 328 327 327 327 328 327 327 327 327 326 326 326 327 325 325 324 320 321 321 317 319 319
309 312 312 314 314 314 314 314 311 310 309 309 309 310 311 310 314 325 325 327 329 330 331 332 330 330 327 326 326 326 328 327 327 326 326 325 325 324 326 325 324 323 325 319 320 319 317 317 318
310 311 311 312 313 314 314 315 314 311 309 310 311 311 311 311 319 324 324 325 327 327 328 329 329 328 326 325 324 324 326 326 326 327 328 325 325 324 324 323 321 323 320 317 317 317 316 317 318
307 310 311 313 313 311 312 312 309 309 309 310 311 311 312 312 313 323 323 323 324 325 326 327 327 325 325 325 324 324 325 326 326 326 326 325 325 324 324 321 320 318 318 316 315 316 317 316 317
305 305 308 309 310 309 309 310 311 311 311 314 313 312 312 311 313 320 324 322 324 324 323 326 324 324 325 325 325 325 324 325 325 326 326 326 325 322 321 322 322 317 315 314 314 316 317 316 316
305 305 305 305 307 307 307 306 307 311 315 313 314 313 314 310 311 318 324 324 324 322 323 323 322 324 325 324 323 322 322 323 325 325 326 323 322 321 321 321 318 314 313 313 314 315 317 317 317
305 306 307 306 306 308 306 307 307 308 311 316 319 318 320 318 311 318 323 324 322 321 321 321 321 323 324 322 322 321 320 324 324 325 324 320 319 318 319 318 314 314 314 313 313 315 317 317 317
308 308 312 313 310 312 308 309 309 311 313 320 320 320 318 323 313 321 323 322 322 321 321 320 321 322 322 322 321 321 322 323 324 324 323 322 321 320 317 316 315 315 315 314 313 314 316 317 317
309 311 314 316 318 315 313 312 314 312 317 319 320 319 319 318 321 321 323 321 322 321 320 321 321 321 321 321 320 321 322 324 324 323 323 322 322 321 318 316 315 315 318 319 317 316 316 316 316
307 309 309 310 315 316 314 316 315 318 320 320 320 320 319 320 319 321 323 321 322 321 320 320 320 320 319 321 320 321 322 323 324 324 322 322 322 322 322 322 318 312 310 317 319 318 317 316 316
307 308 311 310 314 315 313 318 317 322 322 321 321 320 319 319 319 322 322 320 321 321 321 320 319 319 319 319 319 320 321 322 323 323 322 321 322 322 322 320 318 317 316 315 319 320 319 317 317
305 307 309 310 311 314 315 313 312 314 320 321 322 320 319 318 319 324 323 321 320 320 320 320 320 319 320 320 320 320 320 320 321 322 322 321 322 322 321 321 320 319 317 317 318 319 318 318 317
310 308 308 312 313 313 313 312 317 319 319 319 320 322 320 317 317 321 323 322 321 320 321 320 320 320 320 322 320 320 320 320 320 321 321 321 321 321 321 320 320 320 320 320 320 319 319 318 318

GFSSGP_925_thetae_114.txt.gz
Theta_e
318 317 316 319 321 320 320 322 323 323 323 323 324 327 326 325 325 324 330 339 335 337 340 331 334 336 340 339 338 337 338 342 344 342 340 339 342 343 341 342 342 341 342 342 341 340 342 339 337
322 316 317 321 319 319 320 322 323 324 323 322 323 323 324 324 324 328 335 337 334 337 340 342 335 336 338 338 337 337 338 342 345 342 341 339 343 342 341 340 339 340 339 341 341 341 341 337 337
318 316 320 318 319 319 319 322 324 323 322 322 323 323 323 324 326 327 328 335 335 337 338 343 334 335 337 338 337 337 345 345 345 343 341 339 341 340 337 337 339 339 339 339 340 341 339 337 337
315 317 318 318 319 319 319 322 324 323 322 322 323 323 322 325 328 330 330 335 336 337 338 341 332 333 339 339 337 338 346 345 344 342 340 340 339 337 336 337 339 339 338 337 338 340 338 337 336
317 319 318 317 317 318 320 323 323 322 322 322 322 323 323 326 330 333 332 336 337 339 340 335 332 335 340 339 337 339 345 346 342 340 339 338 337 329 332 332 335 337 336 337 337 338 337 336 336
317 318 317 317 317 318 318 319 320 320 321 321 321 322 323 327 330 334 335 338 340 342 343 343 335 337 340 340 338 339 340 341 340 338 339 338 334 324 325 330 334 334 335 337 336 336 336 335 335
317 318 316 317 317 318 318 318 319 321 321 321 321 323 324 328 332 337 339 341 343 344 343 343 343 341 340 340 339 338 338 337 339 339 339 338 333 332 331 333 332 334 334 336 335 335 334 334 334
318 319 318 317 317 317 317 318 319 321 321 319 321 323 325 327 332 336 340 341 343 344 343 343 344 343 344 342 340 339 336 336 339 339 338 336 333 329 335 333 332 330 330 333 332 334 332 333 334
316 317 317 317 317 317 317 317 319 320 320 319 320 321 322 324 330 333 339 342 342 343 343 343 344 343 344 345 342 339 339 338 336 338 337 335 334 336 334 333 331 328 330 332 332 332 331 333 333
316 317 317 317 316 316 316 317 318 319 320 320 320 320 320 323 326 329 334 339 342 342 343 342 343 343 345 343 343 343 342 341 339 338 337 336 336 334 332 329 326 329 331 330 328 330 331 332 332
317 318 319 316 315 315 316 316 317 317 318 319 320 320 320 321 323 327 328 332 336 340 342 342 343 343 344 342 341 343 342 341 340 339 337 335 334 332 329 330 330 331 332 333 330 330 332 332 331
317 317 317 317 316 316 316 317 317 317 317 318 319 319 320 321 322 324 325 327 332 336 341 342 342 343 341 341 341 341 339 339 338 337 336 334 333 332 331 331 331 331 330 333 333 331 331 331 330
317 317 317 316 317 317 316 317 317 318 318 318 318 319 320 321 321 322 324 326 329 334 337 340 341 342 342 342 340 339 338 338 338 337 335 334 333 332 331 331 330 331 329 329 331 331 331 330 329
316 316 317 317 317 317 317 317 317 318 318 318 318 319 319 321 321 321 322 327 329 332 335 338 340 340 340 340 339 337 337 336 337 336 334 334 332 331 331 330 331 329 329 330 330 329 329 329 328
314 314 316 316 316 317 317 319 320 320 320 319 319 320 321 321 321 321 321 324 327 329 333 336 339 339 339 337 337 337 337 336 334 334 333 333 332 330 331 331 330 329 331 330 328 327 327 327 327
314 315 317 318 317 317 317 321 321 320 321 321 321 321 321 321 321 321 321 322 322 323 328 334 337 339 337 336 336 335 335 334 333 332 332 331 331 330 330 330 330 331 329 328 326 326 327 326 326
312 312 313 315 317 318 319 320 321 320 320 321 321 321 321 321 321 320 320 320 321 322 325 333 336 338 337 337 335 334 334 331 331 331 331 330 330 330 330 329 330 329 328 328 326 326 325 325 325
311 312 312 312 313 316 318 319 319 320 320 320 321 321 321 321 321 321 320 320 324 324 327 332 335 337 336 335 333 333 333 330 330 330 329 329 329 329 329 328 328 329 327 327 325 325 325 325 325
309 310 311 311 313 316 317 318 318 319 319 320 320 320 321 321 321 321 320 321 328 328 329 332 334 336 332 333 332 332 332 330 330 329 327 328 328 328 328 328 327 327 327 327 325 325 325 325 325
308 309 310 310 310 312 313 313 314 315 317 319 319 319 319 319 320 320 319 323 329 330 331 332 333 336 332 332 334 332 330 328 328 328 327 327 327 327 327 327 328 327 326 327 324 325 325 325 324
307 308 308 309 310 310 311 313 313 314 315 315 316 316 317 317 318 320 321 322 327 330 332 332 333 335 334 334 332 332 331 329 329 330 328 327 327 327 326 326 327 326 325 325 323 324 324 325 324
308 308 308 309 309 311 312 313 313 314 314 314 315 317 318 320 323 324 324 323 325 330 331 331 333 333 333 334 332 331 330 329 329 329 329 327 328 327 326 326 325 324 324 323 321 323 324 324 324
308 308 309 310 310 311 312 312 312 312 312 316 316 319 323 326 327 329 327 324 323 329 330 329 331 332 333 333 332 330 328 328 328 329 329 329 328 326 326 325 325 324 323 322 321 322 323 324 324
308 309 309 310 310 312 311 312 312 313 315 316 323 325 326 326 328 328 328 324 325 330 328 328 330 330 329 330 330 328 327 327 328 328 328 328 327 326 326 325 324 323 322 321 321 321 322 323 324
307 309 308 308 310 310 310 311 312 313 317 320 325 326 326 327 329 330 329 329 328 330 325 327 330 328 325 327 327 327 327 326 325 325 326 326 325 324 323 324 322 322 320 319 320 320 322 322 323
307 308 308 307 309 310 312 312 313 314 316 324 325 325 325 328 330 330 330 330 329 326 325 325 328 325 325 327 326 326 326 325 325 327 326 325 323 323 323 320 319 320 320 320 319 319 321 322 323
306 309 308 307 309 312 312 313 313 316 315 324 325 325 326 329 331 331 330 329 328 325 323 324 325 325 325 327 327 326 326 325 325 327 326 323 322 321 318 316 317 317 318 318 318 318 320 321 322
306 307 307 307 308 308 309 312 315 317 321 325 326 325 326 329 329 329 328 327 325 324 323 323 323 325 324 326 325 325 324 325 326 326 323 323 321 319 316 316 317 317 316 316 317 318 319 320 321
307 310 308 307 309 309 311 313 316 321 324 326 326 324 326 327 328 327 324 324 324 322 322 322 322 324 324 323 324 323 323 324 325 326 324 323 321 318 317 317 317 317 316 316 316 317 317 318 319
307 309 310 310 310 310 312 313 321 321 324 326 324 323 323 324 324 324 323 318 316 322 322 321 321 322 323 323 322 322 323 324 324 322 322 322 321 318 317 318 317 317 316 315 316 317 317 318 318

GFSSGP_925_thetae_120.txt.gz
Theta_e
315 316 319 321 320 321 321 321 324 324 325 326 326 326 329 328 330 333 334 336 336 324 323 325 327 329 334 336 338 338 338 339 341 342 341 337 337 338 337 341 342 341 343 344 342 340 340 337 337
319 321 321 319 320 321 321 323 322 324 326 326 326 329 327 327 327 331 334 334 337 333 325 326 325 327 333 335 337 337 338 338 341 343 341 339 337 337 337 338 340 340 343 343 342 342 341 337 338
319 324 320 319 319 321 323 322 323 326 326 326 326 326 327 325 325 330 332 332 335 340 342 327 324 326 330 333 336 337 338 340 345 345 342 340 338 337 337 335 336 336 337 342 341 341 338 338 338
321 324 319 318 320 321 320 322 323 325 325 325 325 325 326 327 326 332 330 330 333 337 341 337 324 325 328 332 335 337 339 347 345 344 343 340 338 336 334 328 328 330 331 336 339 340 337 337 337
321 319 318 318 319 319 321 321 323 324 325 325 325 326 326 327 327 330 329 329 332 337 340 339 325 324 327 332 335 337 340 345 344 344 343 340 337 335 330 327 328 331 329 334 334 336 336 337 337
321 319 319 320 320 321 322 322 322 323 325 324 324 325 326 326 328 328 329 331 334 338 342 339 327 325 327 331 334 337 341 343 344 344 342 339 337 328 327 326 327 331 327 333 334 337 336 337 336
320 320 319 319 320 320 321 323 321 321 323 323 324 324 327 327 331 329 332 334 338 343 346 339 330 328 329 332 334 336 339 342 344 344 343 339 336 330 331 332 329 327 326 335 336 337 337 337 335
320 320 320 321 320 320 322 322 322 320 320 323 323 324 326 335 337 334 333 339 340 344 347 341 340 333 331 333 335 336 338 340 342 343 342 340 334 331 328 334 332 330 333 335 335 332 336 336 334
320 322 321 321 321 321 322 322 321 321 320 320 323 324 329 331 331 333 336 338 342 346 346 346 345 342 339 338 335 336 337 338 341 341 341 340 337 336 326 328 326 332 332 334 332 330 331 334 334
320 322 321 321 322 323 322 321 320 320 319 320 322 324 324 326 329 333 337 341 344 347 346 346 345 345 345 345 342 337 337 338 338 341 341 340 338 336 333 334 334 332 330 334 329 329 330 331 333
320 322 321 321 322 323 322 322 320 319 319 320 321 323 322 324 326 330 334 339 342 344 347 346 345 346 346 343 344 340 342 340 339 341 341 340 338 336 335 336 335 331 330 330 328 329 328 330 331
319 320 321 321 321 322 322 322 321 319 319 320 321 322 323 323 324 325 327 328 338 341 345 345 346 347 346 344 343 343 341 341 342 339 340 339 338 337 335 335 334 330 330 327 329 327 327 328 329
317 317 318 319 320 321 322 321 321 321 321 321 321 320 320 323 323 323 324 325 326 338 343 344 345 346 347 345 343 343 341 342 342 341 339 340 338 337 336 334 334 331 332 332 329 327 327 329 330
313 314 316 318 319 320 321 321 321 321 321 321 322 321 320 319 321 321 323 324 324 326 343 344 344 346 347 345 344 342 344 341 342 342 341 340 338 337 335 333 332 333 330 331 329 328 329 329 331
313 314 315 315 317 318 319 319 321 321 321 322 322 321 321 320 320 320 321 323 323 324 327 344 344 345 347 346 344 342 344 342 342 342 342 339 337 336 334 333 332 331 331 331 331 329 329 330 331
309 309 311 312 315 317 318 319 320 320 320 321 323 323 322 321 321 320 320 322 323 324 327 338 345 344 346 346 343 342 342 341 341 339 341 339 338 336 335 334 333 332 331 331 328 328 326 327 329
307 308 308 309 312 312 317 319 319 320 320 321 323 324 323 323 323 322 321 321 321 323 323 332 338 343 345 347 343 341 341 341 340 338 338 340 338 336 335 334 333 332 332 331 328 326 326 328 327
307 308 310 310 310 313 314 317 319 319 319 321 322 323 324 324 324 324 323 322 322 322 322 331 335 341 345 346 344 343 342 339 340 339 337 338 338 336 334 334 332 332 332 331 327 327 328 328 326
309 309 308 309 310 311 313 314 316 317 318 319 321 322 323 324 324 324 324 323 323 323 325 325 337 339 344 345 344 342 341 339 339 338 336 335 335 335 334 333 332 332 332 330 328 327 328 326 326
307 308 309 309 309 309 310 310 313 314 316 318 320 320 322 322 323 325 325 325 325 324 326 327 327 339 342 344 344 341 341 337 335 334 334 333 334 334 333 333 332 331 332 330 329 328 327 325 325
307 307 308 309 309 309 309 310 311 312 313 315 316 316 316 321 323 323 324 325 325 326 328 329 330 332 340 343 342 340 338 336 334 335 333 332 332 332 331 333 331 331 331 330 328 328 327 325 325
307 307 307 307 308 307 309 309 311 312 313 314 315 315 316 317 319 322 323 323 324 326 327 331 330 332 338 342 339 338 336 337 335 334 332 332 330 329 331 331 330 329 329 328 328 328 327 324 324
307 308 307 307 307 309 308 307 309 311 312 313 315 316 317 317 318 319 320 321 321 323 328 330 331 332 337 339 337 336 337 336 334 333 331 331 331 329 328 328 328 329 328 328 328 327 326 324 323
308 308 306 308 308 308 310 309 309 310 312 313 316 318 318 320 325 324 325 325 326 331 332 333 333 333 339 337 337 336 337 336 334 334 333 332 329 330 329 327 326 328 327 327 326 327 326 324 323
307 309 307 309 310 309 310 310 311 312 312 313 318 324 326 327 328 328 328 330 329 334 335 336 335 335 338 337 336 337 337 338 335 333 333 332 331 331 329 328 326 328 327 327 327 327 326 325 324
312 310 309 309 311 309 309 310 311 312 312 313 323 326 327 328 330 331 332 332 332 334 334 330 330 332 337 337 336 337 334 337 334 333 331 331 329 329 331 329 328 327 325 326 326 326 326 326 325
313 309 307 309 310 311 310 311 312 312 313 313 325 326 326 329 330 332 331 331 329 329 329 328 328 329 332 333 335 335 335 334 332 331 330 330 330 330 329 327 326 326 326 326 325 325 325 325 325
312 311 310 308 308 309 309 312 312 311 312 315 325 326 330 331 331 330 328 327 326 325 326 325 326 329 330 330 332 333 332 332 330 329 329 328 329 328 326 324 324 324 324 325 324 324 323 324 325
314 316 312 309 308 309 312 313 313 315 314 321 324 328 330 330 329 326 325 322 321 322 322 324 324 326 327 327 329 331 330 330 329 328 328 327 327 326 323 323 321 321 322 323 323 322 323 323 324
309 311 313 309 308 310 311 312 313 318 319 321 322 326 329 329 326 323 322 320 316 315 315 315 322 324 326 326 327 330 330 328 327 326 328 327 325 323 321 321 320 318 318 319 320 321 322 323 323

GFSSGP_925_thetae_123.txt.gz
Theta_e
310 314 315 318 316 312 315 316 317 318 319 323 323 325 325 326 332 334 336 323 321 321 324 325 324 327 331 334 336 338 339 340 341 341 340 337 337 338 338 341 340 340 339 340 340 339 338 338 338
314 319 319 315 313 313 313 317 318 319 323 324 324 326 325 329 331 336 338 324 321 322 323 323 324 325 328 333 335 337 337 338 340 341 341 338 339 338 337 337 337 336 337 339 340 341 336 336 337
318 321 320 313 311 314 314 317 318 321 323 324 324 323 326 324 331 332 336 330 321 323 323 323 323 326 329 331 334 336 337 338 340 342 341 339 338 337 335 336 331 334 334 338 339 341 337 337 337
317 319 317 312 312 313 315 316 316 321 323 324 324 324 324 326 331 334 335 334 329 326 325 323 323 325 328 332 334 335 337 343 343 343 341 339 337 335 335 332 328 333 334 335 337 337 337 337 337
318 316 313 312 312 313 315 316 317 318 323 324 323 324 324 326 331 332 336 335 335 333 336 324 323 325 328 332 334 336 336 341 342 343 341 339 337 335 335 332 330 329 327 332 335 336 337 337 336
317 313 314 312 313 315 316 317 318 320 323 323 323 323 324 329 329 329 333 335 335 336 340 333 324 325 328 332 335 337 339 342 342 343 341 339 337 335 333 330 329 328 327 332 334 336 336 336 336
321 315 314 313 314 316 317 317 318 319 322 322 321 321 322 328 328 328 331 334 335 336 338 337 325 325 328 333 336 339 338 339 342 342 340 339 336 328 328 327 328 329 329 331 333 335 334 335 335
315 314 316 316 317 317 318 319 318 317 318 318 320 321 323 336 330 331 337 337 337 340 339 337 326 325 330 334 337 339 340 337 340 341 340 338 333 329 328 327 327 329 329 333 334 335 333 334 333
314 316 318 316 317 318 319 319 320 317 318 318 318 323 331 335 334 335 342 344 343 343 341 340 326 327 331 334 336 338 339 340 340 340 341 339 334 332 329 332 330 328 327 332 331 332 330 332 332
313 315 317 317 318 318 320 319 320 319 316 317 318 324 330 332 333 332 337 343 345 346 344 342 331 330 333 334 335 337 338 339 341 340 340 339 335 330 330 332 332 330 332 332 332 329 331 331 332
314 316 316 318 318 319 320 319 319 318 314 317 317 321 323 325 327 330 335 343 345 345 346 345 343 339 337 339 338 336 337 338 340 340 340 339 336 336 326 333 330 331 332 333 332 330 330 331 331
312 313 316 317 317 318 319 319 319 319 318 316 317 318 318 319 324 326 333 338 344 346 345 345 344 344 342 342 342 337 336 337 338 339 339 339 338 337 333 335 333 332 330 331 329 329 329 330 330
309 310 313 314 314 315 316 317 318 318 318 317 319 318 316 316 318 322 329 336 340 345 346 345 345 345 345 343 343 340 338 339 338 341 340 338 338 336 334 335 334 331 329 328 326 327 328 330 329
308 309 309 310 311 312 314 315 315 317 317 318 319 318 317 316 316 319 321 322 332 341 345 345 345 344 345 345 343 342 341 340 341 339 341 339 338 337 336 335 334 331 328 326 326 327 326 328 328
307 306 307 308 311 311 312 313 315 316 317 319 319 319 319 316 316 314 319 321 321 331 343 345 345 345 346 345 345 341 343 340 342 342 339 340 339 337 336 334 333 332 327 327 328 326 327 327 328
306 304 305 307 308 309 311 314 315 316 317 317 318 319 319 319 318 318 318 319 319 321 341 343 344 345 345 346 345 342 341 342 341 342 342 340 339 337 336 334 333 333 331 329 330 329 328 327 327
304 303 303 305 307 307 308 308 309 315 316 317 318 319 318 318 318 318 319 319 319 320 329 341 343 345 345 346 345 344 342 343 342 342 342 341 339 337 336 334 332 331 331 331 330 330 328 327 328
304 303 305 305 306 307 307 308 309 311 313 317 317 318 318 318 319 319 319 319 319 319 321 337 343 344 346 346 345 343 342 342 341 340 339 341 339 337 335 334 333 332 331 331 331 329 328 327 327
304 305 305 306 306 306 306 307 307 309 311 311 314 316 317 318 318 320 320 320 319 319 320 339 343 344 346 345 343 342 341 340 340 340 339 338 340 339 336 335 334 332 331 331 330 328 326 326 326
305 305 305 305 306 306 306 306 306 307 309 310 310 311 314 316 318 319 319 321 321 321 322 331 341 344 345 345 344 342 340 341 340 340 337 336 337 337 336 334 334 332 331 331 330 328 327 327 326
306 306 305 305 305 305 305 305 306 307 309 309 310 310 311 312 312 315 319 321 323 323 326 332 338 342 344 345 343 342 340 339 338 339 336 335 334 334 336 334 333 332 332 330 330 327 327 326 326
303 305 306 306 307 305 305 304 305 307 309 309 309 310 311 311 312 313 317 317 321 324 327 329 334 339 343 344 343 341 339 336 336 335 335 333 333 333 333 333 333 332 332 330 329 328 326 326 325
306 306 306 307 307 306 305 304 304 306 308 308 309 309 311 312 312 311 314 316 320 321 328 328 329 337 340 343 343 340 338 337 336 335 334 333 332 331 332 331 332 331 331 330 329 328 327 326 325
304 307 307 307 307 307 305 306 304 306 307 308 309 310 312 312 313 312 316 319 327 324 329 330 329 331 339 341 341 339 338 336 335 334 333 332 331 330 329 329 331 329 329 329 328 328 327 326 324
305 309 311 309 308 307 306 307 306 307 308 308 309 311 323 320 319 323 327 328 332 331 332 333 333 337 339 339 339 338 338 336 335 333 333 331 331 331 328 327 328 328 328 328 327 326 326 326 324
305 307 310 314 309 307 305 307 306 308 309 310 310 324 324 327 331 330 329 328 328 330 330 331 331 330 336 336 337 337 337 335 336 334 333 332 331 330 328 327 327 326 326 326 326 326 327 326 326
310 313 311 315 311 310 307 307 307 306 309 310 311 325 328 329 329 328 326 324 324 324 326 327 326 328 331 336 336 336 336 336 337 335 332 333 332 330 328 328 328 327 325 325 325 326 326 326 325
308 311 315 311 309 308 308 307 307 308 310 309 316 325 332 330 326 323 323 322 321 321 324 324 325 327 329 331 333 335 335 335 333 332 331 331 331 329 328 329 329 328 327 326 326 325 326 326 326
308 310 312 314 311 308 308 307 307 310 311 316 321 331 330 326 325 323 320 318 317 317 319 321 323 325 327 328 328 332 332 332 331 330 329 328 329 329 329 327 326 325 325 325 325 325 325 325 325
307 307 310 314 316 311 308 306 307 308 319 322 326 330 326 324 322 319 317 314 313 312 312 314 316 320 324 326 327 328 330 330 330 328 328 328 327 327 326 324 322 321 321 321 323 324 324 324 324

GFSSGP_925_thetae_126.txt.gz
Theta_e
310 312 315 316 314 310 313 313 314 315 317 319 321 323 324 326 332 335 335 328 323 324 328 329 329 329 330 333 335 337 338 339 340 340 337 338 338 339 341 340 339 337 338 338 339 338 338 339 338
312 316 318 311 312 311 311 313 316 315 317 321 322 324 325 332 335 337 334 327 325 322 325 327 327 326 329 332 334 336 337 339 340 340 338 337 337 337 338 338 336 336 337 338 338 337 336 337 337
318 320 318 313 308 311 311 313 316 314 315 321 322 323 325 330 335 330 327 325 325 322 325 326 324 325 327 331 333 335 336 338 340 340 338 337 336 335 336 336 335 336 335 336 337 336 335 335 337
316 317 316 312 311 310 312 313 313 314 315 318 322 323 323 330 334 334 324 325 322 323 326 324 323 324 326 330 332 334 336 337 339 340 339 337 336 335 335 335 334 334 335 335 336 336 335 337 337
317 312 317 311 311 310 312 313 313 315 315 321 321 323 325 329 333 327 324 323 321 325 325 323 323 324 326 328 331 333 335 338 340 340 339 337 336 335 335 335 330 332 332 334 336 336 336 336 336
318 311 313 313 313 312 313 314 315 317 317 319 321 322 323 329 336 333 324 321 322 324 324 324 323 324 325 328 331 333 334 340 341 341 339 337 336 335 335 333 331 331 328 330 334 335 334 336 335
321 317 317 313 316 316 316 315 317 316 317 318 321 321 322 326 335 336 331 328 328 325 324 323 324 325 327 328 330 333 333 339 341 341 339 338 336 335 332 330 328 328 327 331 334 334 334 335 334
315 314 319 316 318 316 316 316 315 316 318 314 317 320 326 326 328 336 338 336 335 334 332 326 325 327 331 333 331 333 334 338 341 341 339 338 335 329 328 330 328 328 329 332 333 334 333 334 334
311 312 314 315 316 317 317 317 317 317 316 317 314 320 324 330 332 341 343 343 341 340 337 333 327 329 332 334 336 335 335 337 340 340 339 337 332 328 328 327 327 328 329 332 332 333 334 333 333
310 311 314 314 315 317 318 318 318 317 317 319 316 328 331 331 338 341 342 343 342 340 338 335 329 328 332 334 336 337 338 338 340 339 339 336 329 331 329 328 327 327 327 332 332 335 334 333 333
310 313 313 314 315 316 317 317 317 317 317 318 316 316 322 328 334 338 341 343 343 340 340 338 331 328 331 334 336 338 338 339 340 339 339 337 331 331 330 331 330 328 328 332 331 332 331 332 331
307 309 311 312 313 314 314 315 315 315 316 317 316 317 317 318 323 334 338 340 342 342 340 341 338 329 332 332 335 336 337 338 339 340 339 338 333 330 332 331 331 329 330 332 331 331 331 332 331
304 307 306 307 307 308 309 310 313 313 313 315 316 316 314 315 315 321 330 339 340 342 342 343 342 336 333 334 335 334 336 337 337 339 339 338 336 333 330 330 331 327 331 331 332 329 330 331 332
304 305 304 304 305 306 309 310 310 312 313 315 316 316 314 314 313 315 318 331 341 341 342 343 344 342 339 338 338 337 334 336 337 337 338 338 337 336 335 332 334 330 332 330 331 328 329 329 330
306 304 304 303 304 307 307 309 310 311 312 314 316 316 316 315 314 312 317 321 336 342 341 343 344 344 343 342 340 340 337 335 336 337 338 338 338 336 333 333 334 333 331 328 328 326 328 328 329
307 304 301 302 304 304 307 306 308 308 311 313 315 315 316 316 316 317 318 317 321 337 342 342 344 344 344 344 342 341 339 337 337 338 339 339 338 337 334 335 334 333 331 329 325 326 328 327 328
302 303 302 304 304 303 304 304 305 305 308 311 314 313 315 316 316 317 318 318 318 319 336 342 343 344 344 344 343 343 341 339 339 341 340 339 339 338 336 336 334 333 331 329 325 327 326 328 327
303 303 303 303 303 303 304 304 305 305 305 306 308 309 311 315 316 318 318 318 319 318 320 334 342 344 344 344 343 342 342 342 341 342 342 340 339 338 337 336 334 333 331 329 329 329 328 328 326
303 303 304 304 305 303 303 304 304 304 305 304 306 308 310 312 316 317 318 318 318 318 317 331 341 343 344 343 342 341 341 341 341 341 342 341 340 339 337 336 334 333 333 331 330 330 329 327 327
302 302 302 303 304 305 304 304 305 304 304 305 305 306 309 308 310 311 316 317 318 317 316 327 339 341 344 343 343 342 341 341 342 341 341 341 340 339 337 335 334 332 332 331 331 329 327 327 327
302 302 302 304 305 305 304 304 304 305 304 305 306 306 308 308 307 310 311 315 318 317 316 320 336 341 344 343 342 342 340 339 339 340 340 339 337 338 338 335 334 334 332 331 330 329 327 326 326
302 304 304 304 304 305 304 307 305 305 305 305 306 306 307 307 309 310 311 313 318 319 317 320 334 341 343 343 341 341 340 338 338 338 339 339 336 335 337 336 335 333 332 330 329 329 327 326 325
303 302 304 305 307 306 305 305 305 305 305 305 305 307 306 308 307 309 310 311 316 319 323 327 336 341 343 343 341 340 339 339 338 336 337 337 335 335 334 334 335 333 332 331 329 328 327 326 325
301 304 304 305 307 309 307 306 305 304 305 305 306 307 306 306 308 309 309 311 317 317 323 329 337 341 341 342 341 340 339 337 335 335 335 334 334 334 333 333 333 332 331 331 330 328 328 326 326
302 305 309 307 307 308 306 306 305 305 305 306 307 307 306 306 313 315 320 327 326 327 328 329 334 337 340 341 340 340 338 336 336 335 334 333 332 332 332 332 332 331 330 330 330 329 328 327 326
303 308 312 313 312 310 310 308 305 304 305 306 307 307 320 327 326 325 325 325 325 325 325 329 334 336 338 339 338 338 337 337 336 335 333 333 332 331 331 331 330 328 329 329 329 329 328 327 326
308 308 307 313 314 313 310 305 305 305 306 307 308 308 329 327 324 323 322 321 321 322 322 325 327 331 335 336 336 335 336 336 335 334 333 332 331 331 331 330 328 327 326 327 328 328 327 327 326
307 305 310 310 315 314 306 305 305 306 307 309 314 316 322 324 323 321 319 318 317 317 319 323 325 327 329 331 334 335 335 334 335 335 334 332 332 331 331 329 327 327 327 326 326 327 327 326 326
302 307 307 310 311 316 313 307 314 317 322 326 327 322 319 323 321 319 317 315 314 314 315 316 319 322 325 327 329 332 333 335 335 335 334 333 332 332 330 329 327 327 327 327 326 325 325 326 326
302 303 306 312 310 312 314 311 312 313 320 318 319 323 321 318 317 316 314 313 312 311 311 311 313 316 320 324 326 328 330 330 330 330 329 330 331 331 330 328 328 327 327 326 326 325 325 325 325

GFSSGP_925_thetae_129.txt.gz
Theta_e
310 312 315 315 312 308 312 311 312 314 315 315 316 321 323 327 332 332 334 334 334 333 338 340 338 337 336 336 337 338 339 339 338 337 335 336 339 342 342 340 339 338 338 337 338 338 339 338 338
312 317 316 308 309 309 307 311 315 313 316 315 318 323 325 333 334 335 332 330 327 332 336 336 332 332 332 332 334 337 338 339 339 337 336 336 337 338 340 339 337 337 337 338 338 337 338 338 338
317 320 317 312 307 309 309 311 313 312 312 313 317 320 328 334 333 332 329 327 329 332 332 328 327 329 328 329 331 335 337 338 339 337 336 336 335 337 338 337 336 336 336 337 337 336 336 336 337
315 315 313 315 313 310 310 310 310 312 314 314 317 320 323 331 331 331 327 326 328 328 326 324 327 328 326 327 329 333 335 337 339 338 337 336 335 336 336 336 336 336 337 337 335 336 336 336 336
316 311 318 313 313 310 310 310 312 314 313 315 316 319 324 331 331 328 323 324 324 325 324 325 328 325 325 326 328 332 334 337 339 339 337 336 335 335 335 335 335 336 336 337 336 335 336 336 336
314 310 316 315 315 312 312 312 314 316 315 317 317 318 325 328 333 328 323 323 324 323 324 327 328 325 324 325 328 331 333 335 338 339 337 336 336 335 335 334 332 334 335 335 334 335 336 336 337
317 315 316 314 316 317 317 315 316 315 315 317 313 317 320 330 333 327 329 330 328 325 328 330 328 326 325 325 326 329 332 333 337 339 338 336 335 334 334 334 331 331 333 335 333 336 336 336 337
316 315 319 317 318 318 315 315 315 315 315 315 315 316 322 323 331 331 331 333 330 328 332 332 329 328 327 328 326 328 330 334 338 339 338 337 335 335 333 330 330 330 329 334 333 334 335 336 336
309 311 313 316 316 316 316 316 316 316 315 316 315 317 322 327 333 336 337 338 334 333 334 333 330 329 328 329 329 330 331 334 339 339 338 337 335 333 331 329 327 327 329 333 333 333 334 334 335
309 309 313 312 314 315 316 314 315 316 316 316 316 317 318 330 335 339 339 339 338 335 333 331 329 329 331 332 333 333 334 336 339 339 338 337 333 328 329 329 327 328 329 332 332 333 333 334 333
309 310 311 312 311 312 313 313 314 315 315 315 315 315 315 324 330 334 339 340 338 336 334 331 329 328 330 334 336 337 336 336 339 338 338 337 333 328 328 327 327 330 331 332 332 333 334 334 333
305 305 306 308 306 305 307 311 310 309 311 313 313 314 314 315 321 327 331 337 340 339 336 334 330 329 331 333 338 338 337 337 337 337 338 336 330 330 328 327 327 327 326 332 331 332 333 333 333
303 304 304 304 303 303 304 305 307 308 308 309 313 314 313 313 313 316 324 331 336 339 339 337 334 331 332 333 337 341 342 341 339 336 337 336 332 330 333 330 330 329 327 330 330 331 332 332 332
305 305 305 302 302 301 304 306 307 306 307 309 312 314 313 313 313 314 315 318 329 334 340 339 336 332 331 332 333 336 341 341 343 337 337 337 335 330 333 330 331 330 328 331 329 331 330 331 332
306 305 302 302 302 302 302 303 303 303 307 307 308 310 313 312 313 312 316 317 319 324 335 341 340 336 332 331 332 333 335 340 341 340 337 336 336 333 333 329 330 330 327 330 330 331 329 330 331
303 302 300 302 302 302 302 303 304 303 303 304 306 306 307 312 312 314 316 316 317 319 337 340 342 340 337 333 332 333 332 334 337 339 337 337 337 336 334 332 329 333 328 331 330 330 328 329 330
299 301 302 302 302 302 303 303 304 304 303 304 304 304 306 307 310 312 315 316 317 318 330 340 342 342 341 339 337 336 336 334 335 335 336 335 336 336 335 335 332 333 332 331 330 329 326 328 329
302 301 301 301 301 302 301 302 303 303 303 303 303 303 303 304 306 310 314 316 316 317 319 334 341 342 342 342 340 340 339 337 335 335 335 335 336 337 337 335 332 334 333 332 330 327 327 328 328
301 300 300 301 300 301 302 303 303 303 303 303 303 304 304 304 305 307 310 315 316 315 316 325 339 341 342 342 340 339 339 339 337 337 336 336 338 338 337 336 334 334 333 332 330 327 327 327 327
301 301 301 301 302 304 303 303 303 303 303 303 303 303 303 304 304 306 309 309 312 315 315 317 332 340 342 342 341 340 340 339 338 338 339 339 339 338 338 337 336 334 333 332 330 329 328 327 327
300 300 301 303 302 302 302 303 303 303 303 303 304 304 304 304 304 305 306 308 310 312 315 316 326 337 341 342 341 341 340 339 338 338 339 340 340 339 338 338 336 335 333 331 331 329 328 327 327
301 301 302 301 302 304 303 305 304 304 304 304 304 303 303 304 304 305 306 307 309 311 312 314 323 335 340 342 341 340 339 338 339 338 338 338 340 339 339 338 336 333 333 332 332 331 329 327 326
300 301 301 302 303 303 304 305 305 305 305 304 304 304 303 303 303 305 306 308 309 311 313 316 318 334 339 342 340 339 339 339 338 339 338 337 339 340 339 336 336 334 332 331 331 330 328 327 327
301 301 303 304 304 306 305 306 307 306 305 305 305 304 304 304 303 304 306 308 308 312 314 318 320 334 339 341 340 339 339 338 337 337 337 337 336 336 337 335 335 335 334 332 331 331 329 327 327
300 302 308 309 307 307 306 310 308 307 306 305 305 304 304 304 302 303 305 306 320 322 323 324 333 338 341 341 340 339 339 337 337 336 334 335 335 334 334 335 334 334 334 332 331 330 328 327 326
301 307 308 310 308 308 308 310 307 306 312 312 310 304 314 322 322 323 324 323 323 323 326 331 335 338 341 341 340 339 337 337 337 335 335 334 334 334 334 334 334 333 333 332 331 330 329 328 327
302 305 304 309 309 311 307 307 304 309 317 318 318 319 324 324 322 322 320 321 322 322 322 326 331 335 337 340 338 338 336 336 336 336 336 335 335 334 333 333 332 332 332 332 330 329 329 328 327
304 302 306 310 311 309 309 307 308 310 317 316 318 317 315 319 321 319 318 317 316 317 318 320 322 326 330 333 335 336 335 336 336 335 335 335 334 333 331 331 331 331 331 329 328 328 328 328 327
300 301 304 307 308 312 312 307 308 315 317 317 317 315 319 319 320 319 316 313 312 313 313 313 316 319 324 327 331 333 334 334 334 334 334 334 333 331 331 331 330 330 329 327 326 326 326 327 327
301 302 303 309 308 308 311 310 313 316 316 317 315 315 318 317 315 313 311 309 308 308 308 308 310 313 318 324 326 329 330 331 334 333 333 333 332 331 331 331 331 329 327 326 326 326 326 326 325

GFSSGP_925_thetae_132.txt.gz
Theta_e
310 312 315 312 309 306 308 309 311 312 314 314 312 316 324 328 333 334 335 336 330 338 340 340 339 339 340 340 340 339 338 337 335 336 340 342 342 342 340 340 338 338 339 338 339 339 339 339 339
313 317 315 306 306 305 304 309 313 312 312 312 312 317 320 326 332 334 336 335 330 335 339 339 339 338 338 338 338 339 338 338 336 335 336 340 342 342 341 339 338 338 338 338 339 338 338 338 338
318 319 314 307 304 306 306 309 310 310 311 311 313 315 321 330 332 333 331 334 330 333 335 336 337 337 336 336 336 337 338 338 337 335 335 337 339 340 340 338 338 338 338 338 337 337 338 338 337
315 314 310 314 312 309 308 309 310 311 313 313 314 317 315 324 331 333 329 333 328 330 332 333 333 333 332 334 335 336 337 337 337 336 336 337 338 339 339 337 337 337 337 338 337 337 337 337 337
314 311 315 315 315 311 309 310 311 313 314 314 315 316 317 323 329 331 328 328 326 330 332 331 328 328 331 334 333 334 336 337 337 337 336 336 337 338 337 336 336 337 337 337 336 336 336 336 336
311 309 315 316 314 312 311 312 314 315 314 314 315 316 316 322 324 332 334 328 328 330 330 328 326 326 330 332 331 332 334 335 337 337 336 336 335 336 336 335 336 336 335 335 334 335 336 336 336
313 313 315 313 314 317 316 314 315 315 314 315 314 315 314 318 324 329 333 334 330 332 332 330 329 329 330 329 329 331 332 334 336 337 336 336 335 335 335 333 334 336 335 333 334 336 336 335 335
313 314 318 317 317 317 315 314 314 315 315 314 315 316 316 317 327 330 329 333 333 332 330 330 331 334 333 330 329 330 331 332 335 336 336 336 335 334 334 333 331 334 334 333 335 336 336 336 336
307 311 314 316 316 317 314 315 314 315 314 314 315 315 316 325 334 333 332 332 334 334 331 330 332 334 333 331 331 331 330 331 334 336 337 336 335 334 333 332 331 331 333 333 334 335 336 336 336
307 310 313 312 314 314 314 311 311 313 312 313 313 314 315 327 335 337 337 335 335 334 336 334 336 337 335 334 334 334 333 333 336 337 337 336 335 334 333 328 329 328 331 333 332 333 336 336 335
307 309 309 309 309 304 307 307 309 310 311 311 310 311 311 315 328 334 337 338 337 335 333 337 338 338 337 336 336 335 334 336 337 337 336 336 335 332 331 329 327 329 333 333 333 334 335 335 334
306 304 304 303 304 302 303 305 307 306 305 308 309 308 309 311 312 326 333 336 338 338 336 333 337 337 339 337 337 336 335 336 338 337 336 336 335 329 328 329 327 329 331 332 333 333 334 334 333
303 303 303 303 302 300 301 301 303 303 304 304 306 308 310 310 311 314 319 331 335 337 338 336 333 336 339 338 338 337 337 337 338 337 336 336 335 328 328 327 327 329 330 332 332 333 333 333 333
304 304 303 302 301 300 301 302 303 303 301 303 304 304 305 307 309 312 314 315 324 332 336 336 337 333 335 337 336 335 337 337 341 339 336 336 335 329 330 328 327 328 327 328 330 331 333 333 332
305 304 301 300 300 300 301 301 301 301 302 303 303 303 303 303 305 308 312 314 316 318 324 336 336 335 334 335 335 334 333 336 340 338 335 336 335 329 330 330 329 328 328 327 330 329 331 331 331
301 299 300 301 300 301 300 302 302 302 302 302 303 303 303 303 303 304 306 310 313 315 318 328 335 337 335 333 334 333 334 334 338 337 339 336 335 333 330 332 330 330 329 328 330 329 330 330 331
298 300 300 300 299 299 300 300 301 301 302 302 302 302 302 303 303 304 304 306 308 312 315 318 332 337 337 335 334 333 333 336 337 337 340 336 335 335 332 331 331 330 330 329 328 330 329 329 330
301 300 300 300 299 299 298 299 300 302 302 302 302 302 302 302 302 303 304 304 306 308 312 315 326 337 338 337 335 334 334 335 335 335 338 339 336 335 334 332 333 329 331 329 330 330 329 328 329
301 300 299 299 298 299 299 301 301 301 301 301 301 302 302 302 303 303 303 304 305 306 310 313 329 337 339 338 337 335 334 334 335 335 337 338 339 336 335 334 334 332 331 332 330 330 328 327 328
299 299 299 299 300 301 300 300 300 301 301 302 302 302 302 302 303 303 303 304 305 306 309 312 324 337 340 340 339 338 336 335 335 335 335 337 338 337 335 335 335 334 331 332 331 330 327 326 327
299 299 299 300 300 299 300 300 301 303 303 304 305 304 303 303 303 303 303 303 304 305 307 309 313 332 339 340 340 339 338 338 336 335 336 337 336 335 335 336 335 334 332 331 331 330 328 326 326
299 300 300 300 300 300 300 302 303 303 304 305 308 308 305 304 303 303 303 303 303 305 306 308 310 317 335 340 340 339 339 338 337 336 336 336 337 335 336 337 336 335 333 331 330 331 328 326 326
299 300 300 300 300 301 302 302 303 304 306 306 311 312 310 305 303 303 302 303 304 305 305 307 310 313 328 339 339 339 339 338 338 337 337 335 336 336 338 337 337 336 335 333 332 330 329 328 327
300 300 300 303 302 305 304 304 304 305 306 309 315 315 315 315 303 302 303 303 303 305 306 310 313 313 327 338 340 339 338 338 337 338 337 335 334 336 338 338 337 336 335 333 332 332 331 329 328
298 302 304 305 304 304 303 305 306 307 306 314 315 315 313 316 314 310 309 304 300 307 311 314 314 317 325 337 340 339 338 338 337 338 337 334 335 336 336 337 335 335 335 333 332 331 330 329 328
303 304 301 301 306 304 304 307 307 305 308 312 315 313 316 316 320 320 319 320 318 322 324 323 325 324 328 338 340 339 338 337 337 337 337 336 335 336 336 336 334 334 333 333 333 332 331 330 329
299 302 302 299 305 307 305 304 304 311 313 315 315 314 314 318 318 316 315 315 317 318 321 330 333 336 338 340 340 339 339 337 336 336 336 336 335 335 335 336 335 334 333 333 333 332 331 330 329
301 301 301 305 306 307 304 305 309 311 312 312 314 315 314 314 313 313 312 311 311 312 313 317 324 326 332 337 338 338 337 337 335 335 334 333 334 335 334 334 333 333 333 333 332 331 330 329 328
299 299 301 304 306 309 310 307 307 309 309 310 315 313 312 309 309 309 308 309 306 306 307 308 312 318 319 325 331 333 334 333 333 333 333 333 334 334 334 333 334 332 332 331 331 330 329 329 328
299 300 302 304 303 309 310 308 306 304 308 308 311 309 307 305 303 303 303 305 304 302 302 302 304 307 311 314 322 328 331 331 331 333 333 332 333 333 333 331 332 332 330 330 330 329 328 327 327

GFSSGP_925_thetae_135.txt.gz
Theta_e
310 312 316 313 314 312 312 313 313 315 316 316 315 315 319 322 332 333 335 334 336 337 340 339 339 339 340 338 338 337 336 336 338 342 342 341 339 340 338 338 338 339 340 339 339 340 339 338 338
313 316 314 313 313 312 313 311 315 314 315 314 316 318 319 324 331 335 339 335 336 337 340 339 339 339 340 339 339 338 337 335 336 338 341 340 342 341 340 339 338 339 339 338 339 339 339 338 338
319 319 318 314 312 313 313 311 314 313 313 317 319 317 319 321 324 333 334 335 336 340 339 339 338 338 339 339 339 338 337 336 335 337 340 341 342 341 340 339 339 339 338 339 338 339 338 338 338
316 317 316 317 314 313 311 312 313 316 316 317 317 320 319 319 324 330 331 335 342 339 339 338 337 337 337 338 339 338 338 337 335 336 339 341 341 341 340 339 339 339 338 337 337 337 337 338 338
314 316 318 318 317 316 313 312 314 317 317 318 317 319 320 321 322 329 331 335 341 343 338 337 335 335 335 336 337 337 337 337 336 335 336 337 339 340 339 339 338 338 337 337 337 337 337 337 337
317 316 317 318 317 316 314 315 316 317 317 318 318 319 320 317 321 328 332 333 338 341 339 334 334 333 334 334 333 336 337 337 336 336 336 336 337 338 338 337 337 336 336 335 335 337 337 337 337
317 318 319 318 318 318 318 316 317 318 317 317 317 318 319 319 324 328 333 332 336 338 338 338 337 335 334 333 333 336 337 337 337 336 336 335 336 337 336 335 336 336 336 335 335 336 336 336 336
318 318 320 319 319 319 318 316 316 315 315 316 316 317 319 317 325 331 332 333 333 336 336 337 338 339 337 335 334 336 336 336 336 336 336 335 335 335 335 334 335 336 335 334 334 335 336 336 336
311 320 320 319 319 319 316 313 313 313 315 312 314 316 315 315 325 335 335 333 332 333 335 336 338 337 336 337 339 337 337 337 337 337 336 335 335 335 335 333 333 335 334 332 333 334 336 335 335
314 318 318 315 315 314 311 308 308 309 310 311 311 311 312 311 313 325 335 334 334 334 333 335 337 336 338 340 339 340 339 339 339 338 337 336 335 334 335 333 331 333 334 333 333 334 334 335 335
309 313 311 310 309 305 305 305 306 306 306 307 308 309 309 310 312 317 332 336 333 334 333 332 334 335 336 339 340 339 340 341 340 338 336 336 335 334 332 331 332 330 333 333 333 333 333 334 335
308 306 305 306 305 304 304 304 305 306 306 305 306 306 307 307 308 309 312 318 336 335 333 330 331 332 335 337 339 341 340 342 344 338 337 335 335 334 332 329 328 330 333 333 333 333 334 333 335
306 305 305 305 303 302 302 303 304 305 304 304 305 305 305 306 306 307 307 309 314 335 337 329 329 331 334 336 335 339 340 340 341 341 337 336 335 332 330 329 327 332 332 333 333 333 334 333 334
305 305 306 303 303 302 302 304 303 304 304 304 304 304 304 305 305 305 306 307 309 312 333 336 330 327 329 334 336 337 338 339 338 338 337 336 335 331 330 329 328 330 332 332 332 332 333 333 333
305 305 303 302 302 303 302 303 304 303 303 303 303 304 305 305 304 304 304 305 306 308 311 334 337 332 328 326 332 336 336 336 336 336 336 336 335 332 328 328 329 329 330 332 331 331 332 332 332
303 302 303 303 302 303 302 302 303 303 303 303 303 304 305 305 305 304 304 304 304 305 308 310 330 337 334 332 331 332 333 335 335 336 336 336 336 334 328 328 327 328 329 329 330 330 331 332 332
302 304 303 303 303 301 301 301 301 302 302 303 304 305 305 305 306 305 304 304 304 304 306 307 312 332 336 336 334 334 333 333 333 335 336 335 335 335 329 330 329 327 328 327 327 329 329 330 331
304 303 302 302 302 301 301 302 302 303 303 303 304 304 305 305 306 306 305 305 304 304 304 306 308 323 335 336 335 335 334 334 333 333 333 335 335 334 330 330 331 329 329 328 328 330 330 331 330
302 301 300 300 300 300 302 302 302 303 303 303 303 304 306 308 309 307 306 305 304 304 304 305 308 313 335 336 335 334 333 333 333 333 333 335 335 334 332 331 330 330 331 330 330 330 330 329 329
300 299 300 301 300 301 302 302 303 303 304 304 305 307 312 312 313 314 312 306 306 304 304 305 307 310 331 334 336 335 334 333 333 333 333 332 334 334 333 332 330 331 330 330 329 329 329 328 328
300 300 300 301 301 301 302 304 304 306 305 306 307 311 313 313 313 314 315 311 306 305 304 305 306 309 326 334 336 336 335 335 334 333 332 333 334 334 335 333 332 331 331 330 329 330 330 328 327
300 300 300 301 301 302 302 306 305 305 305 307 308 313 314 314 313 316 317 317 307 306 305 304 304 307 320 335 337 336 337 337 335 334 333 333 332 333 334 335 332 332 331 331 331 330 331 329 327
300 301 301 301 302 302 304 305 306 305 307 308 312 314 315 315 315 315 319 314 307 306 305 304 304 306 313 335 337 338 338 338 338 336 335 334 332 332 334 335 333 332 332 331 330 330 330 329 329
300 301 302 303 305 306 305 305 305 306 308 313 312 314 316 315 315 317 315 318 311 305 305 304 304 307 310 332 338 339 339 339 338 337 336 335 333 333 332 334 333 333 333 332 332 332 330 330 329
301 304 303 302 304 302 304 304 305 307 310 310 312 312 314 312 312 314 311 312 315 319 305 305 305 306 312 329 337 339 339 339 338 338 337 335 335 334 333 333 335 334 334 334 333 331 330 330 330
303 305 304 303 304 303 304 307 306 307 307 308 308 311 310 308 306 309 306 308 308 312 321 308 308 310 317 328 336 338 339 338 338 338 338 337 335 335 335 333 336 335 334 333 333 333 331 330 330
301 303 303 305 305 307 306 305 305 306 306 307 308 309 306 304 304 303 301 301 305 305 309 321 325 318 321 330 337 338 339 338 338 338 338 336 335 335 335 335 333 336 334 333 334 332 331 329 329
302 301 304 305 307 307 305 306 309 307 306 306 308 309 304 300 301 299 299 298 299 302 304 306 314 320 328 334 338 339 339 338 337 337 338 337 335 335 335 334 333 335 334 333 332 331 331 329 329
302 303 302 304 305 307 308 306 306 306 305 306 308 305 302 299 297 298 296 296 296 298 300 301 305 310 314 320 330 336 336 336 336 336 337 336 335 334 333 333 333 332 333 332 332 331 330 330 329
300 301 303 305 305 307 307 308 305 305 303 303 305 303 300 299 296 295 295 294 294 295 297 298 299 303 305 309 313 321 328 330 333 332 332 333 333 332 332 332 332 332 332 332 332 331 330 330 328

GFSSGP_925_thetae_138.txt.gz
Theta_e
313 315 317 319 320 318 319 318 318 319 319 319 321 320 321 322 327 336 332 341 340 345 347 340 339 340 338 337 336 336 337 337 340 342 344 341 340 339 338 339 341 343 340 339 339 338 338 338 338
315 317 318 319 318 320 321 318 318 318 318 320 321 322 324 328 325 327 336 337 341 346 348 346 339 340 338 338 337 336 336 337 341 343 343 341 340 339 338 339 340 341 340 339 340 340 339 338 338
320 319 321 319 319 321 320 317 318 318 318 320 321 321 323 324 324 326 329 336 341 346 347 347 339 340 339 338 338 337 336 336 339 343 342 340 340 340 339 339 339 340 340 339 339 339 338 338 338
319 319 319 321 321 320 317 317 318 319 319 321 321 322 322 322 322 325 332 340 341 345 347 348 339 340 340 339 339 338 337 336 337 340 341 340 342 340 340 339 339 339 339 338 338 339 338 339 338
318 319 322 322 322 320 318 318 319 320 321 321 321 323 323 322 321 326 332 341 342 345 347 347 340 340 339 339 339 338 337 337 337 338 340 342 342 340 340 339 339 339 338 337 337 337 338 338 338
320 321 323 324 324 321 320 320 320 321 322 321 321 322 323 321 319 326 331 340 344 345 347 348 341 339 339 338 338 338 338 337 336 338 341 342 341 340 340 339 338 338 337 336 336 337 338 337 338
321 323 324 324 324 323 322 320 321 320 320 319 319 320 322 321 317 322 332 338 342 345 346 346 345 342 338 338 338 338 338 337 336 336 338 339 339 339 338 338 337 337 336 336 336 337 337 336 337
320 320 322 322 322 322 321 319 318 316 317 316 317 319 319 316 314 316 327 337 340 342 343 344 344 344 344 343 338 338 338 338 337 337 338 338 338 338 337 336 336 336 336 335 335 336 337 336 336
319 320 320 321 321 321 320 315 315 313 315 314 315 315 313 313 313 316 322 331 338 340 341 341 341 342 342 343 342 339 339 339 338 339 338 338 339 338 337 338 336 336 335 334 334 334 335 335 336
317 318 317 319 319 317 314 312 311 310 311 311 311 311 310 311 312 315 318 322 329 336 339 339 340 340 340 339 340 343 343 341 342 342 342 340 340 339 337 337 335 335 335 333 333 333 334 334 337
315 314 316 314 312 311 310 309 309 308 309 309 309 310 310 309 310 311 313 315 316 330 336 337 339 339 339 338 339 341 341 342 342 342 342 341 341 340 337 336 334 336 334 335 334 333 336 337 337
312 312 311 310 308 307 307 308 308 308 309 309 308 309 309 309 310 310 310 311 313 314 333 336 336 338 338 337 337 339 339 339 340 341 341 341 341 339 337 336 335 335 335 335 336 335 336 336 336
310 309 308 308 307 307 307 308 308 309 309 308 308 308 308 309 309 308 308 309 310 312 315 329 336 336 337 337 336 338 339 340 340 339 340 341 339 339 338 335 335 335 335 336 336 336 337 336 337
308 307 308 308 307 307 306 307 307 309 308 307 307 308 308 309 309 309 308 308 309 309 311 314 330 337 336 336 337 337 338 339 339 339 339 341 339 338 337 335 334 334 335 334 335 336 336 336 336
309 308 308 307 307 307 306 307 308 308 307 306 307 308 309 310 309 310 309 309 308 308 309 310 313 331 338 336 336 336 336 337 338 339 338 338 340 338 336 335 333 334 335 335 336 336 337 336 335
307 307 308 308 307 306 305 307 307 307 306 307 308 309 310 310 310 310 310 310 309 309 308 308 310 314 334 337 336 336 335 337 337 338 338 338 339 338 336 335 333 334 335 336 336 336 335 336 335
307 307 307 307 306 305 305 306 306 307 306 307 308 309 310 310 310 312 313 313 313 310 309 309 309 311 317 334 336 337 336 336 336 337 336 337 338 338 336 334 334 334 334 334 334 334 334 335 334
308 307 306 306 306 305 305 306 306 306 307 308 309 309 309 310 313 313 313 313 314 314 312 309 309 309 312 321 336 336 337 336 336 336 336 336 336 337 336 334 334 334 333 333 332 332 333 333 332
305 304 304 305 305 304 305 305 306 307 307 308 309 310 310 313 314 313 314 314 315 316 315 312 309 309 310 315 329 336 338 338 336 335 335 336 335 336 336 334 335 333 333 332 331 331 332 333 332
303 303 305 304 304 303 305 306 307 307 308 309 310 312 314 314 315 315 315 314 316 316 317 316 310 309 309 311 324 334 337 339 337 336 335 336 334 335 336 335 335 333 332 332 331 333 333 333 332
304 303 303 302 304 305 306 308 307 308 308 310 313 313 313 314 316 316 314 313 314 315 319 318 313 309 309 309 319 331 336 337 337 337 336 336 335 334 335 335 335 333 333 332 331 333 333 332 330
303 302 302 303 304 306 306 306 307 308 309 312 312 312 313 314 313 310 309 310 308 311 314 319 315 309 308 309 315 329 334 336 336 336 337 336 335 334 333 335 335 334 333 333 332 333 333 332 330
302 302 304 305 305 306 308 307 308 308 311 311 310 311 313 310 308 306 305 304 302 304 308 315 312 310 308 308 310 328 333 334 335 335 337 337 336 334 333 333 335 334 334 334 333 332 334 333 332
302 305 306 306 308 308 307 306 306 310 310 310 310 313 311 309 305 304 301 300 299 299 303 309 313 308 308 308 310 328 334 334 334 336 338 337 337 334 332 333 333 334 333 334 333 332 334 334 333
304 306 306 306 307 306 306 306 307 310 309 309 312 311 306 305 303 300 300 297 298 298 300 305 315 308 308 308 310 329 334 335 337 338 338 338 337 334 334 332 332 334 333 333 333 332 333 334 334
305 306 307 307 305 306 306 307 308 309 308 309 309 305 304 303 302 300 298 296 296 296 298 301 310 309 308 308 312 326 333 334 336 337 337 339 337 335 334 333 333 333 333 333 332 333 333 334 335
305 306 305 309 307 308 308 307 308 309 308 307 305 304 303 301 300 299 296 294 295 295 296 299 302 316 310 309 313 324 333 334 335 336 338 338 338 337 335 334 332 333 334 333 333 334 334 335 335
305 304 309 309 310 307 306 306 310 310 309 307 305 304 303 301 299 298 296 293 294 294 294 296 298 303 314 325 324 330 334 336 336 337 338 339 339 338 336 335 333 333 333 334 334 334 333 333 333
305 305 305 307 308 309 308 308 308 308 308 306 304 303 303 301 299 297 295 292 292 293 293 294 296 299 305 307 316 329 335 336 337 339 339 338 339 337 336 335 334 333 333 334 334 334 336 333 332
303 304 304 309 309 308 309 308 308 307 306 305 304 302 301 301 298 296 294 292 291 292 292 293 294 296 301 302 305 310 318 327 332 337 338 338 338 337 337 336 335 334 332 333 333 333 333 332 331

GFSSGP_925_thetae_141.txt.gz
Theta_e
313 318 318 321 323 322 322 322 322 322 322 321 322 323 324 328 331 334 330 336 341 343 350 342 341 341 339 337 336 335 335 337 341 344 343 342 339 339 339 339 341 343 344 342 341 340 339 337 338
319 318 319 323 321 324 323 322 321 321 320 322 322 324 326 330 327 328 330 333 339 344 349 347 340 340 338 337 336 336 336 336 338 341 344 343 340 340 339 339 340 343 342 340 339 339 338 338 338
321 319 325 324 325 324 323 321 321 321 320 322 322 323 324 327 325 327 330 338 342 345 348 348 342 341 338 337 337 336 336 336 338 341 344 343 340 340 339 339 340 341 340 340 339 339 338 339 338
322 322 322 324 324 325 322 321 320 321 322 323 323 323 324 324 323 326 331 339 343 344 348 349 346 340 339 338 337 337 337 337 339 342 343 342 340 340 339 339 340 340 339 339 339 339 338 338 338
319 325 325 326 325 325 323 321 321 322 323 324 323 324 324 324 321 321 330 337 345 343 348 349 347 340 340 339 338 338 337 337 339 342 342 341 340 340 339 339 338 339 339 338 338 339 339 339 339
323 323 326 326 326 325 324 324 323 324 324 324 323 323 325 323 320 318 324 336 344 346 348 351 346 340 341 340 339 338 338 337 337 340 341 341 341 340 340 339 338 339 338 337 337 337 338 338 338
322 325 326 325 326 325 325 323 324 323 322 322 321 322 323 323 317 317 320 334 340 346 349 350 348 343 340 340 340 339 338 338 337 340 342 342 342 341 340 340 338 339 338 337 336 336 337 338 338
323 323 324 324 324 325 324 321 320 319 319 319 319 319 322 317 315 317 321 331 339 343 347 348 348 347 346 345 338 339 339 338 338 338 341 342 342 341 340 339 339 338 337 337 336 336 337 337 337
320 321 322 322 323 323 323 319 317 316 315 317 316 317 314 313 313 315 319 324 328 339 343 345 346 346 346 345 345 337 338 339 338 339 339 340 341 341 341 339 340 337 337 336 336 335 337 335 335
318 320 320 321 321 319 316 314 313 312 313 314 314 314 312 312 312 313 315 318 320 323 338 342 343 343 343 342 344 343 343 342 342 342 343 342 341 341 340 340 339 336 337 336 335 335 335 334 338
317 317 318 317 314 313 312 312 311 311 312 313 312 312 312 311 311 312 312 313 315 317 324 338 340 341 342 340 340 341 341 341 341 340 343 342 340 341 340 340 339 338 336 337 334 334 335 336 337
313 315 315 314 311 310 310 310 310 311 312 312 312 311 311 312 312 312 312 312 312 313 316 320 338 339 341 339 338 338 339 341 340 341 341 342 341 340 339 338 337 337 337 336 336 336 336 337 339
312 312 311 311 309 310 309 309 310 311 312 312 311 311 311 311 312 312 312 312 312 312 312 314 318 336 339 340 337 338 339 340 341 342 343 340 341 341 338 337 336 335 336 336 335 336 337 338 338
311 310 310 311 310 310 309 310 310 311 311 310 310 310 311 311 312 312 312 312 312 312 312 312 313 316 336 339 338 337 339 339 341 341 341 340 341 339 337 337 336 335 335 335 335 336 336 337 337
310 310 311 311 310 309 309 310 310 312 310 310 310 311 311 312 312 312 312 314 315 314 313 312 312 312 315 336 339 338 337 339 339 340 340 340 342 339 338 337 336 335 334 336 335 336 337 336 336
309 310 310 312 310 309 308 309 310 310 310 309 310 311 311 312 312 311 314 314 314 315 316 316 315 312 312 315 337 338 337 338 338 339 340 340 341 339 339 337 336 334 335 335 335 335 336 336 335
311 310 312 311 310 308 308 309 311 311 309 309 310 311 311 312 312 314 314 315 315 316 316 317 318 318 314 313 317 339 339 338 338 339 339 339 340 340 339 337 336 335 335 335 336 336 337 336 336
312 312 311 310 310 308 309 309 310 310 310 310 311 312 312 313 315 314 315 316 317 316 316 317 319 319 318 314 314 321 338 340 339 339 340 340 339 340 340 337 336 335 335 336 336 336 335 336 334
308 308 308 309 309 307 308 309 309 310 310 311 312 314 315 315 315 315 314 312 312 312 312 315 316 318 321 317 314 315 331 337 340 339 339 340 339 340 340 338 337 336 336 336 336 335 335 335 334
307 308 308 308 307 307 308 309 311 310 310 311 314 314 313 314 315 312 310 309 308 307 307 309 311 314 318 320 314 314 315 335 338 340 339 339 339 339 340 339 337 337 336 336 336 335 334 335 333
307 307 307 306 306 308 309 310 310 310 311 313 313 312 313 315 313 310 307 306 304 303 305 305 305 308 313 319 316 314 314 323 337 338 339 340 340 338 341 339 338 338 336 336 336 335 334 335 335
307 306 304 305 307 308 309 308 310 310 311 312 312 313 314 311 310 308 306 303 302 301 301 300 301 304 309 315 321 313 314 320 333 336 338 340 339 338 339 339 339 338 336 336 336 335 336 335 335
306 305 305 307 308 309 310 310 311 310 312 311 313 312 310 309 307 306 304 303 301 298 299 298 298 300 307 314 319 314 314 317 330 335 336 339 340 339 337 339 339 338 336 336 336 334 337 336 334
304 305 308 310 310 311 312 310 308 312 311 311 312 309 309 308 306 305 302 301 299 296 297 296 297 298 304 311 319 315 313 318 333 334 335 337 340 339 337 336 339 339 337 336 336 334 337 336 335
305 308 310 313 313 312 309 308 308 311 311 310 310 309 308 307 305 304 302 299 297 295 295 295 295 297 302 312 318 313 314 312 331 333 335 334 337 340 337 335 337 339 338 336 338 335 337 337 336
307 308 310 311 309 310 309 307 312 311 311 310 309 307 306 305 304 303 301 298 296 294 294 294 295 296 300 312 312 312 313 314 328 333 333 331 328 333 338 335 334 338 338 336 337 337 335 337 337
308 309 309 310 308 311 310 310 309 311 311 310 309 307 306 305 303 302 300 297 295 293 293 293 294 295 298 307 317 311 313 313 329 333 335 328 324 322 336 336 334 334 336 336 336 336 335 336 337
308 309 311 312 312 310 307 308 311 312 311 310 308 307 305 304 302 301 299 296 294 293 292 293 293 294 297 302 308 320 313 319 333 334 335 334 331 331 337 336 335 333 334 335 335 334 334 334 337
306 307 306 309 309 311 309 310 311 310 310 309 307 305 304 303 302 301 298 294 293 293 292 292 292 294 295 299 302 308 318 325 333 335 334 329 334 335 337 336 335 334 334 334 334 333 333 333 336
307 309 308 311 311 310 310 309 310 310 309 307 306 305 303 302 301 299 296 293 292 292 291 291 292 293 294 298 298 302 305 313 317 323 330 334 336 339 339 337 335 334 333 334 334 333 334 334 335